GFSGL_500_spd_000.txt.gz
Wind_Speed
13 9 8 13 16 17 16 15 28 33 33 35 33 31 32 31 32 33 31 31 30 29 28 30 31 32 31 25 21 23 27 30 33 36 36 36 40 47 52 53 55 52 45
10 9 12 13 13 15 21 29 25 35 38 36 27 40 45 33 38 36 32 35 34 32 31 31 32 32 28 23 30 32 32 34 37 37 38 38 44 49 52 56 54 52 47
10 11 14 15 18 22 30 29 29 33 35 42 44 40 35 42 38 37 35 34 35 34 34 33 34 36 35 38 34 30 35 38 39 41 37 42 49 53 55 54 51 51 50
15 17 18 20 21 25 28 33 35 38 41 41 34 38 19 26 28 32 38 33 35 37 37 33 33 36 38 35 34 38 46 48 50 42 39 45 51 53 54 51 50 48 51
22 21 19 24 24 25 30 34 39 41 43 35 31 27 24 28 28 34 37 35 36 37 38 34 35 35 38 38 36 37 42 42 41 38 45 49 53 54 53 50 45 49 46
22 20 25 26 31 33 35 39 41 45 47 34 30 36 33 29 31 35 37 38 39 37 37 41 39 40 41 42 45 45 42 51 42 44 43 53 53 50 50 48 47 48 40
23 23 26 31 36 38 39 45 44 48 45 43 40 39 40 36 33 31 33 30 32 33 35 37 38 42 43 38 42 38 41 46 47 44 44 51 50 48 48 47 47 43 39
29 32 34 38 41 44 44 46 48 46 51 48 43 42 44 39 33 31 27 28 28 36 40 34 32 28 32 36 36 40 44 45 44 47 50 51 50 50 49 46 42 38 39
35 37 38 39 45 49 51 52 57 64 46 48 46 45 44 38 30 30 27 26 23 24 24 29 33 35 40 44 40 42 48 49 48 50 53 52 53 49 48 41 39 38 40
36 39 41 46 51 54 59 51 57 55 52 50 46 41 39 33 34 31 29 30 27 24 32 36 40 44 43 46 44 49 53 52 53 54 54 53 48 46 45 42 42 40 39
39 43 46 52 55 58 52 43 52 51 47 49 43 35 34 34 33 29 26 27 34 39 41 43 43 43 41 42 47 51 53 55 55 55 49 44 44 44 42 38 36 33 33
44 45 51 54 59 58 55 48 53 53 51 42 40 37 36 35 33 36 35 34 36 39 46 40 37 38 41 46 48 53 53 52 49 44 41 40 40 38 36 34 33 31 33
41 46 50 54 61 56 53 54 50 45 39 38 40 36 38 38 41 38 40 38 38 41 40 39 41 43 45 46 50 46 46 42 39 37 38 37 36 37 36 36 35 35 34
41 45 48 53 46 55 56 51 45 43 37 37 34 39 43 45 44 41 41 40 38 40 41 42 45 44 43 43 38 41 40 37 35 35 34 34 34 35 33 33 32 30 30
49 50 49 48 53 47 43 46 45 43 40 39 43 44 45 46 42 40 38 38 38 39 41 45 42 40 38 39 38 38 37 36 35 34 32 33 33 33 34 34 32 29 28
50 47 48 45 42 43 45 44 44 43 42 42 45 45 45 45 41 40 39 41 39 41 42 39 39 40 40 39 40 39 37 35 32 33 33 33 33 32 32 32 30 28 27
40 41 45 44 44 45 43 42 43 44 45 46 46 46 46 41 40 42 41 41 39 38 40 42 43 44 44 41 40 38 35 34 32 31 31 32 32 31 30 29 28 27 26
45 49 49 50 47 47 46 44 43 44 45 44 43 43 42 41 40 38 37 37 37 37 38 38 37 37 37 37 37 34 33 31 30 29 30 29 28 27 28 26 24 24 24
51 45 45 46 48 47 43 43 46 46 44 43 44 40 37 36 36 35 33 32 33 31 30 30 31 32 33 32 30 30 29 28 27 26 23 23 24 25 25 23 22 22 21
46 43 45 45 43 42 45 46 44 42 43 39 37 37 34 34 33 30 27 27 27 29 31 32 31 30 28 29 28 27 26 23 19 19 19 20 20 21 22 22 21 20 19
41 39 40 41 43 43 34 39 35 35 33 36 37 34 31 31 30 26 27 28 31 33 33 32 29 28 26 24 22 21 20 17 17 19 20 21 22 23 23 22 21 20 20
38 40 41 38 33 32 35 34 38 38 34 31 27 25 27 25 25 27 29 26 27 31 30 28 26 26 23 21 20 21 21 20 21 22 22 22 23 24 24 24 23 21 20
37 36 34 32 37 37 36 38 36 32 30 27 25 25 24 25 26 25 25 28 28 27 26 26 25 23 22 22 23 23 22 22 22 22 23 24 25 26 26 26 24 23 20
34 34 33 32 29 29 29 30 29 26 25 24 23 24 24 24 23 28 28 27 24 24 25 26 24 23 22 22 22 21 22 23 24 25 25 25 24 21 20 21 20 20 19
30 29 29 27 26 28 28 27 25 26 25 25 26 24 23 22 26 25 24 23 23 23 23 24 23 23 24 23 23 22 22 24 25 26 25 23 21 19 18 17 17 17 17
26 26 26 27 28 27 26 25 26 25 24 24 24 22 23 24 24 22 21 21 22 21 20 20 22 22 22 22 21 19 20 22 21 23 22 19 16 16 16 17 17 17 16

GFSGL_500_spd_003.txt.gz
Wind_Speed
19 19 18 17 15 15 13 14 16 19 21 25 34 29 30 34 32 33 38 35 36 40 37 37 37 36 36 34 33 32 32 29 33 35 31 32 33 35 37 38 42 43 50
19 21 20 16 13 12 16 19 19 17 22 22 24 32 31 33 24 21 27 38 46 41 38 40 39 38 38 38 37 35 35 37 39 34 36 38 39 40 42 43 47 52 56
21 19 17 15 15 18 20 19 17 22 21 29 27 27 30 34 32 29 32 38 41 39 40 38 39 37 38 38 39 39 39 42 40 40 42 43 46 49 44 50 53 55 58
18 18 18 16 17 19 17 19 24 21 28 30 32 30 32 36 35 34 39 42 42 42 37 41 40 38 35 37 39 40 40 42 44 44 40 44 46 53 56 55 57 55 61
19 17 17 14 16 20 21 25 30 28 33 36 37 33 34 43 43 42 45 47 44 38 37 36 41 36 35 39 38 39 43 46 47 49 56 49 53 56 58 56 52 56 53
19 18 18 16 18 23 27 31 36 38 40 42 46 43 47 42 41 45 41 42 42 37 28 33 36 31 36 36 42 43 44 43 41 46 43 47 48 57 55 53 54 56 46
22 18 22 21 27 30 33 36 41 44 47 49 53 57 57 46 42 44 40 39 38 36 30 31 31 33 37 34 35 34 35 36 44 43 47 49 54 56 58 57 57 51 47
27 27 28 29 32 35 38 41 44 48 50 51 57 48 46 48 42 43 39 36 34 35 37 33 32 32 31 32 34 35 37 45 50 49 50 53 57 57 58 58 55 51 45
33 35 30 31 35 40 42 43 48 53 57 57 49 52 53 51 48 40 36 35 34 32 35 34 35 32 35 39 41 45 47 49 51 52 54 56 58 61 60 59 52 48 43
32 32 33 35 38 41 44 45 50 59 60 53 49 51 54 52 44 35 34 33 29 33 35 37 38 40 46 48 50 51 45 48 50 54 56 58 58 54 51 47 43 42 39
39 40 39 40 45 45 45 49 52 58 62 58 56 53 52 46 39 37 38 37 34 38 40 40 43 43 47 48 52 47 49 50 54 57 58 55 50 48 44 43 40 38 38
45 46 44 47 49 47 49 49 53 53 61 59 55 52 47 41 41 38 38 40 42 45 43 44 46 45 48 49 48 50 53 55 55 51 47 47 43 40 39 36 36 37 36
46 46 49 48 48 50 52 54 56 56 54 57 53 44 44 43 39 41 40 46 44 42 44 45 40 42 47 50 51 52 53 48 45 45 46 42 39 38 37 35 35 34 35
52 50 46 45 50 54 54 57 52 51 53 48 44 44 43 41 41 40 49 46 43 44 45 45 44 46 49 49 50 49 45 43 44 43 43 41 38 36 35 35 35 34 35
51 50 50 54 54 56 55 54 47 48 46 47 47 49 45 50 48 45 43 44 47 45 44 46 48 47 47 44 42 41 44 45 46 46 43 39 36 36 35 35 36 35 34
51 47 53 55 59 55 56 48 43 46 46 44 46 48 46 46 46 48 46 45 45 47 47 46 44 42 42 43 44 42 42 42 41 41 38 36 36 36 35 34 34 33 32
50 50 55 56 55 54 51 49 50 48 45 47 46 46 46 48 48 45 45 45 43 41 41 40 39 40 38 38 39 40 39 38 35 34 32 33 35 34 31 29 30 30 30
52 56 56 53 51 52 52 51 45 44 44 46 46 48 46 44 44 41 39 38 38 38 38 37 36 35 35 36 37 36 34 32 32 32 32 31 31 27 26 26 27 28 28
50 50 49 49 49 51 50 50 49 45 46 47 47 45 38 38 34 37 34 34 33 32 31 30 32 35 36 34 33 33 33 32 32 30 26 24 22 23 24 25 25 25 26
51 48 46 47 47 48 48 46 43 44 47 44 39 37 32 38 38 32 32 30 29 26 28 30 29 32 32 31 30 30 30 26 23 21 20 21 22 24 26 27 27 26 25
46 43 45 48 47 41 41 41 41 41 35 39 39 33 30 31 27 24 27 23 26 27 25 29 29 28 29 27 27 27 25 23 22 23 23 23 24 25 25 27 27 27 27
42 44 44 40 38 37 36 37 34 35 37 38 38 36 33 26 24 24 25 26 24 26 28 28 26 25 27 27 25 24 24 25 25 24 23 23 24 27 29 29 29 29 28
38 37 36 37 36 32 33 33 36 41 37 33 34 30 25 24 23 23 25 23 24 25 25 24 23 24 25 26 26 25 24 24 23 23 24 25 27 28 28 27 26 24 23
35 35 36 34 32 31 34 34 32 31 32 32 31 27 25 22 23 24 22 23 22 21 21 20 20 19 20 23 24 24 24 24 23 23 24 25 25 26 25 23 21 20 19
35 33 31 30 30 31 32 29 29 31 31 30 28 26 24 23 24 23 23 23 20 18 18 19 18 19 23 23 22 22 22 21 19 21 21 21 22 22 19 19 19 20 20
32 30 29 28 29 29 30 31 31 31 29 27 26 25 22 21 22 23 23 21 21 20 20 19 19 20 22 23 23 22 22 22 23 23 22 21 20 17 16 18 18 18 18

GFSGL_500_spd_006.txt.gz
Wind_Speed
17 20 23 24 19 9 5 4 13 11 11 10 16 20 23 28 28 30 30 26 29 32 33 33 36 38 37 36 37 39 40 40 38 36 35 34 36 35 37 38 37 36 38
18 18 18 18 12 7 5 9 6 9 10 13 17 20 24 31 32 32 38 41 39 35 34 36 40 38 37 36 36 38 39 39 40 39 41 43 43 42 42 41 39 42 46
17 13 7 6 3 5 8 5 5 8 11 18 24 30 33 34 35 41 44 45 42 40 40 40 39 34 32 34 35 37 40 39 40 44 47 46 45 47 48 44 44 46 52
13 8 2 1 2 5 5 3 6 6 13 19 23 30 35 40 43 35 42 39 41 43 37 39 37 34 31 31 34 36 37 37 39 42 35 39 50 51 52 56 57 51 57
15 9 4 4 7 9 6 12 17 18 22 27 30 36 42 44 43 38 37 37 40 43 38 36 36 33 33 31 31 32 33 38 44 44 49 46 43 42 42 44 44 48 53
19 12 12 8 11 12 15 16 20 24 27 28 34 40 45 50 35 41 42 44 40 42 37 32 34 33 35 31 31 35 34 37 39 34 39 38 42 50 51 51 53 54 54
24 17 17 12 10 15 17 20 23 27 31 34 38 46 50 55 46 42 46 44 46 38 36 33 33 33 33 34 39 42 36 38 38 37 44 46 50 52 52 53 57 57 59
28 24 21 21 19 22 23 26 30 32 34 39 43 48 53 58 53 44 47 47 46 39 35 32 33 33 31 37 41 40 42 42 44 48 50 52 51 50 54 57 57 60 56
29 25 22 22 29 29 29 30 35 36 38 41 46 50 57 51 51 51 49 48 44 38 32 36 31 33 39 42 43 44 47 50 52 53 52 51 51 54 56 59 61 57 49
28 26 26 26 28 30 32 35 36 40 44 46 48 52 56 55 59 51 50 41 39 38 38 38 40 40 43 46 48 49 52 55 53 52 54 53 56 58 56 53 48 46 43
30 27 29 29 32 34 34 35 38 43 48 49 52 53 55 55 51 49 40 39 40 38 36 37 41 46 46 48 51 55 55 54 53 55 55 55 56 51 47 48 42 38 38
32 33 31 33 37 39 39 33 41 47 51 53 56 57 60 52 47 41 40 38 38 40 47 38 49 45 43 46 53 54 52 54 54 54 53 52 48 46 44 43 41 40 39
39 37 38 40 42 46 43 42 43 45 55 56 59 59 57 47 44 45 44 42 42 44 41 47 44 43 46 47 50 49 51 52 50 49 46 47 46 45 47 43 41 39 37
41 41 43 43 43 45 47 52 54 54 57 56 55 54 47 45 46 43 44 44 43 42 41 44 44 43 43 47 47 48 47 44 44 46 45 45 44 43 42 40 38 38 37
39 44 47 50 50 52 51 53 53 56 58 56 52 50 49 49 48 46 44 43 46 44 44 42 44 44 44 44 43 42 40 40 38 41 43 42 40 38 36 35 34 35 36
50 50 52 53 53 53 52 54 58 57 59 56 52 50 48 48 48 47 46 46 41 40 38 39 40 41 43 41 37 36 38 38 39 40 39 36 33 33 33 34 32 31 32
57 57 56 52 55 52 53 57 57 59 56 53 47 46 48 49 49 49 49 37 35 35 38 37 37 36 33 31 34 35 37 38 37 36 35 35 33 33 32 28 26 27 29
55 53 56 61 60 50 57 57 53 51 48 47 44 44 45 46 48 45 35 33 36 40 38 36 32 27 29 29 31 34 35 34 33 33 32 30 27 25 24 23 25 26 29
53 59 59 54 52 56 56 51 50 47 43 42 43 43 42 42 39 35 34 35 36 35 32 26 24 25 28 29 29 30 30 30 30 29 26 23 22 22 23 25 27 29 30
46 53 55 48 50 51 49 43 41 42 44 43 41 37 34 37 36 35 34 32 30 27 25 26 27 25 27 26 28 28 27 27 27 26 25 25 24 24 26 27 28 31 32
48 47 48 51 49 42 40 41 41 40 40 39 35 28 34 36 35 32 29 26 26 25 24 24 26 24 21 24 25 27 26 26 25 25 25 25 23 24 26 28 31 32 32
46 40 40 44 40 38 38 36 37 40 40 39 33 33 34 31 31 27 22 24 23 22 22 24 23 23 20 22 22 23 25 26 26 26 26 25 25 27 29 30 30 30 28
41 37 39 39 38 32 34 36 38 36 37 36 34 32 29 31 29 26 23 23 22 21 23 22 21 21 21 21 23 25 25 25 25 25 24 23 24 25 26 27 28 26 24
37 33 28 31 35 36 36 34 34 32 35 34 31 29 31 29 26 23 23 23 22 23 23 21 20 21 20 21 23 25 23 24 25 27 26 26 26 26 27 26 23 23 22
26 30 31 35 35 34 33 35 35 34 34 32 32 33 30 26 25 25 23 22 23 23 22 22 23 23 23 23 23 23 23 23 25 26 27 28 27 26 25 21 21 21 21
32 33 36 36 34 34 33 33 37 36 36 34 31 30 28 28 28 25 23 22 23 23 23 24 26 27 26 26 25 24 23 23 24 25 26 27 26 24 20 18 18 18 20

GFSGL_500_spd_009.txt.gz
Wind_Speed
13 11 12 15 12 9 8 6 5 6 4 4 6 7 11 16 24 26 29 30 33 32 27 28 31 31 28 28 25 25 28 31 33 34 35 35 39 38 36 36 36 35 35
14 10 9 7 5 9 8 6 5 6 5 6 12 14 15 16 23 34 38 37 33 31 33 32 33 36 35 29 26 27 28 29 29 32 33 36 38 39 43 45 45 44 41
13 9 3 6 10 12 10 8 7 7 8 7 11 12 19 24 30 37 38 40 33 30 34 36 37 33 35 30 28 31 28 27 27 28 30 34 37 42 44 38 42 48 47
10 8 8 13 15 15 11 11 10 7 9 10 17 22 25 30 34 34 33 45 41 33 33 36 40 35 33 32 30 31 34 28 26 31 31 33 37 35 36 32 36 36 33
15 10 12 14 16 15 14 12 12 13 16 18 20 20 22 29 34 41 42 42 40 39 38 40 39 36 33 31 30 30 31 33 32 40 35 34 35 34 37 39 41 40 44
22 13 17 14 15 15 13 14 14 11 13 17 20 24 25 29 38 42 45 41 44 45 39 42 40 35 33 32 32 33 31 32 35 41 38 39 41 42 44 48 50 50 46
25 20 16 18 16 17 16 14 12 15 18 21 23 26 29 33 39 41 43 48 49 49 45 39 36 33 33 32 31 30 35 36 41 40 43 43 46 48 52 54 50 49 49
31 28 24 19 20 26 22 20 22 23 22 22 26 29 34 38 42 44 47 51 52 47 44 34 31 33 35 35 35 33 39 44 47 46 46 48 52 54 54 53 52 53 52
35 33 30 22 21 26 27 29 29 27 27 20 26 31 36 42 47 47 51 55 50 44 38 34 33 36 36 37 39 41 46 48 50 52 52 54 57 55 53 55 53 51 47
36 33 31 25 24 24 25 29 28 32 36 27 32 35 39 45 48 50 54 56 45 39 38 36 34 35 36 42 44 46 49 50 46 50 54 56 55 55 56 54 49 44 43
35 37 35 31 26 21 22 30 30 29 34 34 40 42 38 46 49 53 52 45 37 37 37 35 36 39 41 43 42 49 47 48 51 52 54 53 53 53 50 45 45 44 41
35 41 38 33 24 22 31 33 31 37 40 44 40 39 45 49 51 58 49 40 39 39 42 40 41 42 43 43 45 48 52 51 49 51 52 51 49 47 45 45 43 41 39
37 38 35 30 30 32 34 34 38 47 40 44 46 50 50 53 54 54 47 45 43 43 43 44 44 44 46 48 48 47 48 46 45 45 44 43 42 40 41 42 40 38 36
42 40 34 38 36 35 37 41 45 46 47 48 51 52 54 58 57 55 48 44 41 43 45 44 46 46 44 42 42 42 43 42 39 38 38 40 42 42 41 37 34 32 31
45 46 46 43 37 38 40 44 45 49 50 49 53 53 54 56 51 46 45 44 43 43 45 46 41 37 38 41 40 40 36 33 33 36 39 40 39 37 36 33 30 30 29
51 45 44 40 38 42 43 46 50 51 51 54 56 56 53 49 44 45 45 45 44 44 43 36 35 38 40 39 34 30 29 31 33 36 38 37 34 31 30 29 27 26 26
50 46 46 44 45 47 47 50 53 51 55 57 58 60 58 50 44 43 42 43 43 37 33 34 36 36 35 28 27 29 29 30 31 34 35 34 32 28 26 23 22 22 24
48 50 50 48 51 53 54 55 54 59 62 55 53 54 50 44 42 41 41 41 38 37 35 34 32 30 26 27 27 29 28 29 30 31 30 30 28 26 26 25 25 26 27
48 53 57 57 55 58 56 57 56 53 42 40 43 43 40 38 40 39 38 38 37 36 33 30 27 27 27 27 27 26 26 27 29 30 29 28 28 28 27 27 27 28 30
57 60 58 56 53 53 53 51 49 47 45 41 41 39 38 38 40 37 35 34 31 31 29 25 28 29 24 24 24 23 23 25 28 28 29 29 29 29 29 29 31 33 34
50 58 58 49 38 46 57 49 45 47 42 42 41 35 35 37 38 33 34 30 30 30 27 26 27 24 22 22 23 23 23 25 27 27 28 29 29 29 29 30 30 30 31
41 44 44 40 38 44 48 47 45 42 42 41 37 37 35 36 35 32 31 30 31 30 28 26 25 24 19 20 22 22 23 24 26 27 28 29 30 30 31 31 31 30 28
42 43 41 42 37 41 38 38 37 41 39 37 38 35 34 33 31 30 30 31 29 26 25 26 24 23 19 21 24 25 24 24 25 26 28 29 30 31 32 29 28 26 26
48 38 33 37 41 28 30 35 34 35 40 37 31 31 34 33 32 33 33 32 29 27 28 24 23 23 22 24 27 29 27 26 25 25 26 28 29 30 31 29 24 24 22
37 33 26 24 30 29 33 36 35 36 35 34 33 28 32 32 33 35 31 27 27 26 23 22 22 23 25 26 28 27 26 26 26 26 26 27 27 29 30 29 22 21 23
23 25 27 29 28 31 37 38 36 34 30 32 34 32 31 34 34 33 30 28 25 22 22 23 24 25 26 26 26 25 24 24 25 26 27 27 27 27 28 29 25 22 23

GFSGL_500_spd_012.txt.gz
Wind_Speed
11 11 11 15 16 16 20 20 16 9 8 8 9 9 11 14 14 16 20 25 30 31 29 27 25 26 28 29 24 21 19 18 20 23 22 23 25 22 21 24 26 32 36
16 13 10 12 15 19 22 20 16 11 7 7 7 7 8 11 15 17 21 16 27 31 30 30 32 32 33 31 29 27 26 24 23 22 23 23 24 26 24 24 28 27 31
17 14 11 11 16 22 22 19 14 11 10 10 9 11 12 16 19 20 24 23 29 33 34 36 34 35 38 36 31 31 31 28 26 22 21 20 24 25 23 25 27 30 26
18 13 11 11 17 23 23 20 16 11 10 12 13 14 17 17 18 22 26 27 28 31 38 40 40 40 41 38 35 33 34 33 31 27 23 23 27 32 34 34 34 34 37
22 16 13 17 20 24 24 21 20 17 14 14 16 14 13 16 18 23 25 29 32 36 40 44 43 40 40 37 36 34 33 34 35 32 27 29 34 35 37 39 39 42 40
23 22 20 22 22 23 23 24 22 21 17 15 15 15 15 18 19 23 25 30 32 36 41 45 39 37 35 32 31 29 33 35 36 34 34 38 42 42 42 43 46 46 45
27 23 21 23 25 25 25 29 27 27 23 20 21 18 19 20 22 24 28 30 33 37 43 43 35 31 31 32 31 31 34 36 39 38 39 43 46 47 48 48 50 51 52
30 26 24 22 25 27 27 31 28 27 25 27 29 25 28 26 24 26 29 34 36 41 45 38 32 32 33 31 32 33 34 37 40 41 44 49 51 51 50 50 53 56 51
33 33 27 28 31 29 28 32 35 35 33 32 37 35 34 27 28 29 34 37 39 44 42 33 32 31 35 31 33 35 38 43 42 43 47 50 50 54 57 56 53 52 51
37 36 35 32 36 35 33 33 38 38 37 38 41 36 30 31 35 33 37 38 44 46 43 37 37 38 38 37 37 37 38 40 41 45 51 55 57 54 53 55 53 50 46
39 34 35 36 39 39 38 34 37 42 43 40 42 31 30 34 33 36 40 43 48 50 47 41 40 40 40 41 36 33 36 39 44 52 52 52 52 49 48 46 44 43 41
49 44 44 40 44 44 41 37 41 43 43 45 45 27 32 34 38 41 43 47 51 51 43 40 41 42 43 43 38 40 43 47 47 49 49 48 46 43 41 42 43 44 43
50 43 45 43 42 46 47 45 45 44 45 47 34 32 35 35 41 44 44 48 51 47 45 45 43 43 43 44 41 38 39 43 45 44 41 38 38 40 42 44 43 42 38
49 47 46 44 45 44 52 50 48 49 47 39 37 40 36 39 44 46 48 52 52 51 47 46 44 42 43 39 35 38 43 42 38 35 35 36 37 39 41 41 38 36 33
65 48 48 49 48 47 53 56 57 54 45 30 39 42 41 43 48 52 54 58 58 49 46 45 44 42 39 38 40 39 35 29 31 32 33 34 36 37 37 36 32 30 28
60 55 52 52 50 54 61 64 49 35 30 39 44 47 45 50 54 57 57 59 45 44 43 43 40 38 36 37 34 30 29 30 31 31 31 32 34 34 34 33 31 30 28
64 60 61 55 57 48 47 58 21 34 41 46 48 59 47 57 60 58 59 45 43 43 41 39 39 36 34 32 29 30 28 28 28 27 29 31 32 33 34 34 33 32 31
50 46 51 54 53 50 56 49 31 41 48 48 50 56 60 60 60 38 37 39 40 39 39 37 31 30 30 27 29 29 26 25 25 27 29 30 31 33 34 33 33 33 33
44 46 41 44 47 48 51 53 45 47 54 55 60 55 62 56 44 36 37 36 37 37 37 33 27 29 28 30 31 26 23 22 24 26 28 29 31 32 33 32 33 34 33
38 32 41 42 45 50 56 55 59 61 62 64 62 47 41 42 42 38 35 34 35 35 34 27 27 28 28 29 26 22 21 22 23 26 28 29 31 32 33 33 35 34 33
39 38 42 47 48 49 55 59 59 59 62 52 28 33 38 40 38 36 35 33 34 34 29 26 27 28 26 25 23 20 19 21 24 27 29 30 31 32 32 33 35 33 31
43 36 39 43 47 50 55 56 54 56 47 39 30 28 33 36 35 34 31 30 31 29 25 26 28 24 24 23 23 21 22 25 28 29 29 30 30 31 32 32 34 32 29
40 44 37 36 42 47 41 40 45 35 33 38 30 28 33 34 33 30 29 30 29 27 27 29 24 23 22 21 22 22 24 27 28 28 28 29 30 31 30 32 32 31 28
35 38 38 41 48 33 36 37 43 37 31 27 29 30 30 31 27 29 30 29 26 27 28 27 23 24 21 21 21 22 25 26 26 26 26 26 28 30 30 30 31 31 29
43 43 38 40 40 42 37 35 38 34 31 28 30 29 28 27 28 31 32 28 27 28 29 27 24 22 21 23 22 22 25 26 26 25 24 24 25 26 27 28 29 30 30
49 49 48 47 44 39 42 36 32 32 31 29 33 37 34 28 30 33 32 30 29 29 30 28 26 23 24 25 24 24 25 26 26 23 22 21 22 24 26 27 27 27 29

GFSGL_500_spd_015.txt.gz
Wind_Speed
10 14 13 16 15 17 20 25 23 18 18 19 16 13 13 13 13 12 16 17 17 20 22 23 25 26 25 26 28 29 26 27 27 27 25 21 20 18 17 17 17 20 24
14 16 17 15 15 16 21 27 23 19 22 21 17 14 14 12 12 15 16 13 16 17 20 25 28 31 31 30 30 30 29 28 28 26 25 23 20 20 19 21 22 23 24
16 16 17 15 17 18 23 26 22 22 22 20 18 18 17 14 13 15 18 16 17 20 24 28 31 36 36 31 31 29 30 31 31 24 25 25 25 23 22 25 25 29 31
17 17 14 16 17 20 22 25 23 25 23 23 23 23 20 16 15 16 18 17 19 21 24 28 33 37 35 30 31 31 30 32 30 30 27 29 30 29 31 33 33 37 35
19 10 12 15 17 20 20 24 26 25 24 24 26 25 22 22 18 19 19 19 20 22 22 29 33 35 31 27 28 30 28 29 30 31 31 32 34 37 39 39 40 43 43
22 12 18 20 20 23 22 25 28 26 28 27 25 27 26 23 23 24 26 26 19 19 24 28 31 29 27 28 27 27 30 30 33 36 37 38 38 39 42 46 48 50 47
23 21 20 25 23 23 26 27 27 27 29 30 30 29 28 29 26 26 37 43 26 21 24 27 31 30 29 29 30 33 33 35 37 38 37 40 44 46 46 48 49 50 51
32 29 26 28 28 25 28 29 30 33 33 35 36 34 33 32 30 32 34 27 23 24 26 30 34 33 33 32 36 37 37 38 40 42 44 45 45 43 46 48 53 57 54
35 35 34 31 28 26 25 27 29 31 35 38 40 38 38 35 35 36 34 27 23 26 28 32 37 35 35 35 37 39 41 42 43 42 42 42 45 47 52 57 52 52 49
43 38 36 33 31 33 30 31 33 35 34 40 46 44 42 41 42 41 33 29 28 31 31 34 37 37 39 41 42 42 42 43 41 41 46 48 48 52 50 49 46 44 42
43 44 40 38 35 37 37 39 40 39 40 44 49 47 44 45 47 46 28 30 31 35 38 39 42 46 47 45 44 43 43 44 42 40 41 44 48 45 41 39 40 41 42
44 43 41 42 43 42 41 43 42 45 47 49 49 48 51 50 48 49 28 33 35 38 41 43 47 49 43 44 43 43 44 42 38 40 44 44 38 35 36 35 37 40 43
51 53 52 50 48 48 44 46 45 47 55 54 52 51 51 51 52 52 31 34 39 40 43 47 48 45 42 43 42 43 42 38 39 40 36 32 33 33 32 34 37 39 39
57 56 61 48 58 58 54 51 54 54 57 63 56 56 53 51 50 43 31 39 41 41 46 52 51 51 40 41 42 42 36 34 34 34 33 32 32 33 34 35 36 37 38
61 68 62 57 58 55 59 57 51 54 60 63 64 68 57 60 52 34 37 44 47 45 51 52 51 41 37 37 40 34 31 31 34 33 31 31 31 33 34 35 36 37 37
67 67 70 66 64 62 64 58 60 60 64 67 63 54 39 52 32 35 41 46 44 48 45 35 35 37 36 36 34 29 30 32 33 29 28 28 30 31 33 36 36 37 36
74 75 69 69 64 62 67 65 65 67 74 66 60 61 24 21 34 36 42 47 48 51 41 39 34 36 35 33 30 28 30 31 29 26 26 28 29 31 32 35 36 36 37
82 79 79 73 68 71 75 70 73 71 67 56 28 28 35 34 42 37 45 47 46 30 31 32 32 33 32 29 28 29 28 26 24 23 26 26 29 31 33 34 36 37 38
76 89 85 76 74 72 73 46 64 62 65 53 36 38 38 39 41 49 53 48 34 32 36 31 29 30 28 27 28 27 24 23 21 21 23 25 29 31 33 34 35 37 37
9 8 34 51 40 48 51 57 45 28 40 38 34 37 40 40 43 45 48 55 27 30 33 31 28 27 26 26 26 24 23 21 20 21 24 27 29 30 32 33 34 36 36
14 2 10 16 20 26 36 35 33 39 33 28 29 30 41 38 51 44 38 34 25 28 31 30 28 23 26 27 24 23 23 21 20 23 27 29 29 29 31 31 33 34 34
12 16 19 22 25 25 28 32 38 40 44 45 44 45 48 55 51 49 44 41 29 29 30 31 26 23 26 26 22 23 23 21 19 23 28 27 27 27 28 28 29 31 33
18 18 21 26 31 34 37 36 42 39 41 40 38 44 49 52 43 37 35 28 29 30 30 30 26 24 25 25 23 22 22 20 21 24 27 26 24 24 25 25 27 29 31
24 26 28 26 33 37 41 41 48 44 33 32 42 42 37 37 36 33 29 31 33 32 32 30 27 28 25 25 24 22 22 22 24 25 26 25 24 22 21 23 25 28 30
29 34 34 38 36 32 31 32 27 34 30 30 32 42 40 34 30 29 31 34 33 30 29 29 29 27 25 26 27 25 24 24 24 26 26 26 25 23 21 22 25 26 28
37 36 40 37 46 45 44 42 39 34 32 40 41 34 31 29 28 29 28 31 31 28 28 31 31 29 27 28 30 28 26 25 26 27 27 26 26 24 23 24 25 26 27

GFSGL_500_spd_018.txt.gz
Wind_Speed
12 11 11 13 16 19 21 22 24 23 18 18 20 21 20 13 13 13 13 15 14 13 12 15 17 21 23 29 24 19 21 20 19 19 19 18 18 19 20 21 22 25 27
15 16 14 14 14 15 18 20 27 26 21 22 24 23 20 14 14 13 13 16 16 15 16 19 20 23 28 30 27 21 20 21 22 23 21 21 21 22 21 22 25 26 27
17 17 16 16 13 16 19 19 24 25 23 24 26 24 22 18 17 16 16 18 18 19 19 22 22 23 27 30 24 21 23 25 25 27 26 25 27 28 25 24 26 30 32
17 16 15 14 13 17 21 20 21 23 25 25 28 26 26 24 20 19 20 20 20 21 26 27 18 22 25 22 20 19 20 23 26 28 28 29 30 32 33 34 32 36 42
20 15 11 15 14 12 16 20 20 19 24 26 29 29 29 25 24 25 22 22 23 26 31 34 18 19 21 20 19 20 23 28 26 29 31 33 37 39 39 38 41 42 41
22 15 16 19 16 16 18 21 22 20 21 28 29 30 29 27 28 30 23 21 28 21 28 22 20 21 22 21 21 24 26 27 29 32 35 37 38 41 44 45 47 47 45
22 21 20 18 19 19 23 27 25 23 25 25 31 32 31 28 29 30 27 23 28 36 34 21 22 23 23 22 25 27 29 31 32 35 37 39 41 44 45 46 47 47 49
29 28 27 26 25 26 26 29 30 26 24 25 29 32 34 32 31 32 32 32 29 37 27 25 25 26 23 27 29 28 30 32 34 36 38 41 43 44 45 46 47 47 47
32 33 33 31 29 31 26 27 29 27 23 24 30 35 36 37 37 38 40 37 36 35 41 30 22 27 28 30 29 30 32 34 35 36 40 42 42 41 40 43 45 42 37
33 34 34 33 32 37 33 27 29 30 29 28 29 32 38 39 42 46 45 44 44 39 39 28 29 31 30 35 31 32 34 35 37 38 41 41 38 36 36 36 34 35 34
33 36 35 36 37 45 39 35 32 36 38 38 37 36 40 40 42 49 51 49 45 49 48 34 30 31 36 40 43 38 36 36 37 38 37 35 34 32 33 33 32 32 36
41 40 40 39 38 51 43 40 42 36 40 42 45 46 47 50 47 52 54 54 54 53 48 32 33 33 38 42 41 36 35 35 36 36 32 32 32 30 29 29 32 36 39
46 45 47 46 46 47 47 49 42 42 51 48 46 48 46 56 57 59 61 60 57 52 53 34 34 37 40 39 36 33 33 33 35 31 31 31 28 26 26 28 31 33 37
50 48 50 51 53 54 49 56 52 47 53 43 46 46 49 56 59 67 66 63 57 50 51 33 38 44 38 34 34 32 32 33 31 29 29 29 24 23 26 26 30 33 37
53 51 55 55 58 58 59 62 62 53 57 64 60 50 59 59 65 65 69 73 55 53 34 28 33 40 44 38 33 32 32 31 27 28 28 25 21 23 23 26 32 35 37
48 52 62 70 72 71 71 68 65 63 63 58 62 62 69 69 84 74 28 37 28 18 33 27 36 37 29 28 32 31 32 30 27 27 26 21 19 22 23 27 32 34 36
53 54 53 60 65 69 73 79 75 71 69 67 67 68 67 64 73 44 51 49 21 24 27 33 36 30 30 32 31 30 30 27 26 26 24 17 19 21 24 28 32 34 36
54 58 54 57 61 70 74 72 72 73 73 75 75 74 70 68 62 56 60 61 21 25 33 32 37 33 32 30 27 28 27 25 27 27 21 17 19 21 25 28 30 34 35
48 52 55 58 66 77 86 86 82 79 71 76 75 76 79 75 67 68 56 28 23 26 32 37 38 34 30 27 26 26 25 25 27 26 20 19 19 21 26 28 27 31 32
46 47 51 56 56 48 60 76 85 79 75 73 78 45 52 67 63 29 33 28 30 29 37 34 28 28 30 27 26 25 26 25 26 24 23 20 19 22 26 26 25 27 29
41 44 47 41 35 35 9 27 62 61 71 54 36 17 30 23 23 31 28 27 33 32 39 34 27 27 28 28 27 25 26 26 26 25 24 20 20 24 26 25 24 25 26
45 35 31 25 12 13 5 6 19 29 26 12 17 26 32 26 23 27 31 36 37 36 34 30 30 27 28 28 27 26 26 26 25 25 25 21 23 24 25 23 23 23 23
38 26 23 17 15 12 11 15 11 9 10 17 22 25 29 34 31 36 39 41 42 37 34 30 27 26 29 29 28 26 26 26 26 27 26 24 26 25 25 23 22 21 22
37 30 23 20 18 16 17 15 20 21 23 24 27 31 27 28 28 31 36 33 31 31 31 28 28 29 31 29 28 29 28 27 29 29 27 26 26 26 27 25 23 22 23
37 35 30 29 25 23 23 27 24 26 28 24 22 23 24 26 29 29 30 34 31 30 30 29 30 31 29 30 31 30 29 29 32 30 29 26 26 27 27 26 25 25 25
39 41 38 34 31 35 39 33 32 33 34 30 34 31 29 28 30 36 35 29 27 26 29 30 31 31 30 33 32 31 30 31 32 33 31 28 28 28 28 27 26 26 26

GFSGL_500_spd_021.txt.gz
Wind_Speed
14 15 15 14 15 17 20 24 25 27 25 21 20 20 17 15 12 10 9 10 12 15 14 14 14 16 18 18 17 14 11 10 11 13 15 16 16 16 19 23 25 25 27
19 18 16 17 14 12 13 17 22 27 28 26 24 23 20 19 14 12 10 12 13 15 18 20 20 25 17 18 13 9 9 10 15 18 17 17 20 21 23 26 28 30 31
22 21 21 19 18 14 14 15 16 21 24 25 25 25 23 22 17 15 13 13 15 18 21 25 28 26 12 13 14 11 12 15 16 19 21 20 20 22 24 26 28 31 36
22 21 20 17 16 16 18 16 14 16 19 21 24 27 26 26 22 19 18 18 16 20 23 22 21 12 14 16 14 13 14 16 18 21 23 25 26 27 28 28 28 31 35
22 19 17 16 20 17 15 15 15 14 16 17 23 29 29 30 25 22 22 20 15 21 21 26 24 16 12 17 16 17 16 18 18 23 25 26 27 28 30 33 36 39 41
26 22 19 19 20 17 16 16 16 15 16 18 18 27 31 30 28 26 24 24 21 20 23 22 21 20 15 17 19 23 23 23 23 27 28 26 27 28 31 35 39 41 42
35 33 24 23 20 20 22 20 20 20 22 20 20 22 28 31 29 29 26 24 22 25 26 27 26 24 26 23 20 24 26 25 27 29 29 28 28 32 33 35 37 39 41
36 32 27 26 26 24 25 24 23 27 27 27 21 22 26 30 30 31 31 32 30 27 28 32 33 34 33 29 28 29 29 29 30 33 31 28 29 32 33 34 35 37 37
30 32 29 28 30 32 29 28 29 31 29 28 24 22 24 27 30 34 38 39 38 35 34 36 39 39 39 32 34 33 33 35 35 35 33 31 31 31 32 34 34 34 32
30 24 28 35 36 35 34 33 34 35 33 32 30 28 25 24 25 30 37 38 41 40 39 43 44 44 43 45 39 39 36 40 39 34 32 33 33 31 31 33 32 30 29
35 39 35 34 35 35 37 43 35 36 43 41 35 36 36 36 34 37 42 45 44 45 47 48 49 51 51 51 38 41 36 41 39 33 32 34 32 32 32 31 28 27 30
43 42 40 38 35 38 39 42 47 46 44 43 42 40 39 45 46 45 46 48 50 50 53 55 57 59 62 58 43 41 39 40 37 34 34 33 32 32 31 28 25 27 28
46 44 43 41 37 41 43 46 46 45 53 47 48 39 40 45 44 47 51 51 54 56 62 66 69 68 68 62 41 38 36 40 38 36 34 34 33 32 30 26 25 26 28
46 46 46 46 46 45 47 52 50 55 49 55 48 50 56 47 50 50 52 52 57 62 61 74 74 66 70 44 29 31 37 33 32 34 35 33 33 31 28 24 24 27 29
50 53 54 56 57 49 55 54 60 56 58 58 61 59 64 58 56 49 56 61 63 63 73 80 68 45 50 23 29 31 28 30 33 32 33 32 32 30 26 23 25 27 28
43 52 56 56 57 58 60 64 64 67 67 66 66 65 63 66 65 64 67 68 68 68 70 80 41 49 24 26 29 31 29 32 32 32 31 31 30 30 25 25 26 26 28
44 45 48 52 56 56 59 62 63 64 65 69 74 76 71 69 74 74 71 69 70 72 75 53 47 36 24 28 29 31 31 32 31 30 31 30 28 27 25 24 27 27 29
49 48 53 56 57 59 61 65 70 64 69 71 75 79 77 76 76 75 73 73 72 74 55 42 41 27 28 32 31 34 31 29 30 31 30 28 28 27 26 25 27 27 30
50 51 52 51 55 60 58 63 65 70 72 76 85 82 83 83 84 79 76 74 71 63 57 46 29 25 26 29 33 31 27 28 29 29 29 28 28 27 27 25 27 27 29
53 55 53 50 50 54 55 57 61 65 77 86 83 98 94 82 71 71 73 75 73 64 24 28 28 21 25 33 29 25 27 28 28 27 30 31 28 26 26 26 26 28 27
56 52 53 51 50 50 53 53 58 52 39 21 31 26 45 68 61 65 70 70 77 49 22 24 27 24 32 37 32 28 27 28 28 28 31 31 30 28 26 25 26 28 27
54 51 53 54 53 52 46 44 36 41 32 43 30 27 37 48 47 55 49 44 33 24 22 26 28 34 37 31 28 28 28 29 28 29 31 32 31 28 27 26 27 29 28
39 43 46 50 48 44 41 36 24 20 19 8 6 7 19 21 21 17 17 24 25 28 29 32 31 33 34 29 30 29 29 28 29 31 32 31 31 29 29 28 28 29 28
39 42 42 43 43 39 38 33 22 12 12 18 14 13 12 11 17 19 22 28 30 32 38 38 38 30 32 31 30 31 30 31 32 32 30 30 31 31 32 30 29 29 28
41 40 37 35 35 35 38 36 25 20 17 16 20 20 25 19 22 24 22 25 31 37 40 35 30 31 33 33 34 32 30 30 32 33 31 30 32 33 33 33 31 29 29
38 36 34 34 36 37 40 39 35 31 29 26 27 26 27 29 27 24 27 30 35 35 31 32 35 37 35 34 33 31 31 30 31 33 34 33 34 34 35 35 33 30 30

GFSGL_500_spd_024.txt.gz
Wind_Speed
19 17 17 19 19 19 20 21 21 24 22 21 21 22 21 19 16 12 10 6 4 7 11 14 15 17 17 10 9 8 6 4 5 8 10 15 17 19 19 21 24 25 27
18 18 16 18 17 16 16 17 20 22 25 25 25 25 25 21 18 17 14 10 8 8 12 15 20 18 12 3 6 6 7 7 11 12 13 14 18 21 23 24 25 27 30
22 20 19 19 17 14 15 17 15 15 17 16 18 21 26 25 22 21 18 13 11 9 12 15 10 4 2 4 5 7 10 15 16 17 17 19 21 24 25 26 25 26 29
28 25 21 21 18 15 16 18 14 12 11 12 14 17 22 26 26 23 20 18 15 14 16 13 14 16 9 9 8 11 13 15 19 22 25 26 27 29 29 27 26 28 30
30 26 21 23 22 20 16 17 13 10 8 9 11 14 20 25 27 25 20 22 18 17 15 14 14 15 15 14 13 14 16 20 21 25 27 31 32 34 33 31 33 33 33
28 19 24 24 23 23 21 19 18 13 11 10 13 16 18 20 25 27 24 22 23 22 24 18 20 22 22 20 21 21 22 22 24 25 28 33 33 36 35 34 35 35 36
23 27 26 25 21 23 22 23 23 20 18 15 16 17 17 18 19 20 22 23 21 22 20 20 24 24 27 28 31 28 30 29 31 30 34 38 39 35 35 36 33 35 36
30 24 25 29 32 30 26 24 25 24 22 21 20 21 21 19 22 21 22 22 25 27 30 30 29 30 30 33 36 34 33 34 36 37 39 41 40 35 35 35 35 33 37
35 28 27 29 28 30 32 29 28 28 28 27 27 27 25 22 23 25 27 30 29 31 32 33 32 31 37 39 41 41 40 41 44 44 43 44 43 36 36 35 33 34 36
39 31 32 30 31 32 37 35 34 36 33 35 32 32 33 32 27 27 30 35 35 32 31 33 32 34 43 45 46 46 48 49 47 44 46 45 44 37 37 35 32 35 36
37 37 35 36 33 31 34 33 37 40 41 42 40 35 37 39 40 37 37 40 40 39 43 43 42 43 48 51 54 53 57 51 51 46 46 46 46 40 39 35 32 36 35
34 33 34 36 39 36 36 33 36 40 39 39 39 39 41 41 39 40 43 45 49 51 49 51 50 48 56 59 57 58 62 63 59 48 44 46 45 45 39 36 33 35 34
36 38 38 40 40 40 39 40 40 42 43 44 43 43 43 43 45 44 46 47 53 52 55 52 56 55 62 55 59 68 68 68 67 62 48 45 42 40 38 35 34 35 34
39 41 41 41 41 41 42 42 42 41 41 46 51 54 54 51 54 53 45 50 56 54 55 53 52 60 58 59 61 70 68 77 69 56 41 35 40 38 36 33 34 33 33
41 40 41 42 44 45 43 46 48 48 49 52 55 61 60 59 58 62 60 56 58 66 64 63 62 59 65 66 66 64 71 57 48 32 32 31 42 37 34 33 33 32 32
41 42 44 45 46 48 50 52 52 55 55 58 59 63 70 70 71 69 70 70 72 72 70 73 63 68 70 68 63 64 62 47 35 32 36 37 42 37 34 33 32 31 30
40 42 43 44 45 47 50 55 56 56 56 58 60 63 71 77 76 75 79 83 82 78 75 75 72 77 71 62 50 54 51 32 32 34 37 41 41 36 34 31 30 30 29
41 43 46 47 48 48 48 52 55 58 60 60 62 65 67 69 68 72 78 85 88 85 80 78 73 76 71 64 49 53 35 32 33 36 37 39 37 35 34 30 29 28 30
42 43 44 47 50 51 51 54 56 60 61 63 67 67 66 66 69 72 74 83 94 91 83 74 72 75 64 63 61 54 38 34 35 35 33 33 33 36 33 29 29 28 29
45 46 48 51 51 51 53 57 59 61 60 65 68 67 66 68 69 78 86 95 91 93 77 72 78 76 62 63 66 63 41 31 31 33 31 33 36 35 32 29 30 29 29
48 46 46 50 55 58 59 60 62 66 69 68 67 63 60 58 64 65 51 45 68 48 73 73 75 71 69 64 56 39 35 27 33 37 34 35 35 34 32 30 30 29 30
50 51 49 50 53 58 60 60 61 63 61 61 57 51 53 54 48 46 46 40 26 37 58 61 59 60 63 52 39 38 31 34 36 33 36 35 34 33 31 32 31 31 31
51 52 52 55 59 60 61 60 54 53 49 39 42 42 35 33 30 23 25 23 24 30 36 41 52 48 43 28 36 41 35 32 33 34 33 35 34 31 32 31 30 32 32
51 51 51 52 52 51 50 46 43 41 41 35 40 40 34 28 18 9 11 8 5 7 10 14 15 17 26 36 38 38 36 33 30 32 35 34 33 32 33 30 31 33 31
39 42 45 46 47 45 43 41 42 43 42 38 36 37 29 23 23 18 15 18 21 23 25 24 29 30 31 39 41 39 37 34 35 33 34 34 32 31 33 32 33 33 32
39 40 39 37 39 36 35 35 37 38 37 36 34 35 35 30 26 29 27 23 27 26 24 27 31 36 41 44 42 38 39 38 34 32 32 32 30 31 32 35 35 34 33

GFSGL_500_spd_027.txt.gz
Wind_Speed
20 20 20 19 18 19 18 20 22 22 19 16 16 15 15 15 15 14 12 13 11 8 7 8 11 16 14 13 10 7 7 7 8 12 15 19 20 20 23 26 28 29 29
23 22 18 18 15 13 14 14 15 17 18 18 17 18 18 19 19 16 16 15 16 14 11 8 10 10 8 6 7 9 11 9 13 18 17 19 22 24 27 28 32 34 31
23 21 19 16 15 14 14 15 14 13 13 13 11 11 14 17 19 19 19 17 18 18 14 8 8 11 9 8 10 13 14 14 16 19 21 25 26 27 29 31 33 35 33
23 25 21 17 15 16 17 17 15 13 13 10 7 7 9 12 15 17 18 18 19 20 18 15 12 12 11 12 12 13 14 16 18 23 22 25 26 29 35 39 38 36 32
24 24 21 19 19 19 19 20 17 12 12 10 6 7 9 9 8 9 13 15 17 22 19 19 18 18 17 16 15 16 18 22 25 25 27 29 31 34 37 41 41 39 34
24 21 23 21 21 20 22 23 22 17 13 13 9 7 7 9 9 11 13 14 17 22 23 23 27 27 24 25 21 21 23 23 28 30 30 32 34 36 41 41 40 38 37
28 21 21 22 20 20 23 24 23 20 18 16 15 13 10 10 13 14 15 16 18 23 25 28 27 27 24 28 26 27 27 26 29 32 34 36 37 38 44 43 38 37 39
33 28 24 24 22 22 22 26 26 24 21 19 18 18 20 15 17 20 20 20 20 22 27 31 31 30 26 30 35 33 32 33 36 38 37 40 44 44 43 47 44 40 41
36 33 33 30 27 24 20 26 25 29 24 24 24 23 24 22 22 25 29 31 30 24 24 29 30 34 33 29 36 35 36 37 42 46 46 45 50 48 47 48 47 46 43
40 42 38 38 34 29 23 24 25 29 31 31 30 31 31 30 29 29 34 38 38 35 34 33 30 33 36 35 37 43 44 45 49 50 52 53 51 53 47 46 48 46 44
45 46 46 45 42 35 32 30 29 28 30 30 32 32 32 31 29 33 35 39 39 41 42 40 38 41 44 46 44 49 54 55 58 60 56 57 61 49 46 46 46 47 49
40 41 38 36 40 39 36 35 33 32 34 35 36 37 36 34 34 35 37 40 40 42 45 43 48 47 50 50 50 53 58 54 52 59 58 59 65 72 52 46 44 49 43
32 32 34 35 37 37 35 34 38 39 38 38 41 41 41 41 42 42 40 45 50 51 52 54 57 52 53 42 47 54 57 56 58 60 61 68 71 71 57 43 42 43 40
36 35 35 36 36 38 38 41 43 43 42 41 44 45 44 45 44 42 44 48 53 57 55 61 67 68 56 62 54 55 55 59 63 66 65 69 79 72 55 39 40 40 37
37 36 38 39 41 41 43 43 44 45 47 46 47 49 49 50 48 52 54 54 54 60 63 65 68 76 70 71 62 71 62 66 72 72 70 68 71 71 43 37 36 37 35
39 39 39 41 43 44 46 48 48 48 49 50 52 51 53 55 60 60 59 61 61 64 73 78 79 81 81 78 66 69 70 71 63 77 68 54 49 42 37 33 36 39 36
40 39 40 42 43 45 47 49 51 52 52 52 54 55 59 60 62 63 62 67 67 71 78 81 77 86 88 87 83 80 80 62 76 59 52 45 42 31 32 34 39 39 36
41 42 43 43 45 45 46 47 49 50 52 55 58 59 60 61 62 65 68 70 70 70 71 75 77 81 85 87 90 81 75 69 78 59 47 36 30 34 35 38 41 36 36
48 48 47 47 49 50 50 51 52 55 58 60 62 64 65 67 67 66 69 72 73 72 72 77 79 87 89 86 88 85 73 69 78 42 55 54 40 39 40 44 40 32 32
52 52 53 53 53 52 52 53 54 55 61 62 60 60 62 64 66 68 70 75 76 74 72 73 70 76 91 93 93 79 71 83 71 54 56 42 37 37 41 41 35 32 30
56 54 55 56 55 55 52 53 55 58 63 65 62 61 65 68 64 60 59 62 62 60 64 73 65 58 56 68 58 67 73 71 67 59 48 37 32 34 37 38 35 33 29
54 54 54 56 57 57 56 54 56 57 56 59 61 62 62 65 65 52 46 54 52 56 59 56 28 27 33 34 41 47 49 59 57 48 35 30 28 36 40 38 34 31 31
53 55 56 56 57 55 53 57 59 60 58 59 63 64 66 60 52 40 40 40 43 47 51 35 24 22 23 32 34 38 43 43 42 26 29 32 35 37 37 35 33 31 31
57 64 67 70 63 59 59 59 59 59 58 59 58 55 48 40 38 39 37 32 31 37 24 15 12 9 12 12 14 20 23 22 27 27 31 32 34 36 35 33 32 34 32
59 50 44 44 58 57 58 53 53 57 57 54 53 51 48 39 38 40 41 40 33 34 28 26 22 17 21 19 16 18 23 28 27 33 36 33 34 34 32 34 34 35 32
47 44 43 42 45 47 47 47 49 51 46 46 45 45 42 40 38 39 38 40 36 30 30 30 28 27 28 27 31 30 35 34 34 34 36 37 36 36 33 35 35 32 31

GFSGL_500_spd_030.txt.gz
Wind_Speed
16 16 15 15 14 13 12 13 15 15 15 13 15 14 14 13 11 10 11 10 11 12 13 11 13 15 15 12 11 12 10 8 11 11 16 17 21 22 24 25 27 29 32
21 19 18 14 13 10 10 10 10 10 10 10 11 12 14 15 15 14 12 12 12 13 14 13 13 13 13 12 11 11 10 12 12 17 16 18 20 25 24 27 30 31 32
21 18 16 16 11 9 10 10 9 8 9 8 6 6 6 7 9 11 13 13 13 13 15 15 14 13 11 12 14 16 18 16 16 17 21 21 21 23 28 30 31 38 37
18 16 16 16 13 12 12 11 11 11 10 8 6 4 3 3 5 7 8 9 11 14 18 17 18 19 19 15 14 15 14 19 20 21 25 28 29 28 30 31 34 37 36
22 19 17 18 16 15 13 13 13 12 10 9 7 5 3 2 3 5 7 10 10 15 19 21 20 22 23 23 19 21 24 24 25 24 27 29 31 34 35 36 38 37 37
22 19 18 16 11 11 14 14 14 14 11 13 10 10 8 4 4 5 6 9 11 14 17 20 23 23 24 26 30 30 28 29 30 33 33 34 35 38 40 43 42 42 38
23 21 16 12 9 11 13 13 10 13 13 11 16 13 10 9 9 9 9 9 10 14 19 22 23 25 26 25 27 31 31 31 33 36 38 41 42 39 41 45 48 50 44
24 21 19 16 13 15 16 15 14 15 18 18 15 16 14 12 13 16 19 20 19 18 20 21 22 24 25 29 31 33 35 34 35 36 40 45 48 49 49 48 50 55 47
26 24 25 24 22 20 19 20 20 17 19 19 23 17 16 17 18 19 22 26 27 26 27 22 23 23 25 28 31 31 34 38 39 41 45 47 52 56 56 58 64 60 48
26 30 35 30 29 29 29 27 27 24 20 19 22 22 19 20 23 24 26 31 32 31 32 30 28 27 30 32 34 36 38 39 45 48 52 54 54 53 55 56 61 65 67
33 35 34 35 34 35 37 36 34 32 29 25 25 24 22 22 24 24 26 30 31 35 36 35 34 36 38 39 40 42 41 47 50 55 52 51 53 50 49 56 61 64 64
33 32 36 39 38 40 40 41 42 38 36 33 29 28 28 29 28 28 29 33 36 42 42 41 43 43 47 46 46 48 52 51 52 53 56 57 60 62 56 61 60 65 68
34 38 40 40 41 43 44 41 40 37 36 36 35 33 34 35 35 36 39 39 41 46 47 47 52 51 51 53 53 57 57 56 58 57 62 59 71 74 69 64 63 66 65
29 31 31 30 35 40 40 40 42 37 37 36 36 38 40 41 42 46 47 46 45 46 49 49 53 57 60 59 59 58 64 62 65 67 70 71 74 72 76 47 60 58 49
32 31 32 33 33 35 38 39 40 41 42 42 43 45 46 46 47 48 50 53 52 52 55 57 60 61 64 67 70 69 69 68 67 73 77 79 80 78 75 64 39 42 50
35 35 34 36 37 37 39 40 42 44 45 46 48 49 49 50 52 53 55 58 60 58 59 61 64 66 68 71 75 75 75 76 70 75 78 77 79 81 83 73 57 48 35
38 36 37 38 40 40 41 41 44 45 46 48 49 50 52 54 55 56 58 61 64 65 66 65 65 65 67 71 75 75 74 77 78 78 77 78 83 82 86 49 30 26 22
42 42 41 40 42 41 41 44 47 48 50 50 51 53 56 57 58 59 62 64 66 67 68 68 69 70 72 74 76 78 78 76 80 83 84 80 76 65 45 45 32 27 27
45 44 43 43 44 45 46 47 49 51 53 55 56 57 59 60 62 64 67 69 71 69 68 67 67 70 70 66 61 65 70 75 80 84 76 90 72 68 65 72 50 28 28
50 50 49 48 50 51 52 55 56 57 59 59 60 59 62 65 67 69 70 71 71 71 72 69 66 60 53 57 64 68 72 73 71 70 72 70 67 54 63 59 52 33 30
50 53 54 55 57 58 59 61 60 61 63 64 65 65 66 68 69 71 71 70 68 68 67 68 57 44 49 56 57 68 56 46 53 62 56 61 49 49 48 49 41 26 29
53 57 59 61 62 62 63 64 64 64 66 67 68 67 68 72 73 71 65 65 65 66 65 56 46 42 49 47 48 54 40 32 32 34 32 44 49 44 49 42 27 29 25
59 62 64 64 64 65 66 68 68 68 69 69 71 72 70 68 67 66 67 63 62 60 54 44 37 39 45 40 33 35 31 32 31 28 26 30 30 31 24 20 21 24 26
64 65 65 64 64 64 65 66 67 68 69 68 68 68 64 66 65 64 62 61 61 53 47 44 41 41 41 37 36 28 23 23 17 15 18 25 22 24 24 23 23 25 24
66 64 63 63 62 60 60 63 65 68 70 69 70 68 63 64 63 60 57 54 51 48 43 43 45 40 40 37 39 42 28 22 20 17 25 19 21 23 25 26 26 26 26
62 64 62 61 64 61 59 62 62 63 61 57 54 55 59 59 58 56 51 46 45 42 42 42 43 43 42 41 35 32 32 30 30 30 27 27 30 28 30 32 29 33 31

GFSGL_500_spd_033.txt.gz
Wind_Speed
16 17 16 15 15 14 11 10 11 11 12 13 12 10 11 11 11 11 10 9 10 9 10 11 12 12 14 13 11 10 9 8 8 12 16 19 18 19 22 24 26 27 31
20 19 18 16 13 11 9 7 6 5 3 4 4 3 3 6 9 11 10 11 12 12 11 13 14 14 14 14 14 11 12 16 17 13 13 18 22 25 25 26 27 27 31
18 17 16 14 10 8 7 6 4 4 2 1 2 3 4 4 4 5 6 7 10 11 12 12 17 16 16 15 14 13 13 15 18 23 21 19 21 25 27 29 30 32 32
18 18 15 12 9 9 8 4 3 3 4 3 2 5 5 3 1 2 4 5 5 8 11 12 14 16 19 22 20 20 19 21 22 25 28 28 26 28 30 34 36 39 40
18 18 15 13 9 9 7 5 3 4 2 2 2 3 3 3 2 2 3 5 7 8 12 13 15 17 19 23 27 26 26 25 26 27 26 32 36 35 33 35 37 42 45
18 16 15 13 11 10 7 6 4 3 2 3 4 4 3 2 1 2 1 3 4 6 11 11 11 14 17 20 24 28 31 28 24 27 31 34 38 40 38 40 43 47 51
21 19 16 11 9 9 8 6 5 6 6 3 5 8 8 6 5 6 7 6 4 5 7 9 8 9 13 17 18 23 29 33 33 33 33 35 38 42 44 46 47 48 51
25 23 18 14 14 13 9 8 8 8 10 10 9 8 11 12 13 11 13 12 9 11 13 14 15 14 15 15 17 20 24 28 31 35 36 36 40 43 47 50 49 48 51
27 24 21 19 16 13 11 11 11 12 14 15 14 15 14 15 16 16 18 19 19 17 18 19 20 21 21 22 23 24 26 26 32 36 40 44 47 49 48 45 48 50 53
23 21 22 22 21 19 19 19 20 19 19 20 19 17 17 18 20 21 21 23 23 23 25 25 24 24 26 28 31 33 34 34 37 40 43 46 50 53 57 54 54 55 57
29 28 27 25 25 25 28 28 25 26 25 24 23 23 22 21 24 25 27 28 28 29 29 30 31 33 35 36 39 42 39 43 45 45 47 53 56 50 47 54 58 63 62
25 26 30 30 29 30 32 33 32 30 31 31 31 30 30 27 30 33 31 31 33 35 34 35 35 39 43 45 47 48 48 47 49 50 50 51 56 57 57 66 60 61 67
33 32 36 38 37 37 37 37 37 36 36 38 37 33 34 36 37 39 36 36 37 38 39 42 43 44 45 48 49 50 53 57 58 58 55 57 59 62 66 67 69 64 72
26 31 38 39 39 41 38 36 37 39 39 39 38 36 38 37 37 36 37 38 41 43 45 46 48 50 53 54 58 59 58 60 62 64 64 61 63 62 65 68 68 70 66
30 29 31 35 38 40 37 34 34 35 36 36 38 38 39 40 40 40 41 43 45 47 49 52 54 55 58 59 62 62 61 64 66 65 69 71 72 67 63 66 68 66 72
33 32 32 34 35 36 37 37 36 35 35 37 39 40 39 41 42 44 46 50 51 53 55 57 58 60 61 62 64 64 63 64 64 67 71 76 82 77 67 68 69 72 65
35 36 37 37 35 36 36 37 37 38 39 40 40 43 44 45 47 48 50 52 54 58 59 62 63 63 65 63 65 67 67 67 63 65 70 69 72 75 72 66 72 80 61
38 38 38 38 38 40 41 43 44 43 43 43 45 47 48 49 50 52 54 56 59 62 64 64 65 67 66 67 70 69 65 63 61 59 60 64 73 74 76 79 78 89 75
43 42 42 43 45 45 46 46 46 45 46 45 47 48 51 51 53 56 58 59 62 63 64 67 70 69 68 69 65 63 63 62 59 60 62 65 66 68 70 74 62 67 70
49 49 48 47 47 47 47 47 47 47 48 49 51 53 56 57 58 60 62 64 66 67 68 70 72 70 70 64 64 64 56 49 56 54 53 55 60 51 78 71 69 88 63
48 49 50 52 52 52 53 54 54 55 55 55 57 60 62 62 63 64 66 68 68 71 73 72 72 69 60 64 64 61 51 50 49 50 48 48 45 46 56 43 33 34 34
55 55 56 57 57 58 60 60 61 62 62 63 64 65 66 68 69 70 71 71 71 73 72 74 71 68 64 62 58 52 49 49 50 47 49 48 46 31 40 33 27 16 20
59 59 59 58 59 60 62 64 66 66 67 69 70 70 72 72 72 73 73 74 73 73 73 71 67 64 60 60 56 50 48 47 47 49 43 39 30 28 23 21 18 17 15
60 60 61 64 66 67 69 70 70 71 72 73 72 73 75 75 76 75 74 73 71 69 70 66 66 62 56 53 52 52 47 43 42 38 39 31 26 19 17 19 17 14 16
59 70 68 64 64 66 69 71 71 70 69 71 70 69 69 68 69 72 74 76 75 71 73 73 64 55 52 52 50 48 45 43 41 45 38 31 30 23 20 16 21 24 20
59 65 65 68 69 68 70 70 67 66 66 67 67 67 64 65 69 69 71 70 64 60 58 56 53 49 48 48 49 47 46 46 43 41 37 32 31 32 30 30 32 33 27

GFSGL_500_spd_036.txt.gz
Wind_Speed
19 22 23 22 21 19 18 15 12 12 14 14 15 16 14 11 11 10 9 10 10 9 10 13 13 13 14 16 16 12 9 9 13 14 14 15 19 21 23 24 25 28 29
24 23 24 24 22 19 15 11 10 9 8 7 8 10 11 11 10 11 11 11 10 10 9 10 12 11 14 15 17 19 17 15 13 12 16 18 17 21 24 25 25 27 32
23 23 23 22 20 15 12 11 9 7 6 6 9 11 9 9 8 7 6 5 6 6 6 7 11 9 10 14 17 18 18 19 21 20 17 18 18 22 25 27 29 31 35
23 22 22 21 18 13 14 12 10 7 9 10 10 9 9 7 5 4 5 5 4 5 6 3 5 9 11 12 13 15 18 18 20 23 24 23 26 29 29 27 30 33 36
22 21 21 21 17 16 14 12 10 7 7 8 9 9 8 9 8 7 5 5 7 9 7 5 5 5 7 11 15 16 18 19 21 22 24 28 31 33 33 34 35 38 41
23 21 21 19 16 18 16 12 9 7 6 7 10 11 10 10 10 7 6 5 8 5 4 2 3 5 7 8 13 17 18 18 18 21 23 25 29 32 35 35 37 39 40
23 24 22 19 16 17 15 13 11 10 9 8 8 11 12 11 11 9 9 9 9 8 7 6 5 7 10 13 17 20 21 22 24 27 25 25 30 34 40 40 39 41 41
23 21 20 16 17 17 16 16 15 13 10 10 8 9 13 14 15 14 14 9 10 12 12 13 12 13 14 15 19 22 26 25 28 31 34 34 35 36 39 44 46 50 47
26 23 20 21 21 19 17 17 18 16 14 12 11 12 14 17 20 20 19 18 16 16 16 17 17 18 19 22 23 25 26 25 30 36 41 41 45 43 41 46 49 56 54
29 26 26 27 26 25 24 20 21 19 17 16 15 16 16 18 24 23 23 24 22 22 22 21 23 24 25 27 30 33 33 31 37 40 42 44 46 46 48 51 50 53 58
27 34 33 31 27 26 28 29 26 24 25 22 20 20 19 19 20 25 29 30 28 28 27 28 30 31 33 34 35 36 36 38 40 42 44 45 47 51 53 54 59 58 60
33 32 32 31 31 32 33 32 32 32 31 29 28 28 27 27 27 29 31 30 32 32 33 34 36 36 36 38 41 43 44 45 47 52 53 52 56 56 56 61 61 63 65
34 35 34 33 35 35 37 36 36 35 37 37 38 33 34 35 34 32 34 35 37 38 40 41 39 40 41 42 44 45 47 51 54 56 57 57 57 59 60 60 61 64 66
33 36 39 42 42 44 45 45 45 42 42 42 41 40 40 39 37 35 34 38 41 42 41 42 42 43 46 48 51 51 54 56 59 60 61 61 64 63 63 60 58 58 64
29 32 37 41 45 47 47 47 46 45 42 40 39 39 39 39 39 39 41 40 41 43 42 43 45 48 50 53 56 57 58 59 61 62 63 64 65 63 61 59 61 64 71
29 30 32 40 45 45 43 42 38 39 39 36 37 37 38 40 41 42 43 44 43 42 45 48 51 54 55 55 57 60 62 63 62 61 60 60 59 59 63 68 69 71 69
33 34 33 33 35 38 39 39 39 38 39 39 39 39 39 39 42 44 45 44 45 46 50 53 55 54 55 57 61 64 64 65 63 64 63 59 59 59 60 63 66 70 71
36 36 36 37 39 40 40 40 41 42 41 42 41 42 43 44 44 45 46 48 50 52 54 55 56 57 59 62 65 66 67 66 64 63 61 59 60 55 57 59 61 65 79
39 39 40 40 40 41 42 43 43 44 43 43 43 45 47 48 49 50 51 54 54 55 56 57 59 61 63 65 67 68 68 66 64 63 61 58 58 54 58 63 66 69 66
47 46 44 43 44 44 46 47 48 48 48 48 49 50 51 54 54 54 54 56 57 58 59 61 63 65 67 69 69 69 69 69 66 61 58 61 56 54 57 57 54 56 50
52 52 51 49 48 49 48 49 51 52 51 51 52 53 54 55 57 58 60 60 61 62 64 67 68 70 72 70 71 69 69 64 62 59 56 60 58 53 55 56 51 50 41
49 51 53 53 53 54 54 54 55 55 56 57 57 58 59 60 61 62 63 64 67 69 71 72 72 73 73 75 71 66 67 67 64 61 59 57 54 53 51 48 45 41 30
55 56 56 56 56 56 56 57 58 58 59 59 61 63 64 66 67 68 68 69 71 72 73 74 74 76 77 71 68 67 70 67 63 61 53 48 51 52 49 45 44 41 30
56 59 60 60 61 62 64 64 64 65 66 68 69 67 67 68 69 69 71 72 73 75 76 75 74 73 70 69 68 70 62 57 54 49 46 47 47 46 45 40 40 31 25
55 59 58 62 65 66 67 67 68 70 72 73 70 69 72 71 71 73 74 73 74 75 75 72 69 71 69 66 63 64 59 55 54 51 48 45 43 43 39 39 39 36 30
59 61 56 55 56 61 67 69 70 72 75 74 75 74 71 73 73 72 73 73 73 75 72 67 66 68 61 61 62 63 59 57 56 54 51 49 50 47 44 40 39 38 37

GFSGL_500_spd_039.txt.gz
Wind_Speed
23 26 26 24 23 21 19 18 16 14 13 14 15 14 14 14 13 11 10 10 8 8 7 6 5 4 6 7 10 9 7 7 8 9 12 14 13 15 17 18 19 21 26
24 25 26 26 24 21 20 17 14 12 11 13 15 16 17 15 15 14 12 11 10 8 7 4 5 4 3 3 4 5 6 5 8 11 12 13 13 17 22 24 25 27 30
28 26 27 26 24 23 21 18 15 12 10 9 11 14 14 13 14 12 9 9 9 7 4 4 0 2 4 6 8 8 8 10 10 12 15 16 19 22 26 29 28 29 31
29 28 28 27 26 24 22 19 17 15 13 13 13 12 11 9 8 7 7 6 4 6 6 5 2 1 2 4 5 8 11 13 15 16 19 21 22 25 27 31 31 33 34
25 26 27 28 27 25 22 21 18 16 16 16 14 12 10 10 9 9 8 8 10 10 8 6 2 2 4 6 7 10 11 12 14 15 16 20 23 26 29 32 33 32 32
27 27 28 27 26 24 24 20 19 18 16 16 15 15 13 12 12 12 10 10 11 9 6 4 4 4 5 7 11 12 13 14 16 21 20 21 22 26 32 34 35 33 32
31 31 27 26 26 27 25 22 19 17 15 13 13 15 16 16 16 15 15 13 13 11 9 8 6 8 10 14 17 18 19 20 21 22 23 24 25 31 34 36 41 40 40
33 30 29 28 28 29 25 21 20 17 14 13 12 15 18 18 20 19 17 16 16 17 15 15 14 16 18 20 21 22 21 21 26 31 34 31 33 37 40 43 46 48 45
32 30 27 26 28 27 23 22 22 20 19 16 16 16 15 18 22 23 22 19 17 17 18 18 19 20 21 23 25 26 27 26 31 34 37 40 41 42 44 48 49 54 53
20 28 28 30 31 28 26 25 25 25 24 23 20 16 16 15 18 19 24 26 23 22 22 23 22 21 24 27 30 31 31 32 36 37 39 43 45 44 47 52 53 57 58
23 29 33 34 34 32 33 30 29 29 28 26 23 20 19 18 20 21 20 21 23 25 26 26 27 27 31 34 35 37 38 41 43 45 45 43 45 46 48 52 56 60 60
26 31 31 34 35 33 34 35 32 32 31 31 29 28 27 26 27 28 27 25 25 26 27 29 30 34 37 40 40 42 44 45 46 48 49 50 50 49 49 49 52 56 60
35 34 30 32 36 38 36 35 38 39 35 34 34 33 31 33 33 35 34 33 33 32 33 35 36 38 41 43 45 47 47 47 50 52 54 53 54 54 55 54 54 55 53
41 43 43 43 44 45 45 45 45 44 44 47 41 43 43 42 41 41 38 39 41 39 38 36 38 41 42 42 44 47 49 50 54 55 56 55 56 57 56 58 60 60 58
42 46 46 45 45 47 49 52 53 51 48 46 45 48 49 49 50 49 47 43 43 43 42 42 43 43 42 44 46 49 51 54 55 57 58 58 60 61 58 61 60 59 55
32 39 42 46 49 51 52 54 56 54 52 53 52 52 51 50 48 45 45 45 45 45 46 46 46 45 46 48 50 52 54 56 56 58 59 62 64 62 63 62 59 58 59
31 32 34 37 42 45 47 52 54 51 48 45 43 42 41 40 42 43 44 45 46 46 45 44 45 48 50 51 53 55 56 57 58 59 62 65 64 63 64 61 58 59 60
35 34 33 34 37 37 38 40 42 43 44 43 42 41 41 41 42 44 45 44 43 44 46 47 49 51 53 54 56 58 58 59 61 63 66 67 63 62 65 61 60 63 53
40 39 37 35 37 39 41 41 41 42 43 42 42 42 43 43 44 44 45 45 47 48 49 50 51 53 55 56 58 60 61 63 65 67 67 67 62 63 64 59 61 64 54
44 43 41 38 40 41 42 42 42 43 44 44 45 46 46 46 47 48 48 50 51 51 53 54 55 56 58 61 62 62 65 67 68 69 66 65 61 64 64 55 58 60 54
50 47 46 44 44 45 45 45 46 47 48 49 50 50 51 52 52 53 54 54 54 55 56 57 58 61 62 63 64 67 69 68 68 66 62 63 59 62 57 50 53 51 53
49 52 51 49 50 49 49 51 51 52 52 53 54 55 55 56 56 57 57 57 58 60 60 60 62 64 66 68 68 67 68 68 66 61 62 60 57 59 51 48 51 53 49
50 51 55 56 55 55 55 55 56 56 57 58 59 59 60 60 60 61 62 62 62 63 65 67 67 68 67 67 69 70 67 62 57 60 60 57 56 53 51 51 53 51 46
52 53 51 52 53 55 56 57 58 59 59 60 61 61 61 62 63 65 67 68 68 70 70 68 66 67 69 70 68 65 65 62 59 59 55 54 56 54 51 51 51 49 45
56 55 55 59 61 63 65 66 67 67 66 66 67 68 68 68 69 70 71 72 73 72 72 71 73 72 71 69 68 67 66 67 60 55 57 58 57 57 56 53 50 48 46
61 64 64 63 60 60 63 66 69 69 70 71 71 70 71 70 70 71 71 73 73 75 72 73 75 76 74 72 71 70 66 62 57 59 62 53 52 52 52 51 50 50 46

GFSGL_500_spd_042.txt.gz
Wind_Speed
35 35 32 29 27 24 24 22 19 16 14 12 13 13 12 11 10 11 9 7 4 2 1 1 3 6 10 11 10 9 8 9 9 11 10 10 11 13 16 17 19 21 25
32 34 32 32 29 27 26 23 20 17 15 15 14 14 15 13 14 12 11 10 7 6 4 3 5 6 7 7 6 5 5 5 6 7 8 10 13 15 17 18 20 22 26
30 30 33 32 29 27 28 25 22 19 17 15 13 15 16 14 14 12 11 11 10 7 6 7 7 8 7 5 4 3 3 4 6 8 11 11 13 16 19 23 27 28 28
33 32 31 30 29 29 28 26 22 19 17 15 14 14 13 11 11 10 12 11 8 7 8 8 8 4 2 3 2 3 4 5 5 6 8 13 17 20 20 23 26 31 31
33 32 30 30 30 31 29 24 22 19 19 18 16 14 12 12 12 11 11 10 10 11 11 8 6 5 4 2 2 0 2 5 8 10 12 14 17 21 25 27 26 28 30
32 33 33 33 33 30 28 24 23 21 22 21 17 15 15 15 14 13 12 11 12 12 10 8 7 7 6 6 7 7 9 11 12 14 13 14 18 22 27 31 33 36 36
30 35 33 34 32 30 27 26 23 23 22 20 18 16 17 18 17 17 15 12 13 12 10 8 9 10 11 13 13 14 14 17 19 21 20 21 23 29 32 35 39 41 40
32 33 33 32 31 30 28 27 26 23 22 19 17 17 19 19 18 19 18 15 14 14 13 13 13 16 18 20 21 19 18 20 24 27 29 28 30 33 37 42 43 45 40
31 32 32 32 32 31 29 29 28 26 23 19 17 16 15 17 19 21 21 17 18 18 18 17 17 20 22 23 22 22 23 26 30 34 36 38 40 43 45 46 46 46 46
27 31 32 32 32 32 33 33 31 29 25 23 20 19 18 17 16 17 18 19 20 21 22 21 22 24 26 28 27 27 28 32 34 36 39 41 42 44 45 50 51 51 54
20 27 34 34 32 34 36 34 31 31 30 26 24 22 18 18 18 19 18 17 14 12 15 20 24 27 26 28 29 30 33 37 39 39 41 42 43 45 46 48 47 51 55
23 24 30 37 36 34 35 35 32 31 29 27 26 24 23 24 25 24 25 23 23 20 20 20 23 27 30 32 33 34 37 41 42 40 41 43 47 47 45 46 46 50 49
24 20 22 29 40 39 38 41 36 35 33 30 31 30 30 32 32 33 33 30 30 31 31 31 32 32 33 36 37 37 38 40 41 42 44 47 48 49 47 51 52 56 55
26 23 26 24 30 43 40 35 43 45 40 41 40 39 39 38 37 37 36 35 36 37 38 37 39 40 39 40 39 40 41 42 43 45 48 50 50 49 51 54 56 59 57
31 30 34 30 37 39 40 41 45 43 41 43 44 47 50 42 43 45 43 45 46 46 50 50 47 45 45 45 44 44 45 47 47 50 52 51 51 53 54 55 58 60 58
39 37 35 38 42 46 47 49 49 54 52 52 49 50 50 47 53 47 50 51 54 53 51 49 46 47 46 46 46 46 48 49 50 52 53 52 54 56 57 58 59 58 56
41 42 45 47 48 50 51 50 49 51 54 55 55 55 53 52 52 53 53 55 55 54 50 48 47 45 44 44 46 47 48 49 51 52 53 54 57 59 61 62 58 57 56
32 33 35 36 39 42 48 51 53 54 55 57 58 58 57 57 56 55 52 48 47 46 46 45 45 44 43 43 45 46 48 49 51 52 54 58 59 62 64 59 56 54 53
37 33 34 34 35 37 37 40 43 46 48 48 48 47 46 45 44 44 43 42 41 41 42 42 43 44 46 48 48 49 50 51 53 56 58 60 63 65 60 59 55 54 54
44 38 35 38 40 40 40 39 38 38 38 39 39 41 41 42 42 43 43 43 43 43 45 46 47 49 51 52 52 53 54 56 57 58 61 63 61 62 62 57 56 56 53
50 42 39 37 39 43 43 43 41 39 40 41 42 42 42 42 44 44 45 46 47 49 50 52 52 54 55 57 57 57 58 59 62 64 63 62 62 60 61 58 57 51 49
53 52 44 40 40 41 43 45 45 45 44 44 45 45 46 47 48 49 50 51 52 54 55 56 58 58 59 59 60 59 62 64 64 63 62 63 62 62 62 61 53 47 50
55 58 51 48 43 41 43 45 48 46 46 47 48 50 51 52 53 54 55 56 57 58 59 60 60 59 60 61 63 64 64 62 62 63 64 67 67 66 63 60 58 52 52
63 63 57 51 47 47 48 45 43 44 47 51 53 54 55 55 56 57 58 59 61 62 63 63 64 65 65 65 64 64 63 64 64 65 65 65 62 62 59 53 52 53 50
64 66 65 56 52 51 51 51 49 44 44 48 52 56 58 60 61 62 64 66 67 68 68 67 68 66 66 66 67 66 66 63 63 64 65 63 62 61 59 57 52 49 48
64 65 66 61 58 56 53 55 54 54 55 58 62 63 65 66 68 71 72 73 74 72 70 68 67 66 66 66 66 65 64 64 65 67 69 67 65 64 61 52 46 47 47

GFSGL_500_spd_045.txt.gz
Wind_Speed
37 35 33 30 27 25 23 24 23 20 18 17 14 12 10 8 7 6 4 4 3 2 3 6 10 11 13 14 13 12 11 10 9 7 6 7 8 9 10 12 14 16 19
35 36 34 33 31 28 26 26 25 24 21 19 17 15 11 11 9 7 7 6 4 4 4 5 8 11 12 11 10 9 8 7 5 3 4 7 9 12 15 17 19 21 23
35 36 36 35 32 30 29 29 28 26 23 21 18 16 14 13 12 10 8 8 7 7 7 8 9 11 10 8 7 7 6 3 2 4 6 8 11 14 17 19 22 24 26
35 36 36 36 34 32 32 31 30 28 25 22 20 17 15 12 12 11 11 10 10 10 10 10 12 11 10 8 7 5 4 2 2 4 7 11 14 16 17 18 20 25 28
34 33 33 35 35 36 34 34 32 29 26 24 21 18 15 12 12 13 13 12 12 12 12 12 13 11 10 9 8 6 3 4 6 6 7 8 13 17 21 24 26 29 32
36 33 34 34 34 34 33 34 34 31 28 25 23 19 17 15 15 15 14 14 13 13 11 12 12 10 8 8 6 6 7 7 8 9 10 11 14 19 25 28 31 31 31
36 36 35 35 33 33 33 34 32 29 29 27 25 21 19 18 17 16 16 15 13 12 12 12 10 7 6 6 8 10 12 12 13 13 13 18 21 26 29 31 33 34 35
37 36 35 35 35 36 35 32 31 30 29 28 25 22 20 20 19 19 20 16 14 15 13 13 11 11 11 13 14 15 16 17 16 16 17 23 27 30 33 35 37 38 34
37 35 33 36 37 37 33 32 31 31 31 28 26 21 19 20 20 21 20 18 15 15 15 15 15 16 17 17 17 17 21 22 21 22 27 30 32 34 38 38 41 42 39
35 33 33 35 37 35 35 34 33 33 32 29 24 21 19 18 18 18 16 16 15 16 19 17 17 19 22 24 24 23 23 24 26 28 30 33 35 37 40 43 44 44 45
31 34 34 34 34 35 35 35 33 34 31 28 25 23 20 17 15 14 13 13 15 16 14 16 18 21 23 24 25 25 26 28 30 31 32 34 35 38 41 44 46 48 47
25 35 36 36 36 35 34 34 34 34 31 28 27 25 21 19 20 21 21 18 19 19 19 19 20 21 24 25 28 28 30 33 35 34 33 34 36 39 42 42 44 47 47
28 29 33 35 35 35 35 35 35 35 32 31 28 25 24 26 26 26 25 25 25 26 26 27 28 29 31 33 34 36 37 37 39 37 38 40 42 44 45 45 46 48 49
30 29 30 30 32 37 38 38 37 36 35 36 35 34 35 34 33 32 33 32 33 34 32 32 34 34 36 36 40 40 42 43 43 41 41 43 45 47 47 47 47 49 52
32 31 30 28 30 31 41 40 40 39 43 40 39 42 42 42 43 42 41 41 42 37 38 41 42 42 44 47 48 45 42 41 43 44 45 46 47 47 47 47 49 53 55
38 39 36 32 32 35 37 40 44 44 38 42 49 47 48 50 50 50 45 46 46 46 46 46 48 50 49 49 46 42 43 43 43 44 44 45 46 46 47 48 52 55 57
44 42 51 41 49 44 40 43 44 44 48 45 47 47 49 52 47 46 48 47 48 49 50 51 51 51 52 51 47 43 41 41 41 41 43 45 46 47 48 52 55 57 57
55 61 47 52 27 31 40 44 46 49 51 53 55 52 55 55 53 52 52 51 51 52 53 52 51 50 46 44 42 40 39 41 42 44 46 47 48 49 52 54 57 56 55
42 42 38 36 36 42 47 48 51 52 51 51 52 52 51 51 52 53 54 53 52 50 49 45 41 39 39 39 39 40 42 43 45 47 48 48 50 52 54 57 58 54 54
47 47 47 47 44 45 43 41 42 43 44 45 47 48 48 48 47 46 43 40 39 38 38 38 38 39 40 41 42 44 46 48 49 50 50 52 54 54 57 58 55 53 54
43 41 40 41 43 41 38 37 39 40 41 40 39 41 42 40 39 39 38 38 37 36 39 40 40 42 44 45 47 49 51 53 54 55 56 56 58 59 59 55 55 55 54
47 46 45 45 44 43 43 39 39 41 41 41 43 43 43 41 40 40 40 40 40 40 42 44 46 48 49 50 52 54 55 56 56 57 59 60 60 59 57 56 52 51 52
53 52 52 53 50 48 51 49 43 41 41 42 45 47 47 46 45 45 43 43 44 46 47 49 50 51 53 54 55 57 59 60 59 58 58 59 59 59 56 53 53 55 54
60 59 59 58 58 52 53 57 54 48 45 44 45 47 48 47 46 47 47 47 47 47 48 50 53 55 57 59 62 63 64 64 65 64 60 56 54 56 58 59 61 59 58
71 68 64 60 60 59 56 56 56 50 49 49 49 46 46 46 46 44 45 47 49 50 51 54 55 57 60 62 64 66 66 68 67 63 60 57 56 58 60 60 61 60 56
77 75 75 71 72 69 64 60 59 59 56 55 53 52 46 47 49 50 48 51 55 58 60 61 63 65 65 66 67 70 67 68 63 60 61 65 64 62 61 60 59 57 53

GFSGL_500_spd_048.txt.gz
Wind_Speed
39 37 35 31 30 29 24 23 20 19 19 17 16 13 11 9 8 8 7 7 7 6 5 8 11 11 12 13 13 11 9 9 9 8 5 4 7 8 8 8 11 14 16
40 39 37 34 33 31 27 24 23 22 21 20 18 16 14 12 12 11 10 9 8 8 7 9 13 14 14 15 15 13 11 9 7 3 3 5 7 8 10 13 16 17 20
41 40 38 36 35 32 30 27 24 24 24 23 21 18 17 16 15 14 13 10 10 10 9 10 14 15 15 15 14 12 10 8 5 2 1 4 6 7 10 11 14 18 23
43 41 40 38 35 33 32 30 27 25 26 25 24 21 18 17 16 14 14 13 13 12 10 12 14 17 15 14 12 10 7 5 2 3 7 9 10 12 14 15 18 22 23
42 42 40 39 38 37 35 32 30 28 27 27 27 23 19 17 15 15 16 14 14 13 11 11 15 16 15 14 10 8 5 3 5 6 8 8 12 14 15 18 20 23 25
40 38 39 41 40 39 36 34 32 30 30 29 28 25 21 19 17 18 16 15 14 13 12 12 14 14 14 12 8 6 5 6 8 8 8 7 10 13 16 20 22 26 27
35 38 38 38 39 39 38 37 34 31 33 31 30 27 24 21 19 18 18 16 14 14 11 12 14 12 10 9 7 5 7 8 9 10 9 11 14 19 21 22 26 27 30
32 37 37 36 34 33 35 35 34 33 33 33 31 29 27 23 21 20 18 17 16 13 12 12 12 11 10 9 8 6 6 9 14 16 17 14 17 21 23 25 27 27 30
27 31 36 36 35 35 32 32 33 34 33 32 31 30 26 25 21 20 19 17 17 15 14 14 15 14 13 13 11 10 12 14 18 20 21 21 23 27 30 29 33 34 33
27 24 32 36 36 34 34 35 36 36 33 33 32 30 27 24 21 19 17 17 18 17 17 16 14 14 15 17 17 19 19 21 22 24 25 25 27 29 34 34 36 38 41
31 30 30 33 36 35 36 39 38 35 34 33 31 29 27 26 22 20 18 18 22 21 19 18 17 18 21 24 24 23 21 23 25 26 26 29 32 34 36 39 41 41 42
35 28 28 32 35 35 36 37 36 36 34 33 31 29 28 26 23 20 19 21 23 22 20 20 21 21 21 21 20 22 25 28 29 32 33 35 37 39 41 41 43 44 44
31 30 28 33 34 33 33 34 35 35 33 32 31 30 29 27 22 20 19 20 20 20 21 21 22 23 24 25 27 30 32 32 34 34 39 41 42 39 39 41 42 43 44
36 36 26 28 35 34 33 34 34 33 32 32 32 31 31 30 28 26 24 25 26 27 27 28 29 30 32 32 33 36 36 37 41 43 45 41 37 39 40 40 41 41 43
41 38 31 29 34 35 35 36 35 34 35 35 34 34 36 35 33 32 33 34 35 33 33 34 34 36 36 35 37 40 42 45 45 43 42 40 39 38 38 39 40 41 43
43 42 37 34 35 38 42 40 36 32 33 36 38 39 40 39 40 41 41 41 43 41 40 39 41 42 42 44 45 43 44 44 43 42 40 39 38 38 39 40 41 43 46
52 57 45 40 39 40 43 43 46 44 40 41 40 42 46 45 45 46 47 48 48 46 47 44 44 44 43 44 46 45 44 43 40 39 38 37 37 39 40 43 45 47 50
52 54 47 50 44 44 48 46 51 53 43 42 41 45 45 47 43 51 53 53 50 46 42 44 47 45 46 47 45 43 40 37 36 36 36 38 39 42 44 47 48 50 52
46 45 36 42 47 51 51 50 53 34 35 36 38 47 51 53 52 51 48 45 44 43 43 43 45 43 41 38 38 37 36 36 36 36 38 41 42 44 47 49 51 52 54
49 49 56 58 56 60 62 52 48 30 35 44 39 43 50 49 48 48 49 48 47 44 42 40 39 37 36 37 36 36 36 36 38 40 42 44 47 48 49 52 55 56 54
51 56 55 55 70 63 37 25 30 32 35 33 37 43 44 47 48 46 43 42 42 42 42 40 38 37 36 36 35 36 37 39 42 44 46 47 48 50 53 54 55 56 56
53 52 56 58 46 43 34 32 32 35 33 33 36 40 44 43 41 41 41 42 43 44 43 42 39 40 40 39 40 40 42 43 44 45 47 49 51 53 55 55 55 55 54
54 53 52 51 48 42 39 40 36 36 38 42 40 39 40 41 41 41 43 45 46 46 45 44 45 45 45 46 47 47 47 47 48 49 50 52 53 55 55 55 53 51 50
63 60 56 51 52 50 47 47 46 45 48 45 49 47 42 39 39 40 43 45 47 48 50 51 51 51 50 50 50 51 50 51 52 54 56 58 59 57 56 56 56 52 55
61 61 64 63 59 58 59 60 59 56 55 53 52 50 53 53 48 45 44 45 47 49 51 54 56 57 55 50 50 53 56 58 59 57 55 54 56 59 59 56 56 56 55
68 70 71 61 59 69 68 68 68 66 65 60 58 57 56 53 57 56 52 50 52 54 54 56 56 55 53 51 54 57 57 58 57 57 57 55 57 61 64 58 51 50 52

GFSGL_500_spd_051.txt.gz
Wind_Speed
36 36 34 32 29 28 25 22 21 20 21 19 18 14 11 8 6 6 6 6 5 6 5 9 10 10 10 10 9 8 7 7 8 7 4 4 3 2 4 8 10 12 15
39 39 37 36 34 31 27 24 23 22 24 22 21 18 14 11 10 9 9 8 8 9 8 10 14 13 13 13 13 11 10 10 9 6 5 3 2 6 8 9 12 13 17
40 41 40 37 35 31 28 27 24 24 25 24 22 20 18 14 13 12 12 12 10 12 11 12 15 17 16 15 15 14 11 9 8 6 2 2 3 3 4 7 10 14 17
41 41 41 38 35 32 32 29 26 25 25 25 23 22 20 16 13 13 14 14 13 15 13 13 16 19 18 16 15 12 11 9 7 5 3 3 2 4 6 8 12 15 18
38 40 39 38 37 35 34 32 29 27 26 27 26 24 20 16 14 14 15 14 14 15 15 13 15 18 18 16 14 12 10 8 6 6 7 8 9 9 10 13 14 17 22
32 37 38 39 39 38 36 34 31 29 28 28 27 25 22 18 17 15 14 13 12 15 14 13 13 15 17 16 13 12 9 8 7 8 11 13 10 11 14 16 17 17 19
29 34 36 38 39 39 38 37 35 32 32 29 29 27 24 21 19 17 15 14 12 15 15 12 14 15 15 13 13 12 10 8 8 8 9 12 14 17 17 18 21 23 24
27 31 35 38 37 38 39 38 38 37 35 32 31 30 27 24 22 19 18 18 15 16 15 14 15 15 16 14 14 12 11 9 9 10 12 14 16 18 22 22 21 24 27
27 26 30 33 36 36 35 36 38 40 37 34 32 31 28 26 24 22 20 19 17 16 17 15 15 16 16 14 13 14 13 11 13 16 19 19 20 23 26 29 28 26 28
26 21 22 29 33 33 32 31 31 34 36 36 34 31 31 29 27 23 21 20 18 18 19 17 16 16 16 15 14 14 13 16 19 20 22 22 23 27 29 32 34 33 34
28 28 27 25 29 32 34 34 33 32 33 34 33 32 32 30 27 24 21 20 20 22 22 20 16 16 17 17 18 18 19 20 19 19 22 25 28 32 33 38 38 36 40
37 32 29 24 25 32 34 33 33 32 32 32 32 33 32 29 26 24 22 22 23 23 23 21 21 22 21 23 23 21 20 20 22 24 28 28 34 32 36 39 39 38 41
41 37 35 31 29 28 35 33 33 33 33 33 33 33 30 28 27 25 23 23 26 24 23 25 25 26 26 26 25 24 26 27 28 30 36 38 38 39 40 41 39 40 39
45 44 40 37 31 27 34 34 35 35 36 36 36 34 31 30 29 26 25 26 28 29 29 29 30 28 26 27 28 30 33 32 30 31 37 37 37 40 41 39 36 35 34
49 49 47 49 36 26 33 35 36 37 37 37 37 36 33 31 29 28 28 27 27 28 31 32 31 30 32 32 33 34 35 39 43 39 41 40 39 39 37 35 34 33 35
57 55 54 49 38 29 30 35 38 35 34 36 36 36 36 36 36 34 31 30 31 32 34 33 33 35 36 38 41 42 40 41 41 42 42 42 39 36 35 33 33 35 37
60 58 55 52 43 34 33 34 37 36 35 37 37 38 38 38 37 37 38 39 38 39 39 41 40 40 40 42 46 47 45 44 44 43 41 39 36 34 33 33 35 38 40
60 62 59 57 45 37 35 34 31 32 35 37 39 42 41 41 39 41 43 43 37 41 43 44 44 42 42 38 39 42 44 45 44 41 39 36 34 35 35 35 38 40 42
66 63 59 54 49 50 48 43 43 41 42 44 43 47 46 45 47 36 41 44 40 39 40 43 43 40 39 42 42 43 42 40 38 36 36 35 35 36 37 39 41 42 44
68 65 58 53 61 69 54 50 50 48 51 53 58 56 54 49 45 50 49 47 44 41 41 44 44 45 44 41 39 37 36 36 37 37 36 36 38 39 41 42 44 45 46
71 60 58 57 49 42 37 39 47 54 51 48 56 35 40 49 45 44 41 43 43 41 40 39 41 40 39 39 39 38 38 38 39 40 41 42 43 44 46 48 49 50 49
56 54 42 40 46 46 46 56 60 42 45 40 34 30 41 48 44 41 43 44 41 39 37 39 40 40 41 40 41 42 41 42 43 45 46 47 49 50 50 52 53 52 53
53 40 43 47 50 53 52 52 49 43 33 27 27 31 34 40 45 44 40 41 41 42 42 42 41 42 42 43 44 44 45 48 49 51 52 53 53 53 54 55 56 57 56
50 51 50 51 52 52 53 52 48 42 39 34 30 35 40 45 44 43 41 39 40 45 46 45 44 44 45 46 47 48 50 52 53 53 53 54 53 54 56 57 57 55 53
52 50 50 52 53 54 58 54 48 45 42 45 44 43 43 43 44 42 42 45 47 46 45 46 46 46 46 47 49 51 52 54 56 55 56 57 55 53 55 55 56 56 53
54 51 56 62 62 66 62 62 58 57 53 55 55 53 49 47 49 48 49 51 51 52 55 57 58 57 55 54 54 55 57 59 61 63 64 64 62 60 61 61 61 61 60

GFSGL_500_spd_054.txt.gz
Wind_Speed
30 29 29 28 26 25 23 21 20 20 18 17 15 12 10 9 6 4 2 2 3 4 4 7 9 9 9 9 7 6 6 6 6 5 4 4 3 2 4 6 8 9 12
31 33 31 30 30 27 25 23 23 22 21 21 19 17 15 12 9 6 5 4 4 6 6 8 11 11 11 10 10 8 9 8 6 4 3 2 0 2 3 5 7 10 15
31 33 34 32 31 28 27 26 23 23 22 22 21 20 19 16 12 9 7 6 7 9 10 9 12 13 14 14 12 10 10 9 8 6 5 3 1 2 3 5 7 9 11
24 34 35 33 33 30 28 28 26 25 24 23 23 22 22 18 14 12 10 8 8 10 11 12 13 16 16 16 15 13 12 10 9 8 6 4 4 6 8 8 11 14 13
23 27 34 35 34 33 31 30 28 27 25 24 24 24 22 19 17 15 13 9 8 10 13 13 14 16 18 18 16 14 13 12 11 9 9 8 8 9 11 14 16 17 19
23 21 30 36 35 34 33 33 32 28 28 26 23 24 23 20 19 17 14 11 8 9 13 15 15 15 17 19 18 16 15 14 12 11 10 11 12 13 15 18 20 21 19
24 24 24 34 35 33 34 34 32 30 30 26 24 24 23 23 22 19 16 12 10 11 13 14 15 16 18 19 20 19 18 16 14 12 11 12 12 16 17 19 21 23 25
25 24 23 25 31 32 32 31 33 32 31 30 28 26 26 26 24 23 19 15 13 11 14 15 17 18 19 19 18 18 18 16 14 12 12 13 12 15 18 21 23 24 23
25 20 20 22 25 29 29 29 31 32 33 32 32 30 28 28 28 25 23 18 16 15 15 16 18 19 21 21 18 18 18 17 16 16 16 16 18 18 20 24 27 29 29
26 19 20 21 24 26 27 29 31 31 32 34 35 35 33 32 31 28 25 21 18 19 17 19 19 20 22 21 20 19 17 19 18 17 19 20 20 21 25 26 27 30 32
30 29 25 23 23 25 29 31 32 31 31 32 33 36 36 34 33 32 28 25 22 23 21 24 24 24 23 22 20 19 18 20 20 17 16 18 23 26 29 30 32 34 33
38 34 30 26 26 26 26 28 32 33 32 29 30 32 35 35 35 34 30 27 27 26 25 27 28 25 23 22 22 23 21 19 19 20 21 24 27 31 34 34 36 37 38
42 38 34 33 29 27 27 26 31 34 34 32 32 31 31 32 34 32 30 29 30 27 26 27 29 28 27 27 27 24 22 23 25 27 29 31 30 29 33 36 38 41 40
48 43 41 36 34 32 29 26 26 33 36 35 33 33 32 33 33 32 32 30 30 27 27 28 29 30 30 29 28 28 29 29 29 31 33 34 38 36 38 40 40 42 40
50 48 46 42 37 37 32 30 28 28 34 36 35 36 37 36 34 33 32 31 29 28 30 31 31 31 31 32 33 33 33 33 34 36 36 38 41 41 41 44 44 41 35
54 52 49 47 41 38 37 33 28 26 30 35 35 37 36 35 35 35 35 34 35 36 37 38 38 38 36 35 35 35 36 36 39 42 45 47 46 45 45 45 42 36 31
58 56 54 52 47 43 40 40 35 26 27 34 33 33 34 34 35 35 36 38 40 41 42 41 42 39 36 36 37 37 39 40 42 45 45 45 46 46 46 43 37 32 32
59 61 59 55 53 50 46 42 42 37 31 31 34 34 33 35 37 40 43 45 45 46 48 45 43 41 39 39 38 38 42 44 43 42 42 45 48 47 41 37 34 34 34
54 62 61 60 59 58 55 50 44 38 34 29 35 39 39 40 41 44 48 51 49 50 53 55 51 45 38 37 37 38 39 40 41 41 42 44 43 40 37 36 36 36 37
54 59 61 63 62 57 53 51 49 44 43 37 37 38 41 44 46 52 54 56 58 53 49 60 44 37 39 39 39 41 41 39 39 39 39 39 39 38 38 37 39 40 41
53 58 61 63 63 57 51 48 51 53 51 51 45 47 47 49 50 54 56 57 50 47 50 42 33 36 25 34 42 41 37 36 36 37 36 37 39 40 41 42 43 44 45
48 53 57 58 62 63 60 55 51 48 54 49 59 48 41 42 49 45 56 64 66 65 55 36 37 35 39 40 38 35 35 36 37 37 38 40 43 44 44 46 47 48 48
49 53 54 56 60 58 61 60 60 58 55 47 36 34 24 28 30 30 35 35 36 40 44 43 41 41 40 37 37 39 41 42 41 41 43 45 47 47 48 50 51 52 53
50 51 57 58 61 62 63 66 63 61 51 50 33 28 28 31 29 34 35 34 35 40 43 44 42 41 42 42 44 45 47 48 48 49 50 51 52 52 53 54 55 56 57
55 56 57 60 63 65 76 83 68 54 52 39 28 34 39 38 37 31 33 31 36 42 45 46 47 47 45 44 44 44 45 46 48 50 51 54 55 56 57 59 62 63 63
56 57 64 66 63 69 48 36 39 35 37 42 41 47 48 48 47 41 39 40 42 45 46 48 51 52 51 50 49 50 52 55 57 57 57 61 64 66 69 70 70 69 69

GFSGL_500_spd_057.txt.gz
Wind_Speed
24 26 26 24 25 26 23 21 19 17 15 13 13 12 9 7 6 3 1 1 1 2 2 5 6 8 9 8 9 8 7 7 6 6 4 3 2 2 2 3 5 8 12
27 28 29 28 28 25 25 24 22 21 20 18 17 15 14 11 8 5 3 3 3 4 5 5 9 8 10 10 10 8 7 7 6 4 3 2 2 1 2 5 7 10 13
18 28 29 29 27 25 26 26 23 22 22 22 19 18 16 15 12 8 8 6 6 6 8 8 10 12 12 12 12 12 11 9 7 5 4 4 4 4 4 6 9 11 14
15 17 28 31 30 29 28 28 25 24 24 22 21 19 19 17 15 11 10 10 10 9 10 11 11 13 15 14 14 14 13 12 11 10 9 8 7 6 8 10 12 13 16
18 15 19 31 34 34 31 29 28 26 24 25 23 21 19 17 16 15 13 10 11 11 12 13 13 14 16 17 16 16 16 15 14 13 12 11 10 10 11 12 13 16 20
19 18 20 25 33 35 34 32 30 29 27 25 23 22 20 19 19 18 15 12 10 11 13 15 16 15 15 18 20 19 18 17 17 16 15 15 13 13 12 14 15 18 18
22 20 19 20 26 33 36 35 31 30 31 26 25 24 22 23 22 20 18 15 12 11 13 14 17 17 17 17 21 22 21 21 20 18 17 17 15 16 16 17 17 19 20
26 22 20 17 20 30 35 33 32 31 31 30 28 27 26 24 24 22 21 19 16 15 14 15 17 19 19 20 21 23 24 23 23 21 19 19 15 15 17 18 19 20 23
32 21 16 16 18 24 30 32 33 33 32 32 31 29 28 27 25 24 24 23 21 20 18 17 19 21 22 22 22 23 24 24 24 22 19 18 17 19 20 17 20 23 25
27 23 18 17 17 19 27 31 33 32 33 34 33 32 31 30 29 28 26 25 25 23 23 21 21 23 26 24 24 25 24 25 23 20 19 19 20 20 18 21 23 27 28
21 25 23 20 19 21 24 27 30 31 32 32 32 34 34 33 33 32 30 27 27 27 28 24 23 26 28 26 26 26 25 25 23 22 21 22 22 20 21 26 29 29 28
33 28 26 26 23 23 22 24 26 29 31 32 32 32 32 33 35 36 34 31 29 30 30 29 27 27 28 28 27 27 28 27 26 24 23 23 23 24 28 31 33 32 34
36 34 33 31 29 25 25 24 26 28 28 29 31 31 30 30 32 35 35 34 33 31 33 33 30 28 31 30 29 30 31 31 28 27 25 26 28 31 33 31 33 35 37
41 41 39 37 33 31 27 26 28 27 24 26 30 31 31 32 31 31 32 33 32 33 35 35 33 32 32 34 34 34 35 34 30 29 28 29 32 34 36 35 36 39 40
45 45 43 40 36 34 32 30 28 26 25 23 25 33 35 34 32 33 34 33 34 34 39 39 36 34 34 37 37 39 38 34 31 31 32 34 36 37 39 41 43 44 43
47 48 48 45 41 37 35 31 30 28 28 25 24 29 36 36 36 37 36 37 37 39 42 39 38 38 37 38 39 37 35 35 35 36 38 39 39 42 44 43 45 45 43
49 48 49 49 46 43 40 37 32 30 30 28 27 28 32 35 38 40 39 41 42 45 41 40 40 40 39 39 38 38 39 41 41 41 42 42 43 45 45 43 42 42 44
46 49 48 49 49 47 45 42 38 34 33 32 31 34 32 33 35 37 40 43 45 45 43 44 44 45 47 47 47 46 47 45 44 44 44 43 45 45 47 46 44 43 38
51 49 49 52 53 52 50 48 43 40 39 40 36 37 37 34 35 37 40 44 46 45 46 48 50 53 53 54 52 46 52 46 45 44 43 44 44 44 45 46 44 38 34
50 51 50 49 50 54 55 53 47 47 47 47 43 42 44 38 36 37 41 43 43 42 43 49 54 57 56 59 55 38 48 44 44 42 41 43 45 45 43 43 41 36 35
50 53 52 50 52 56 58 59 56 55 56 55 50 50 48 40 35 35 39 43 44 43 45 52 53 57 61 63 59 50 54 47 49 46 37 41 43 43 42 38 39 39 38
52 54 54 54 53 56 59 59 63 62 63 64 58 54 50 42 39 39 40 44 49 50 52 56 53 58 65 68 66 62 37 46 50 37 36 39 41 41 41 39 41 43 43
52 54 53 50 51 52 55 59 63 68 66 54 61 50 51 47 35 37 38 50 53 43 50 51 51 49 46 44 47 37 35 29 26 30 37 40 41 41 42 43 44 46 49
51 50 45 50 46 49 55 57 59 60 59 61 49 49 49 40 42 45 31 29 37 44 43 39 39 37 35 33 38 36 33 32 34 37 39 41 42 42 44 45 45 46 47
43 43 44 44 56 46 45 49 56 58 60 54 62 52 50 51 50 48 43 38 37 36 38 38 36 37 36 34 35 36 38 39 41 43 44 45 46 47 49 50 52 53 54
33 41 43 46 47 46 40 43 55 59 65 63 63 60 60 62 66 64 54 47 42 38 35 37 40 39 38 38 40 41 41 43 47 48 49 51 52 53 55 58 60 64 64

GFSGL_500_spd_060.txt.gz
Wind_Speed
25 27 30 28 25 25 22 20 17 14 13 13 12 9 8 7 4 1 1 1 1 2 5 6 7 9 10 10 12 14 13 13 11 9 6 4 3 2 1 3 5 9 13
29 29 29 30 29 27 26 23 20 19 17 16 15 14 11 9 7 5 2 2 3 4 5 7 9 9 9 11 11 12 12 11 11 9 7 6 4 5 5 5 7 10 13
32 32 30 31 30 28 27 27 25 23 22 20 19 18 16 15 13 10 8 5 5 7 8 8 10 12 12 12 12 12 12 11 11 10 9 8 7 6 7 9 9 11 14
23 29 31 29 30 31 31 30 29 26 24 23 22 22 20 19 17 14 12 9 6 7 10 11 12 13 15 14 14 14 14 13 13 12 11 11 10 9 10 10 13 12 14
21 21 26 32 32 33 34 33 31 30 27 26 25 22 22 21 19 18 16 13 9 8 10 13 15 15 16 17 18 17 17 17 17 16 15 14 14 12 12 14 14 14 16
27 21 23 24 30 32 33 34 33 31 30 28 26 26 23 20 20 20 19 16 13 11 12 13 16 18 18 18 21 21 21 20 20 19 19 19 19 17 17 17 15 14 13
34 26 23 21 21 25 34 36 35 33 32 29 28 26 24 23 23 22 22 20 18 15 13 13 14 18 20 19 20 23 24 23 24 23 23 23 21 20 20 18 16 15 16
35 32 28 23 22 23 31 37 36 36 33 31 30 28 27 26 25 24 25 24 22 19 17 16 15 17 20 22 21 21 25 27 28 26 25 25 23 24 21 16 17 19 18
37 34 33 29 27 26 26 35 38 37 36 33 32 32 29 29 28 27 26 25 25 24 22 19 19 19 22 24 24 23 24 27 30 28 26 26 27 26 21 17 21 20 19
33 36 34 31 30 28 27 32 39 39 38 38 36 34 33 32 33 31 29 27 25 25 26 24 24 24 26 27 26 28 25 28 31 29 28 29 29 25 22 22 21 21 22
46 45 39 35 32 30 30 33 38 39 38 39 37 36 35 34 33 33 32 29 27 28 28 28 29 29 29 29 28 29 28 31 30 28 29 30 28 26 26 25 24 24 25
53 53 50 39 35 34 32 31 33 36 36 36 36 35 34 34 35 35 35 33 32 31 29 32 34 34 33 32 29 29 32 32 31 30 30 30 28 28 30 28 27 27 31
34 52 59 41 34 31 31 29 33 34 35 36 35 34 35 36 37 37 38 37 38 36 34 35 39 41 38 33 30 32 33 33 34 33 33 32 32 32 33 31 31 33 36
35 37 44 44 41 36 32 31 32 31 30 30 30 32 34 36 35 36 35 38 40 39 37 37 41 43 41 35 33 33 35 36 37 36 37 36 36 36 35 34 34 37 39
47 34 44 48 38 41 41 38 32 28 26 25 23 28 32 34 34 38 39 39 39 39 41 42 41 42 41 38 37 36 39 41 41 42 42 40 40 39 37 36 37 40 42
50 53 45 46 44 46 44 40 36 32 29 27 27 26 26 26 32 38 40 41 42 43 41 39 39 41 42 41 40 41 42 45 45 45 45 44 43 39 38 39 40 43 45
48 47 48 51 52 49 46 43 39 37 35 33 31 29 29 29 27 29 37 40 43 46 41 40 40 42 42 43 42 43 44 47 48 48 47 44 45 44 42 43 46 47 47
58 57 54 53 56 54 51 47 45 43 40 38 38 35 33 32 31 29 30 41 42 45 43 43 43 43 43 42 43 45 48 49 51 53 50 49 49 47 48 47 49 50 47
57 56 54 55 56 55 55 53 51 49 47 44 42 39 37 35 36 36 36 37 41 43 43 43 44 43 42 42 45 46 49 49 50 55 60 69 56 55 54 48 47 47 44
59 56 54 53 52 55 57 60 59 56 54 50 49 45 43 41 39 41 41 43 43 42 41 41 43 45 46 46 46 48 51 54 57 64 67 53 56 61 56 51 49 45 44
59 56 57 54 51 49 52 58 61 60 57 56 56 52 48 49 45 47 45 46 46 44 42 40 40 41 43 46 47 51 56 59 62 62 60 61 56 64 61 53 47 45 43
63 56 54 54 54 51 52 55 57 60 61 60 59 58 56 53 52 52 52 58 54 48 43 41 42 42 43 47 51 49 53 58 61 62 60 54 48 36 45 52 36 40 41
69 61 49 51 54 53 55 59 59 56 57 60 63 64 61 59 59 57 58 59 59 47 43 43 38 42 46 49 51 52 56 60 57 48 33 32 26 39 39 31 40 43 43
68 62 59 58 59 57 56 56 57 57 56 54 60 64 67 62 70 72 66 58 63 45 39 38 38 32 38 45 48 49 45 44 39 35 31 28 24 27 36 43 45 45 45
75 68 65 62 64 63 60 58 52 52 53 52 52 58 62 62 66 58 59 66 56 56 45 40 38 38 42 46 47 45 43 40 38 35 37 37 37 39 42 43 44 47 49
76 69 65 64 62 61 54 54 53 53 47 50 42 54 56 56 56 61 57 56 58 62 56 48 49 49 46 46 47 46 45 44 42 42 42 42 43 43 44 45 49 53 56

GFSGL_500_spd_063.txt.gz
Wind_Speed
27 30 27 25 25 23 20 18 16 15 13 14 13 11 10 11 8 5 5 4 4 4 8 13 13 12 12 13 13 13 14 14 12 9 6 4 3 2 4 4 6 8 11
28 30 31 30 28 27 24 22 19 17 16 16 14 13 12 11 9 7 4 3 3 3 5 8 13 14 14 13 13 12 12 12 12 9 7 6 5 6 6 7 8 9 11
35 33 31 32 32 30 28 27 24 22 20 18 18 17 16 13 11 9 6 4 3 4 5 7 9 13 15 15 15 15 14 13 12 12 11 9 9 10 11 12 11 12 14
34 38 35 33 33 34 32 31 29 26 25 23 22 21 19 17 15 12 10 9 7 6 7 8 10 11 14 16 17 17 17 17 17 16 15 15 14 14 14 13 15 15 16
33 34 38 39 37 36 37 35 33 31 28 26 25 25 23 21 19 17 16 14 12 9 9 9 12 13 14 17 18 19 20 21 20 20 20 20 20 17 16 17 17 18 20
37 34 35 43 43 41 39 39 38 35 33 31 28 27 26 24 23 21 20 20 18 14 12 11 12 13 15 17 20 22 22 23 23 22 23 22 24 21 19 20 20 20 17
41 39 37 36 43 44 43 43 41 38 36 33 31 29 26 25 25 24 24 22 20 19 16 14 14 14 16 18 20 21 23 25 25 26 26 27 27 26 23 23 22 20 18
44 43 41 37 36 43 45 44 43 42 39 37 35 33 31 28 27 26 26 24 22 22 20 18 18 17 17 18 20 21 22 24 28 29 28 31 28 29 26 23 22 20 20
43 44 45 41 38 39 40 42 44 45 43 39 39 38 34 32 31 29 28 25 24 24 24 24 22 21 21 20 19 20 23 24 25 28 31 31 30 31 29 25 24 21 21
53 45 43 44 41 39 38 37 40 46 46 45 43 40 37 37 36 34 33 30 27 26 26 26 26 25 27 26 23 23 22 26 28 27 27 31 33 33 31 27 25 23 25
50 46 47 44 44 40 40 40 39 42 50 49 47 44 41 39 39 37 36 32 29 28 28 28 28 30 31 32 29 25 25 30 30 30 28 29 33 33 33 29 27 27 27
47 47 51 49 48 46 43 42 41 41 44 51 51 47 43 40 39 38 37 34 33 31 30 32 31 33 35 36 35 30 29 32 32 32 31 32 34 34 33 30 30 31 30
36 36 47 52 50 43 41 41 41 42 41 47 50 45 42 42 41 40 40 39 39 36 35 36 38 38 38 37 37 36 34 33 34 34 35 36 37 35 33 34 34 35 34
46 41 39 41 52 55 45 46 43 43 39 40 45 43 43 44 43 42 42 43 44 42 40 41 42 43 41 40 40 40 38 37 37 36 37 38 38 38 37 38 38 39 39
55 48 44 55 51 54 54 50 45 40 38 37 40 42 42 43 42 42 43 43 44 44 46 46 44 42 43 42 42 43 43 41 39 39 39 40 41 41 42 42 42 43 44
56 52 50 55 60 68 67 55 48 42 37 34 37 39 39 43 43 43 42 41 43 46 46 42 39 37 37 40 43 44 44 42 39 40 42 43 43 45 47 48 48 47 48
64 59 59 49 36 61 64 61 52 47 43 40 38 37 34 34 36 37 36 35 41 47 44 42 39 38 37 39 40 42 42 41 40 40 40 43 45 47 50 53 52 51 53
73 59 57 54 55 52 50 42 57 53 49 46 43 41 40 40 39 38 38 36 35 37 39 42 42 41 41 40 41 42 41 41 41 41 43 44 45 49 51 52 53 52 60
72 66 66 62 62 62 59 57 51 52 50 48 48 44 43 44 43 42 40 39 39 39 38 38 38 41 42 43 43 43 43 44 46 45 45 48 50 52 53 55 56 58 66
73 69 64 60 70 65 57 56 54 49 54 55 52 50 50 49 48 46 44 41 43 41 43 39 39 41 44 44 46 46 46 47 49 46 46 45 50 54 54 60 60 58 68
88 81 82 69 69 56 59 55 57 63 63 60 59 57 56 54 54 51 49 47 44 46 46 44 45 45 45 45 45 46 46 47 47 47 46 43 47 52 57 60 60 64 60
83 78 73 67 57 51 48 52 53 58 61 62 63 63 60 60 57 54 55 53 53 53 51 52 52 56 51 46 44 45 45 46 49 45 41 47 48 51 53 56 61 50 45
85 92 77 76 59 53 48 59 58 56 58 61 64 65 67 66 64 62 61 59 59 60 57 57 59 63 60 55 54 53 47 42 41 42 46 47 48 52 49 46 43 36 39
91 94 77 73 62 60 60 60 62 58 57 55 58 61 63 65 67 67 64 65 64 65 66 65 63 62 63 53 48 46 44 44 48 51 53 53 48 42 42 42 39 37 36
76 85 90 81 60 64 69 70 62 62 59 57 56 56 56 57 58 62 65 69 70 70 74 76 75 69 63 62 53 54 43 41 44 47 49 47 46 43 44 44 43 41 41
74 69 72 86 71 72 71 62 60 56 55 57 57 57 55 54 55 61 61 63 68 69 74 77 77 78 74 62 62 58 51 47 47 49 49 49 48 47 47 49 48 46 47

GFSGL_500_spd_066.txt.gz
Wind_Speed
31 28 27 26 25 23 20 18 16 15 14 15 16 15 12 10 11 11 10 10 11 13 16 17 16 14 14 14 14 14 14 15 14 13 9 6 5 4 5 6 7 9 10
36 35 30 29 27 25 22 20 17 17 15 15 15 14 14 12 10 9 9 9 9 10 12 15 17 17 16 15 15 15 15 16 15 14 11 9 8 8 8 9 10 10 12
37 37 36 33 30 28 27 26 23 20 17 16 16 16 15 15 12 10 9 9 8 7 8 10 14 17 18 18 17 17 17 17 17 16 14 13 12 11 12 12 14 15 15
38 38 38 37 35 34 33 31 28 26 23 21 20 19 19 16 14 12 11 10 8 7 6 7 10 13 17 19 20 20 21 20 19 19 18 18 17 16 16 15 17 17 19
35 39 36 37 38 38 38 36 34 31 28 27 25 23 22 20 18 16 15 14 13 9 7 8 9 11 12 16 19 22 22 23 22 22 22 22 22 22 19 19 19 19 22
35 33 35 38 38 39 40 40 39 36 34 32 29 28 27 24 23 21 20 19 19 15 13 12 11 11 13 15 17 20 22 23 23 24 25 25 27 27 22 21 22 20 20
41 37 35 34 37 41 42 43 42 40 39 37 36 33 30 29 28 26 24 24 22 20 20 17 14 14 14 15 17 18 18 21 24 25 26 29 29 30 25 25 24 22 21
50 48 46 44 40 40 45 45 44 44 42 40 40 38 35 32 31 29 28 27 26 24 22 22 19 18 17 16 15 16 18 18 21 24 26 29 31 32 29 28 27 23 22
52 55 51 47 42 40 38 44 48 48 46 44 42 41 39 37 35 33 33 30 27 26 26 25 23 22 21 20 17 16 16 19 21 22 22 22 26 30 31 30 28 26 24
56 53 54 51 46 41 41 41 46 49 49 49 45 42 41 40 40 39 38 34 31 27 28 27 27 26 27 26 23 23 19 22 22 21 21 22 23 26 29 31 31 28 27
52 51 52 49 46 45 44 42 41 43 48 49 50 46 44 43 44 44 43 39 33 31 30 28 28 30 30 30 29 26 24 27 25 24 23 23 24 27 29 29 29 30 30
43 46 52 51 52 48 46 43 42 41 41 43 46 49 48 46 45 46 45 42 38 35 32 33 33 33 33 34 33 30 29 30 30 28 27 27 28 30 32 29 29 31 31
47 45 47 54 56 51 51 47 46 44 43 43 42 43 49 51 49 48 47 44 42 39 37 36 37 39 40 37 34 34 34 33 32 32 33 32 33 32 31 31 31 32 33
57 55 46 43 58 54 51 50 51 45 43 43 43 43 45 50 51 50 48 49 47 45 43 43 43 42 43 40 38 37 38 39 38 36 35 35 37 36 34 34 33 33 35
67 65 56 56 61 49 55 56 54 47 45 43 41 43 45 45 47 52 53 52 51 48 48 46 44 43 44 43 41 41 43 44 43 42 38 37 38 37 36 35 33 35 37
71 65 58 51 47 45 45 53 62 57 50 43 45 45 43 41 46 51 52 51 51 51 50 46 45 46 46 44 42 39 41 43 43 43 41 40 37 38 36 36 35 37 40
77 73 65 64 59 52 46 45 47 44 48 59 49 47 43 41 44 49 50 50 50 50 46 44 45 46 47 47 45 43 42 41 41 40 39 39 39 39 40 38 39 39 42
84 80 75 73 71 59 56 49 45 43 53 52 52 51 44 41 44 46 47 47 46 43 40 38 36 40 44 45 44 44 44 44 43 41 40 41 42 42 43 41 44 46 45
89 84 77 76 73 66 61 61 57 50 39 46 58 55 49 47 47 46 45 43 39 39 40 38 38 36 37 38 38 39 42 44 46 46 46 47 47 48 46 45 46 46 50
90 84 72 71 76 69 62 55 52 51 50 34 54 62 62 55 55 54 49 48 45 44 45 44 43 41 39 35 37 39 39 39 42 47 49 50 50 51 50 51 51 52 47
104 95 83 81 79 74 69 53 56 56 50 40 39 53 57 59 64 62 58 54 49 48 46 46 46 47 47 43 43 44 43 42 40 43 47 52 53 52 53 52 49 43 44
108 102 98 88 83 74 70 60 61 60 54 50 52 54 62 66 70 65 60 57 54 54 50 48 49 51 51 52 51 51 49 52 50 53 53 56 61 57 50 43 36 42 44
96 101 99 96 92 84 74 68 70 67 57 55 53 63 63 62 65 66 63 61 58 57 55 54 55 56 57 56 56 56 56 58 58 56 58 59 62 49 40 41 46 48 48
91 94 94 98 97 85 78 74 68 70 64 61 55 59 61 66 67 64 63 64 62 60 61 61 62 63 63 63 62 62 65 63 61 61 65 61 54 46 44 48 53 55 55
88 90 91 93 99 93 85 82 81 76 67 63 54 50 49 52 59 62 63 64 64 65 68 69 70 70 71 70 68 66 67 67 68 65 66 63 55 54 49 52 59 55 51
74 86 87 86 90 88 91 81 79 74 68 61 50 46 47 53 51 51 53 56 58 60 62 64 65 65 68 69 70 69 72 73 72 74 69 72 77 60 54 50 55 56 53

GFSGL_500_spd_069.txt.gz
Wind_Speed
34 30 28 28 26 24 23 21 21 20 18 17 16 15 12 10 9 9 11 12 14 16 17 17 16 14 12 12 13 13 13 13 12 11 8 6 5 3 2 3 5 6 8
39 36 32 32 29 27 25 23 22 21 20 17 18 17 15 13 10 7 8 10 12 14 16 17 16 15 15 15 14 13 13 14 14 14 11 11 10 8 7 7 9 9 9
41 40 35 33 33 30 29 27 24 22 21 20 19 18 18 16 13 10 8 7 8 10 13 16 17 16 17 17 17 16 16 16 17 16 15 15 14 13 13 13 13 13 13
38 39 38 35 35 34 33 32 30 27 24 22 22 21 20 18 16 13 12 10 9 8 9 10 14 16 18 18 18 19 19 19 19 19 19 19 19 18 18 16 17 16 16
40 38 36 38 37 35 36 35 33 30 28 27 25 23 22 20 19 17 17 15 14 12 9 9 10 11 13 16 19 20 21 22 23 23 23 23 23 23 22 18 19 22 23
40 39 39 41 40 41 39 38 36 34 33 31 27 26 24 22 22 22 21 19 18 16 14 12 11 10 10 13 15 18 20 22 25 26 26 26 28 27 25 22 21 23 23
48 40 41 43 42 40 42 42 40 38 38 35 33 31 28 27 26 26 25 24 22 22 21 18 16 14 13 12 12 14 16 19 22 25 25 28 29 31 27 25 23 24 25
48 44 39 39 39 43 44 42 42 43 42 40 38 36 34 32 31 30 30 28 28 26 24 24 22 20 18 16 14 13 14 15 19 21 22 24 25 26 26 25 26 26 25
36 40 40 43 40 39 39 43 46 45 44 44 43 41 38 37 37 35 35 33 31 30 28 27 25 25 24 22 20 18 17 17 17 17 17 19 19 20 21 21 22 23 23
50 48 45 50 47 45 44 42 43 45 46 46 44 43 41 39 39 40 39 37 34 31 30 29 27 26 28 29 26 24 21 24 23 21 18 17 18 19 21 23 23 21 20
57 61 50 52 51 49 53 50 48 47 44 46 46 44 42 40 41 41 41 40 36 34 33 31 29 29 31 33 31 27 25 30 28 24 22 21 22 24 25 26 23 21 22
62 58 54 50 46 48 52 54 52 48 44 41 43 46 45 44 43 43 45 43 41 39 35 34 33 34 34 34 33 30 29 31 30 29 29 29 29 31 31 28 26 25 24
67 64 58 55 45 55 57 59 54 50 46 44 40 40 42 46 47 46 46 46 46 44 41 38 38 37 38 38 34 34 34 32 30 31 32 34 36 36 35 33 31 30 27
69 67 61 56 54 58 62 61 57 54 48 45 42 40 39 39 39 42 45 49 49 49 47 44 42 41 41 40 38 37 36 35 35 35 36 37 39 39 38 38 35 34 31
76 73 67 61 52 54 62 61 57 55 51 47 45 44 44 39 37 43 43 43 46 50 53 51 46 40 40 41 42 41 41 40 39 40 41 42 44 45 43 41 38 37 34
82 75 71 66 60 62 55 55 56 58 57 53 49 48 45 41 41 41 44 43 45 46 49 49 46 44 43 44 44 45 45 41 41 42 42 42 42 43 43 43 43 41 38
88 83 69 72 68 64 59 56 50 53 64 58 54 52 50 44 44 44 45 45 44 42 42 44 42 42 43 45 45 45 44 45 44 43 43 41 40 40 40 43 45 44 42
93 90 83 74 74 70 68 64 60 59 63 62 57 57 56 52 50 46 48 48 41 40 39 38 39 37 38 41 42 42 44 44 43 43 43 41 42 40 41 42 43 45 46
96 96 92 79 78 75 73 69 61 54 57 47 48 50 55 51 47 54 57 54 44 40 39 39 38 36 37 38 38 36 35 34 36 37 36 38 41 43 43 44 44 46 48
99 99 98 92 85 81 77 73 65 63 51 53 46 47 47 45 46 54 60 59 50 44 45 43 42 40 38 39 41 40 37 34 34 36 36 36 38 39 40 43 44 49 51
101 101 100 98 89 86 82 80 72 71 64 60 55 56 52 51 48 46 59 60 52 51 47 44 44 44 42 44 44 44 41 41 40 41 38 37 40 43 44 46 48 51 47
95 100 103 102 100 93 87 85 82 81 72 69 61 57 62 59 53 44 45 57 60 55 54 51 50 48 48 48 48 49 49 47 44 45 44 44 46 48 50 50 54 54 53
73 94 100 103 101 99 96 89 87 83 80 72 68 60 63 55 53 48 41 48 46 58 51 56 62 55 50 55 55 55 54 52 50 51 52 52 53 54 56 53 53 51 50
56 76 94 100 104 101 97 94 90 88 78 79 74 69 67 56 53 46 46 48 55 58 56 54 54 51 51 56 56 56 57 56 56 58 60 61 62 63 63 58 56 57 54
52 62 80 93 99 105 104 98 95 94 82 69 74 76 69 61 53 50 49 49 50 58 57 58 55 53 59 62 62 61 60 61 62 63 63 65 68 66 65 65 66 66 64
24 36 67 82 95 97 105 104 101 93 88 78 75 74 73 62 60 61 59 54 52 53 58 58 55 58 61 63 63 61 61 62 63 57 58 60 60 60 61 62 60 64 68

GFSGL_500_spd_072.txt.gz
Wind_Speed
32 30 28 27 26 24 23 22 22 22 20 18 17 16 13 13 12 11 11 11 13 14 14 13 12 10 9 9 10 12 12 11 10 9 8 7 8 8 6 5 6 6 6
35 35 32 32 29 26 26 25 24 24 22 19 19 18 16 15 14 14 13 12 12 14 16 16 14 13 12 11 11 11 11 11 11 11 10 10 10 9 9 9 9 11 10
35 38 36 32 30 28 29 28 27 27 25 22 20 21 19 17 15 13 13 12 12 13 14 17 17 16 15 14 14 13 14 14 14 14 14 13 12 11 12 12 13 14 14
33 36 37 35 33 32 31 30 28 28 27 24 23 22 22 19 18 16 14 13 12 12 12 14 16 17 17 16 16 17 16 17 17 17 17 17 18 18 17 16 18 18 18
34 34 35 38 37 35 34 32 31 29 29 28 26 23 22 21 20 18 17 15 14 12 12 11 13 14 16 18 19 19 19 20 20 20 21 21 21 22 21 21 20 22 24
38 38 39 39 41 41 37 35 35 33 31 30 27 26 24 23 22 21 20 18 17 16 15 13 12 11 12 14 16 18 19 21 23 23 25 26 27 26 25 24 23 23 24
41 39 41 41 42 45 45 42 39 37 36 34 32 29 27 26 25 25 24 23 21 19 18 17 16 15 14 13 13 13 15 18 20 22 23 25 26 26 24 25 24 24 25
37 41 45 46 46 47 48 46 44 42 40 37 37 35 33 31 30 29 28 26 24 22 21 20 21 21 20 18 18 16 16 15 18 20 20 22 21 19 18 18 19 22 21
47 45 51 51 56 51 50 44 43 44 43 42 41 39 37 36 35 35 34 30 27 26 26 26 24 24 24 25 23 21 20 20 21 19 15 14 14 15 17 17 19 18 19
52 52 51 45 55 53 53 48 47 47 45 42 42 41 39 38 40 39 38 36 32 28 29 28 28 26 27 29 28 27 24 26 27 23 21 19 17 19 21 21 23 19 17
54 53 55 52 49 43 49 44 44 43 43 42 42 43 41 39 40 41 42 40 35 34 34 33 30 28 30 31 32 29 26 30 32 27 25 24 25 25 26 25 25 24 23
59 59 59 57 50 48 45 47 46 46 45 42 41 39 38 41 42 42 44 44 41 38 36 35 34 34 33 34 34 30 29 31 30 28 27 28 30 30 30 29 29 30 29
64 64 63 61 59 59 55 52 50 51 50 49 46 43 38 39 41 45 45 46 46 43 40 39 38 37 37 37 37 33 33 32 30 29 29 30 33 33 33 32 32 31 30
71 68 68 67 64 63 59 56 50 44 46 52 53 48 41 42 40 41 45 47 47 45 44 45 44 41 38 37 39 38 36 34 33 32 32 32 34 37 37 38 38 38 36
77 77 74 72 69 68 61 60 55 50 49 51 51 51 48 45 42 42 41 42 43 43 43 44 46 44 41 39 39 39 39 39 38 36 36 36 37 40 39 40 40 39 39
85 83 82 80 77 75 72 65 62 56 57 50 54 51 51 48 45 43 43 41 41 42 40 37 37 37 40 42 41 42 42 42 40 39 38 38 39 40 40 39 39 38 37
88 89 88 87 85 83 77 70 66 62 59 54 56 55 53 52 50 49 46 48 49 46 37 34 35 35 35 38 41 41 41 42 43 40 38 37 38 39 40 40 39 37 38
90 90 93 94 92 88 85 78 73 65 59 61 64 57 58 55 54 54 52 50 45 43 40 35 33 32 33 36 38 39 39 40 36 36 37 37 37 36 37 38 38 38 37
78 88 94 97 99 95 92 86 79 71 64 65 59 57 56 57 59 58 55 51 49 49 45 42 39 34 32 36 39 38 37 36 35 33 32 32 32 32 33 33 33 33 34
65 72 84 98 101 102 99 95 88 78 73 69 65 61 57 54 53 62 61 58 53 52 54 52 45 43 39 39 40 39 39 37 37 37 37 34 33 34 34 36 35 35 35
65 63 74 84 101 104 104 102 95 87 77 76 72 67 67 63 59 61 63 61 51 51 51 44 49 49 46 46 45 45 44 43 41 41 41 40 41 40 41 41 41 42 42
61 62 62 70 89 104 106 105 102 96 89 82 79 73 70 64 58 56 54 56 57 51 44 45 46 50 53 52 50 49 48 46 44 44 42 42 43 45 45 45 45 47 47
53 54 49 60 73 96 106 108 106 102 97 89 83 84 69 64 60 55 56 56 58 49 47 46 47 57 51 64 57 54 49 48 49 50 50 46 43 46 46 47 48 51 53
45 49 48 42 46 76 100 108 108 106 103 95 89 88 80 71 74 65 66 65 65 62 59 52 54 55 49 42 45 56 51 50 56 61 54 50 46 47 50 51 55 56 61
44 45 44 45 41 42 72 100 108 109 107 103 97 91 85 80 77 75 73 64 62 59 58 52 54 55 50 49 42 42 41 49 49 46 47 47 49 50 52 56 58 56 55
44 44 43 46 48 45 50 66 97 108 108 106 101 96 90 88 79 80 78 66 70 63 58 54 56 53 47 46 42 45 42 45 48 43 45 46 50 54 54 55 56 56 57

GFSGL_500_spd_075.txt.gz
Wind_Speed
28 30 27 24 23 22 19 18 18 19 18 17 16 14 11 12 11 11 12 12 12 12 12 12 11 10 9 9 11 13 13 13 11 9 8 8 10 10 10 8 9 10 8
30 31 31 29 26 24 22 20 19 20 20 19 17 15 14 13 12 12 12 13 12 13 13 13 12 11 10 11 12 11 11 12 12 11 10 10 9 11 12 11 14 14 15
30 29 31 31 27 26 26 23 21 20 21 21 19 18 17 15 14 13 13 12 13 14 15 15 14 13 12 12 11 11 12 12 12 13 13 12 12 12 14 14 16 17 19
26 26 28 31 30 27 28 26 24 22 22 22 22 19 19 18 16 14 14 13 13 14 14 14 14 15 14 14 14 13 14 14 15 16 16 17 17 17 18 18 18 20 20
28 28 28 29 32 32 29 27 27 26 24 25 24 21 19 20 19 18 16 15 13 12 12 13 15 15 16 16 17 17 17 17 17 19 19 20 21 20 21 20 20 21 23
32 30 33 32 32 33 35 34 32 30 28 27 26 24 22 20 20 21 20 18 16 14 12 11 10 10 13 15 16 17 18 20 21 21 22 23 24 24 24 22 23 23 23
33 37 39 37 36 36 37 39 37 35 35 33 31 29 27 25 24 24 23 21 20 18 17 16 14 13 13 13 14 13 13 15 18 20 21 24 24 25 23 23 21 21 22
34 32 34 43 39 38 37 38 40 40 37 37 36 35 33 31 30 28 29 27 25 24 22 21 19 18 18 18 18 17 17 15 16 16 17 20 18 19 18 17 18 20 19
43 39 39 31 41 40 38 38 38 41 42 40 39 39 36 34 34 33 33 32 28 26 25 25 23 23 23 23 23 22 23 21 22 21 17 16 15 15 15 16 19 18 19
50 48 44 44 38 39 46 43 43 43 44 46 45 44 43 39 39 38 38 37 33 30 30 29 28 27 28 29 27 28 25 27 28 25 21 20 19 19 22 21 22 21 19
53 52 50 48 46 45 44 36 45 42 49 48 47 48 48 46 43 43 43 42 39 36 35 33 32 32 32 32 31 29 26 30 29 27 24 22 24 26 26 26 25 24 24
56 56 54 52 52 52 51 47 43 42 52 55 53 49 48 46 45 44 44 45 43 42 39 38 38 39 37 37 36 31 30 31 30 27 25 25 26 27 29 28 27 27 28
61 59 59 58 56 55 53 50 46 41 38 39 47 48 46 46 44 46 45 45 45 46 43 41 42 42 41 40 39 37 35 33 30 29 29 28 30 30 30 31 31 28 27
68 66 65 63 62 60 57 55 54 51 48 51 48 52 50 47 41 41 43 44 45 47 44 43 44 46 45 42 39 39 40 38 35 33 32 33 34 34 33 33 33 33 33
74 73 71 70 68 66 65 62 59 59 55 58 51 45 49 45 46 47 47 46 45 42 42 44 46 45 44 43 42 41 42 42 41 38 37 35 36 36 34 35 35 35 35
75 76 76 76 75 74 71 68 67 64 63 62 57 53 47 45 52 53 55 48 45 41 37 37 36 39 40 40 41 44 45 44 44 44 42 38 36 37 36 36 36 36 37
74 76 78 78 79 80 80 77 73 70 69 68 63 57 54 50 53 56 55 55 49 46 42 39 35 30 31 34 37 38 39 42 46 47 45 41 40 40 40 38 39 38 37
72 74 77 80 81 81 83 83 82 78 75 73 71 66 61 56 55 54 56 57 52 49 44 41 37 36 37 38 38 39 39 41 43 44 45 43 41 40 39 36 34 31 29
68 69 71 74 79 83 84 85 86 85 83 80 76 73 68 64 62 59 57 52 55 55 52 50 44 41 41 42 39 37 37 39 40 41 42 43 41 39 36 31 30 31 30
67 66 66 68 70 76 81 85 87 89 89 87 84 79 76 73 67 66 61 57 60 55 55 53 51 50 49 46 44 43 42 41 41 40 40 41 39 37 35 35 33 33 33
70 68 65 64 68 67 71 78 82 87 92 93 90 87 83 81 75 67 67 61 61 60 61 57 55 56 54 50 50 48 49 46 44 45 43 43 44 44 42 42 41 41 38
67 69 68 65 64 67 70 69 70 75 83 93 96 94 90 87 82 76 70 70 61 61 61 62 60 60 57 54 53 51 49 46 47 48 48 47 48 46 50 47 47 47 45
62 64 65 62 62 64 67 69 70 70 72 81 90 97 98 94 89 83 78 75 73 66 60 54 53 54 62 62 53 46 45 47 51 56 57 54 54 55 52 52 50 51 51
51 53 56 59 59 61 62 66 70 72 73 72 79 92 100 101 96 90 86 81 80 73 68 63 60 61 61 66 43 43 41 45 42 49 60 62 55 57 56 60 56 54 54
43 46 50 52 54 57 60 61 62 69 71 73 77 84 96 105 103 98 97 87 81 74 70 65 62 63 54 51 50 46 46 47 52 49 50 46 57 60 55 63 61 59 64
38 42 43 47 49 53 54 51 52 55 58 58 57 71 90 104 107 105 100 88 84 76 74 70 66 64 58 58 58 56 51 53 47 44 45 37 38 41 45 43 41 37 37

GFSGL_500_spd_078.txt.gz
Wind_Speed
25 25 24 20 17 15 15 15 17 18 13 14 3 11 9 7 6 6 6 8 10 11 10 11 11 11 9 10 11 12 13 13 9 8 9 9 11 12 13 13 13 11 10
26 26 26 25 22 18 16 16 16 19 14 13 12 14 13 7 6 6 7 8 9 11 12 13 13 12 12 11 11 12 13 13 13 12 10 11 12 13 15 15 16 16 15
24 24 26 27 26 23 20 17 16 18 17 15 15 14 12 10 9 9 9 8 10 11 12 12 12 13 13 14 13 13 14 13 14 14 14 14 14 14 14 17 17 18 21
31 26 29 26 27 27 25 22 19 18 18 17 16 15 13 12 11 12 12 12 12 11 12 13 14 14 13 13 14 15 16 16 17 16 16 16 17 18 16 19 19 19 21
22 28 23 27 30 24 27 24 23 22 21 20 20 19 17 15 16 16 15 14 13 13 13 14 14 15 15 15 15 15 15 16 17 17 17 18 19 18 21 19 19 20 23
27 26 28 27 16 27 31 28 26 24 24 23 22 23 23 20 20 21 20 18 15 14 14 13 13 13 14 15 16 16 16 17 19 19 19 20 21 20 21 20 20 20 20
30 24 31 32 31 26 27 28 30 30 29 26 26 26 26 26 25 24 24 22 20 20 18 16 14 14 13 12 13 13 13 14 16 16 17 20 19 20 18 18 18 18 18
32 26 28 33 34 32 32 34 32 34 34 30 29 29 30 29 29 28 27 26 24 24 22 20 20 20 18 17 17 16 16 16 17 17 16 16 12 14 13 13 16 17 17
41 39 37 33 34 23 37 35 35 35 34 34 33 31 31 32 33 32 32 31 30 28 27 26 26 25 24 24 22 20 20 21 21 21 19 18 17 17 17 15 18 17 17
47 44 45 42 39 40 29 28 39 36 36 35 36 36 34 32 35 36 37 36 34 32 32 31 31 29 31 30 26 25 22 24 24 25 22 23 22 23 23 22 23 21 21
53 52 51 48 46 41 40 36 33 41 41 37 37 36 36 38 38 39 41 42 39 38 38 36 35 35 35 34 32 29 24 29 28 26 24 25 25 26 27 28 27 27 25
53 53 52 52 52 49 46 45 44 41 40 35 42 39 34 39 41 45 46 46 45 45 44 43 42 41 40 39 37 34 33 33 32 28 26 25 28 30 30 28 27 28 28
55 55 55 54 54 54 52 50 48 48 46 42 39 37 43 36 44 48 50 49 49 50 49 48 48 47 46 44 42 41 39 38 36 33 29 29 31 33 33 32 31 29 27
61 61 60 58 58 58 57 56 54 52 51 48 45 44 41 38 43 50 52 48 46 48 50 51 50 50 49 48 46 44 43 41 41 38 34 33 35 36 36 37 35 34 33
66 66 67 67 65 63 63 61 60 57 56 54 50 46 45 39 35 43 46 47 45 45 47 49 49 49 49 50 49 47 46 45 45 44 43 40 39 39 38 39 38 38 37
67 69 69 70 71 71 70 68 66 64 61 60 56 53 49 44 48 50 53 54 49 49 49 46 44 48 45 43 45 47 48 47 47 47 48 46 45 43 41 40 41 41 39
65 68 70 72 73 73 74 75 74 72 69 66 63 59 57 53 54 53 55 57 50 58 54 50 52 53 45 37 34 38 42 42 44 45 45 46 47 48 47 45 44 44 43
66 67 69 70 72 75 76 76 77 78 76 74 71 68 66 61 59 60 60 56 57 56 49 53 57 56 40 39 35 36 37 38 39 41 41 43 44 42 44 45 44 45 45
64 68 72 72 72 73 76 79 79 79 79 79 78 75 72 71 70 68 65 62 59 57 58 53 50 53 49 44 43 44 43 42 41 44 43 40 42 43 43 42 43 43 43
66 70 72 73 74 74 73 75 77 80 81 81 81 80 79 78 77 75 73 70 66 64 61 56 51 50 54 49 48 47 48 45 46 46 46 42 38 38 40 41 42 41 40
74 73 75 78 77 77 75 73 72 75 76 78 78 79 81 82 83 81 80 78 74 69 65 62 55 50 54 54 54 55 53 51 49 49 50 51 48 45 40 39 40 42 43
63 66 68 71 75 79 81 79 75 73 72 70 71 72 73 81 85 85 83 81 79 76 73 70 65 57 57 57 59 60 57 55 54 56 56 61 55 49 45 42 41 44 48
59 60 62 63 68 74 77 79 81 79 74 70 67 66 67 72 79 84 86 85 84 81 77 79 74 69 62 63 62 62 62 60 57 54 51 67 55 49 47 41 44 51 52
60 60 59 58 59 64 68 76 77 79 78 72 69 66 65 67 69 70 79 84 86 86 87 83 79 75 71 66 64 64 65 67 67 66 64 57 44 49 40 36 37 43 54
53 55 49 50 52 55 56 60 69 75 77 76 71 67 66 68 71 70 69 69 77 87 93 89 85 81 76 72 71 66 62 61 64 66 71 71 68 48 42 37 35 34 38
45 47 44 41 43 48 49 54 57 63 68 69 69 67 68 70 71 72 73 75 75 75 81 88 90 86 82 78 77 73 69 65 63 62 72 51 46 42 43 41 37 33 34

GFSGL_500_spd_084.txt.gz
Wind_Speed
22 23 24 24 22 19 18 17 16 16 16 13 16 12 10 8 9 10 10 11 12 12 12 12 10 10 10 11 14 15 14 12 10 12 13 10 10 14 13 14 13 16 17
24 25 24 26 25 23 21 20 18 19 18 19 16 17 11 11 10 11 12 13 14 13 14 14 12 11 11 11 13 14 16 16 15 16 16 14 16 13 11 15 15 18 18
27 28 27 26 27 26 24 23 22 21 22 21 20 18 15 15 13 13 14 13 14 15 15 15 15 14 13 14 14 14 17 18 17 17 17 17 18 15 15 17 19 18 18
29 32 33 29 29 29 28 26 25 25 24 22 22 20 20 20 16 16 17 16 16 18 17 17 17 17 17 16 17 17 17 17 18 18 20 20 19 19 17 20 19 20 23
32 37 28 24 27 30 31 31 28 27 26 25 24 23 23 21 21 22 21 18 18 19 19 19 19 20 19 19 20 20 18 18 19 20 21 22 23 21 19 18 18 21 23
26 35 32 26 26 29 29 32 35 36 32 29 28 26 26 27 27 26 24 23 22 22 20 19 19 21 22 23 23 22 21 21 21 21 21 22 24 21 19 19 19 19 21
27 21 15 36 32 32 31 37 36 34 37 32 33 31 29 29 30 27 26 26 25 24 22 21 21 21 22 23 24 24 23 24 25 24 23 24 23 21 14 16 16 17 18
25 25 32 23 20 32 24 30 39 32 42 38 36 34 31 31 32 33 31 29 28 27 26 25 23 24 24 24 23 22 22 22 23 21 20 22 18 18 14 13 16 17 19
30 30 32 30 31 34 22 29 30 25 33 37 35 35 33 34 34 34 35 33 31 30 31 29 29 28 28 27 25 24 23 22 23 22 22 21 20 20 21 20 22 21 23
38 35 34 34 31 29 34 20 15 27 33 34 37 39 35 36 38 37 36 35 34 34 35 34 34 33 34 33 29 29 25 26 28 26 24 24 24 24 26 25 27 27 26
41 40 39 39 38 35 33 33 38 34 27 25 26 36 37 41 44 41 40 39 38 39 39 37 37 37 36 36 35 32 29 32 31 29 28 26 26 28 29 29 30 29 28
43 43 40 41 41 39 36 36 33 34 32 37 36 34 35 42 44 44 44 44 43 42 42 41 41 42 41 40 40 37 36 36 36 34 32 31 31 33 36 35 34 35 34
45 46 47 45 43 43 42 40 39 38 36 36 37 41 43 39 36 42 43 44 45 46 45 44 45 46 45 46 45 43 43 41 41 41 39 37 36 37 39 39 40 40 39
54 52 51 51 50 48 46 45 44 44 44 41 40 39 40 41 42 41 34 39 43 45 48 49 47 47 47 48 49 49 48 47 47 47 45 44 43 43 43 43 44 44 43
57 56 53 54 54 54 52 50 49 49 48 49 46 45 43 43 44 45 44 43 45 46 44 46 45 42 44 49 52 52 53 53 53 51 51 49 49 48 47 49 49 48 47
53 54 55 55 55 55 56 56 55 54 54 54 55 53 50 49 48 50 50 49 50 53 50 47 45 49 50 47 48 51 56 57 57 56 55 53 52 53 53 53 51 51 50
47 46 47 48 49 50 52 53 54 57 58 59 60 60 60 57 56 56 56 55 53 53 53 52 51 52 52 52 49 48 51 60 59 54 51 54 55 54 54 54 54 52 53
45 45 46 45 45 46 47 49 51 52 55 59 62 63 65 66 64 62 62 61 60 59 57 55 52 52 54 55 52 48 46 49 53 53 53 52 53 51 49 50 52 51 53
44 46 45 45 45 46 47 49 51 51 53 54 56 60 65 68 69 69 68 68 66 66 65 63 60 58 56 56 54 53 52 53 54 52 51 51 53 51 53 52 47 48 53
48 48 47 48 49 49 48 48 50 52 55 58 61 64 66 68 70 73 75 74 73 72 71 70 68 67 64 61 60 56 56 57 57 55 56 52 53 58 58 52 49 51 55
52 51 52 54 55 55 54 55 57 59 60 61 62 63 69 73 74 75 77 80 81 80 78 76 74 73 71 69 67 65 62 59 59 62 59 58 55 53 50 51 53 55 56
56 56 57 58 59 60 60 60 62 63 64 65 67 69 70 71 76 81 83 82 84 86 85 84 82 81 79 77 74 73 71 68 65 64 63 61 59 58 58 55 53 53 55
52 54 56 58 60 61 63 65 67 68 70 72 74 75 78 79 78 79 84 88 90 90 89 91 90 86 85 83 81 80 77 75 74 71 69 66 64 62 61 59 58 58 60
51 52 54 56 59 59 60 62 65 69 72 74 77 80 82 82 81 81 79 80 86 91 93 95 94 95 93 89 87 85 83 82 80 78 76 73 71 70 68 66 62 62 63
42 44 44 45 46 49 52 57 62 67 72 76 80 83 84 85 84 83 84 83 80 82 86 91 96 97 97 96 92 90 87 84 83 82 81 79 75 75 74 72 71 69 67
39 39 41 44 47 51 56 62 69 71 75 77 75 74 74 73 73 75 78 80 82 81 82 84 88 94 98 97 93 91 90 89 87 84 83 81 78 76 77 78 77 75 74

GFSGL_500_spd_087.txt.gz
Wind_Speed
24 26 24 23 23 22 21 20 20 21 20 15 17 16 14 14 15 14 15 17 17 15 15 15 14 13 11 14 18 19 17 14 14 14 15 13 12 15 13 14 15 17 19
26 26 27 27 26 26 24 23 23 24 22 20 21 19 18 16 14 15 15 17 17 17 17 18 16 15 15 14 17 19 18 16 15 16 16 16 14 15 12 15 18 18 19
32 27 27 28 28 28 27 25 24 24 22 23 24 23 21 20 19 18 18 18 18 19 19 20 18 17 18 16 15 17 18 19 19 18 18 16 17 17 15 16 18 19 19
30 27 27 30 30 31 28 27 26 25 24 25 26 26 26 25 23 21 21 21 21 20 21 21 21 21 20 20 18 19 19 19 19 19 19 20 19 18 17 19 22 22 25
25 33 33 32 34 35 32 35 32 30 29 29 27 27 27 28 27 25 23 23 22 21 21 22 23 23 23 23 22 21 20 19 19 21 22 22 21 21 20 20 20 23 24
23 22 32 38 30 39 41 39 38 36 34 35 34 32 32 31 31 28 27 25 24 23 24 23 24 25 26 25 24 23 22 21 22 22 23 23 24 22 19 18 20 20 20
25 25 30 26 42 34 33 33 36 41 41 39 37 36 33 33 33 32 29 27 27 27 26 25 24 26 27 27 27 26 24 24 23 23 21 22 22 23 19 18 15 15 17
29 27 24 27 23 28 38 37 36 38 40 45 42 41 40 37 34 34 33 31 31 30 29 29 28 27 28 27 27 27 27 27 26 25 23 24 20 18 15 14 16 19 20
29 29 26 24 21 29 21 24 34 40 39 42 44 48 47 44 40 39 37 35 35 33 33 33 32 31 32 31 28 27 26 25 26 25 22 21 20 19 19 18 21 23 24
27 27 27 26 26 26 23 22 24 24 25 30 35 38 45 48 43 42 37 37 39 38 37 36 37 36 36 35 31 29 26 26 30 27 24 22 22 22 24 24 25 25 24
38 37 35 34 31 29 29 28 23 17 26 23 29 29 39 40 45 43 43 39 37 39 38 39 39 39 39 40 38 34 32 33 34 32 29 27 26 27 29 31 31 27 26
38 37 35 33 32 33 32 29 28 27 24 31 41 43 35 32 29 49 47 44 42 42 40 41 42 41 40 41 41 39 38 38 38 38 35 33 33 34 37 37 36 35 33
43 39 35 36 37 35 34 36 34 31 31 30 31 32 34 37 43 41 33 38 46 46 46 46 45 44 44 45 45 44 44 43 43 42 41 39 39 40 41 41 42 42 42
47 45 43 41 42 45 44 43 42 40 37 36 35 35 35 36 36 40 42 46 43 37 37 49 49 47 47 47 50 51 49 49 48 47 46 46 46 46 46 46 47 47 48
56 57 59 58 56 52 50 48 46 45 45 44 42 40 41 41 42 42 42 41 41 41 38 36 43 43 46 49 52 52 54 52 52 52 52 52 52 52 50 51 52 52 52
63 63 61 58 55 54 53 53 52 51 49 49 49 48 48 48 48 48 47 45 45 46 46 47 45 46 47 47 50 51 52 52 51 52 53 55 55 54 53 55 56 56 56
53 54 54 54 53 52 52 52 52 53 54 55 54 54 54 55 54 55 54 53 53 51 51 52 52 53 53 53 53 53 53 57 58 57 54 51 54 55 56 56 58 58 56
46 46 46 47 47 46 47 48 49 52 53 55 57 57 58 59 60 60 60 61 60 60 58 57 57 56 56 60 61 61 62 61 60 59 58 56 54 54 55 56 55 55 53
44 44 44 45 46 45 45 46 48 49 51 53 55 58 59 59 61 63 65 66 66 66 66 65 65 63 63 62 62 62 63 63 63 64 63 61 58 56 53 51 52 53 52
46 46 45 45 46 47 47 47 49 51 52 54 55 56 56 58 60 62 65 68 71 73 72 73 72 71 71 69 69 68 67 65 63 63 63 61 61 60 59 56 54 53 54
47 47 48 49 50 51 52 53 54 54 55 56 57 57 58 59 60 62 64 67 70 73 76 77 77 77 77 76 75 75 75 72 69 69 69 66 64 63 61 62 59 58 56
45 46 47 48 51 53 54 56 57 59 60 61 62 63 63 64 65 66 67 68 70 72 75 79 82 83 83 83 81 79 78 78 76 75 74 72 71 69 66 66 63 63 59
45 46 47 48 50 51 53 54 55 58 59 61 63 65 66 68 71 73 75 78 78 77 78 81 83 86 89 90 90 88 86 83 80 79 78 78 77 76 74 73 69 69 64
48 46 45 46 47 48 49 51 53 56 58 60 63 66 70 74 77 80 83 85 87 88 89 89 91 92 93 94 95 96 95 93 90 87 85 82 79 80 81 79 76 76 75
44 45 44 45 46 47 49 52 55 57 59 61 66 70 73 75 80 84 88 92 93 94 94 95 95 95 98 99 98 99 100 99 98 96 94 92 88 84 82 82 81 80 80
41 43 43 44 46 47 48 49 51 53 58 62 65 67 71 75 78 81 82 83 82 82 84 85 85 89 91 93 96 97 98 100 101 101 101 99 96 93 89 86 84 84 84

GFSGL_500_spd_090.txt.gz
Wind_Speed
22 25 24 25 23 22 21 21 20 19 20 14 17 17 16 17 16 15 16 16 15 14 14 14 14 13 12 16 19 20 18 16 15 14 14 14 12 12 12 13 15 16 16
26 32 28 27 26 25 25 23 23 21 20 19 19 20 20 18 18 18 17 17 16 17 17 17 17 16 16 16 19 20 21 20 17 17 16 16 14 12 12 13 15 17 16
23 28 26 27 28 30 30 27 25 24 23 23 22 23 22 21 20 20 20 19 19 18 19 20 18 17 18 17 17 20 21 21 20 19 18 18 16 15 14 13 14 17 18
28 31 24 27 30 32 34 31 28 27 25 25 26 25 24 24 23 22 21 22 21 21 22 22 21 20 20 19 18 18 18 19 19 19 19 18 18 17 14 14 16 18 21
20 14 22 34 33 34 36 35 32 30 28 29 29 29 28 28 29 28 25 24 24 23 23 24 23 22 22 22 22 21 20 21 20 19 19 19 20 19 16 15 16 18 23
17 19 18 24 39 34 36 35 35 35 34 33 31 32 30 31 33 30 28 27 26 26 26 26 25 25 26 25 25 24 23 22 22 21 21 21 22 20 17 16 16 16 18
27 23 26 25 27 18 30 34 41 40 40 41 38 35 33 33 33 34 33 33 30 29 29 28 27 27 27 27 26 26 24 25 25 24 23 24 23 24 20 19 15 14 15
27 26 24 23 22 26 26 23 36 41 45 43 41 42 39 36 34 35 35 35 35 33 33 32 29 30 30 29 27 27 26 26 26 26 25 26 24 24 19 13 13 15 17
23 24 23 20 19 17 18 16 27 35 49 41 45 45 45 44 41 40 39 39 38 38 35 35 33 32 32 30 27 27 27 28 30 28 27 25 24 21 19 16 19 19 21
23 22 20 16 14 14 16 19 22 21 23 32 47 53 48 49 48 47 49 43 44 43 40 38 36 35 35 34 31 30 29 31 33 31 28 26 26 25 25 25 26 24 23
33 29 27 27 29 28 27 25 25 20 20 21 26 24 29 45 47 47 53 51 46 43 47 43 39 37 36 37 37 36 34 35 35 35 33 30 30 30 32 33 31 29 27
39 38 36 36 35 34 30 26 26 24 22 23 24 27 31 32 33 36 25 23 47 49 44 43 42 41 40 39 42 42 40 40 40 40 39 38 37 36 37 38 37 37 34
41 40 38 37 36 36 36 33 29 29 28 26 26 28 29 27 30 39 42 32 29 29 37 47 45 40 42 44 45 46 46 46 44 42 42 42 42 42 41 42 42 42 41
44 44 45 43 42 42 40 40 37 34 33 34 34 32 33 33 32 33 36 39 39 36 40 34 42 50 48 48 51 50 48 49 48 47 47 45 45 45 45 46 46 46 47
48 48 50 47 47 46 46 45 42 43 43 43 40 39 40 39 39 37 37 39 40 39 38 39 37 45 42 39 48 57 55 53 53 54 52 49 47 48 48 50 51 51 51
51 51 52 53 52 51 51 50 54 56 53 49 48 47 46 45 45 45 45 44 45 45 44 43 42 45 47 46 45 41 44 57 58 57 58 56 52 51 51 51 52 54 54
59 60 60 61 59 58 60 61 60 58 57 56 55 54 54 53 52 52 52 51 51 50 49 49 48 49 50 51 51 51 49 49 51 55 55 55 54 54 53 53 52 53 52
55 54 53 54 56 57 58 57 56 55 54 55 55 56 57 58 58 57 57 57 58 58 57 56 55 55 56 55 55 56 58 61 61 60 60 61 58 55 54 54 56 56 57
52 52 50 49 50 49 49 50 51 52 52 53 54 55 57 58 60 61 61 61 61 61 62 63 63 64 62 61 61 62 62 62 61 62 67 68 66 65 63 59 60 61 61
52 51 50 49 48 46 46 48 49 50 50 52 52 54 56 58 60 63 64 65 66 66 68 69 69 69 69 70 69 68 68 68 67 67 67 68 68 69 67 66 66 67 66
49 49 49 49 48 47 47 47 48 49 50 51 52 54 54 56 58 59 61 63 64 67 69 71 72 74 75 76 75 75 75 74 73 74 74 74 73 72 71 71 70 69 67
45 46 45 46 47 48 47 48 49 50 51 52 54 55 56 58 59 61 64 65 66 67 69 71 73 75 77 78 80 81 80 81 81 81 80 79 78 77 77 77 76 76 74
43 44 45 45 46 47 47 48 49 51 52 52 54 56 57 59 61 63 66 68 70 73 75 78 79 79 80 80 82 83 84 85 87 87 88 88 86 84 81 80 81 82 80
48 48 48 48 47 47 47 48 49 50 51 52 53 54 56 57 59 61 63 65 68 70 73 77 81 85 88 89 90 91 92 93 93 93 95 95 94 93 90 87 85 85 85
47 47 46 46 48 50 50 50 49 49 49 50 50 51 52 55 58 59 60 63 66 69 72 73 79 86 91 96 98 99 100 101 102 103 103 102 101 99 98 97 93 91 89
35 38 40 40 41 41 41 42 43 45 45 46 48 50 52 54 56 59 62 65 67 71 78 83 87 90 92 93 95 99 101 102 105 107 110 109 107 105 103 103 103 99 95

GFSGL_500_spd_093.txt.gz
Wind_Speed
18 17 20 19 20 19 20 18 18 18 18 16 15 13 14 15 14 14 15 15 15 15 14 14 14 13 12 14 17 21 19 17 15 14 13 12 11 10 10 10 11 12 11
19 25 22 23 25 24 24 24 21 21 19 18 19 17 17 16 15 15 15 16 16 17 16 16 16 15 15 15 16 18 20 20 18 16 15 14 13 11 12 13 12 13 13
22 25 27 27 25 26 27 28 27 25 22 23 23 21 19 18 19 18 18 17 17 18 17 18 18 17 17 17 16 16 18 19 19 18 17 17 17 16 14 13 12 13 15
28 30 32 32 28 24 30 31 31 29 27 25 27 26 25 23 23 23 21 19 18 19 19 20 19 20 20 19 19 18 18 19 18 19 20 20 20 19 15 11 13 13 16
34 33 24 21 23 26 30 34 34 33 31 29 29 28 27 28 26 25 24 21 21 20 21 22 22 22 22 22 21 21 20 21 20 19 19 19 21 20 16 14 13 14 18
20 28 13 9 14 27 32 37 36 34 33 33 33 33 31 29 29 29 28 26 27 26 24 25 25 25 26 25 25 24 23 23 23 23 22 22 22 21 18 16 15 15 17
24 20 17 14 15 17 26 34 35 37 36 37 38 38 34 30 30 31 31 30 30 29 28 28 27 27 26 27 26 26 26 26 25 25 24 25 24 25 21 20 18 18 18
23 22 17 18 21 20 14 16 25 26 27 38 42 42 37 36 35 33 33 32 33 32 31 32 31 30 29 27 27 27 27 27 27 27 27 27 27 28 27 24 23 22 20
26 21 17 17 19 17 16 17 14 17 21 18 31 41 42 40 41 41 39 36 34 35 35 37 35 35 34 31 30 29 30 30 30 28 28 28 29 29 29 26 25 24 23
28 23 20 16 13 13 14 12 13 12 13 15 17 19 28 36 45 46 43 42 41 40 41 40 43 39 38 37 35 34 34 33 32 32 31 29 29 29 29 27 26 26 26
30 26 23 23 23 22 22 21 21 20 21 21 22 21 20 24 31 46 49 54 47 47 45 45 46 43 50 43 39 37 38 36 36 36 34 33 32 32 32 32 32 31 30
34 37 34 33 33 32 31 30 28 25 25 25 23 21 23 23 24 29 26 26 39 44 48 54 49 47 45 50 47 44 44 41 39 39 38 38 38 37 38 37 37 36 36
49 48 44 39 38 38 38 36 33 32 31 30 29 27 25 24 27 27 27 36 31 30 37 34 31 35 45 48 50 55 50 48 46 43 41 41 41 41 42 43 42 42 40
47 46 46 43 43 41 41 41 38 38 36 36 36 35 32 28 29 30 31 32 31 35 41 42 34 34 32 28 35 49 51 50 49 49 47 45 46 46 46 47 45 46 46
47 48 49 49 48 46 45 46 46 46 45 44 43 43 42 41 37 35 37 38 38 37 37 38 39 40 41 39 37 36 40 51 50 47 46 49 52 52 50 50 49 50 50
54 53 53 55 54 54 52 51 52 49 49 50 51 50 48 48 46 44 43 44 45 45 44 43 42 42 43 45 47 46 46 46 50 46 46 43 42 49 55 56 53 53 52
58 55 57 58 59 59 56 51 50 50 53 55 56 59 59 55 55 53 51 50 50 51 51 51 50 50 49 49 49 51 52 54 53 54 52 51 50 49 45 46 50 51 52
60 61 59 58 58 58 57 57 57 57 59 59 60 61 63 62 58 58 59 59 59 58 58 59 60 59 58 57 56 56 57 56 58 57 59 61 60 59 57 55 53 53 53
59 58 60 61 61 59 59 58 58 58 57 58 59 63 64 63 61 61 61 61 62 62 62 64 65 66 68 67 66 66 64 63 62 63 62 63 65 63 65 66 65 63 63
56 58 60 58 56 54 54 53 54 53 54 54 54 55 57 58 59 61 62 63 64 66 67 68 68 69 70 72 73 73 72 70 70 69 69 69 69 69 69 69 68 68 68
48 49 51 55 57 56 56 55 54 53 52 51 50 51 53 54 55 57 59 62 64 66 67 68 68 70 71 72 73 74 76 77 78 77 76 76 76 75 75 75 74 74 76
45 45 44 45 48 52 54 54 53 52 52 52 51 52 53 54 54 55 57 59 61 62 64 65 66 68 70 72 73 75 76 78 79 81 82 82 82 82 81 81 81 81 80
45 44 43 43 45 47 48 48 48 49 49 50 51 53 54 55 56 57 58 59 61 63 64 66 69 71 72 74 76 78 79 80 82 84 85 85 86 87 88 88 88 87 87
41 46 44 41 42 44 45 46 46 47 49 49 51 52 53 53 54 55 56 57 59 61 63 65 67 68 70 73 76 80 82 85 87 88 89 90 89 89 90 90 91 92 92
40 39 41 44 45 46 47 48 48 49 49 49 49 50 50 51 53 53 54 56 57 59 60 62 64 66 68 71 73 75 79 83 88 93 95 95 95 95 96 97 97 96 97
39 39 39 43 45 46 47 47 48 48 48 49 49 49 49 49 50 51 52 54 57 60 61 63 66 69 71 75 77 80 82 88 92 95 98 100 100 101 104 105 105 105 104

GFSGL_500_spd_096.txt.gz
Wind_Speed
14 15 17 16 18 19 19 17 16 16 15 14 13 12 13 12 11 11 12 12 14 15 14 14 14 14 13 13 15 18 21 20 17 14 13 12 11 10 10 11 12 12 12
16 16 19 14 19 20 22 22 21 19 18 18 17 16 16 13 13 13 13 13 14 15 15 15 15 14 15 15 14 16 18 21 21 19 17 15 14 14 12 13 12 12 12
20 22 18 19 22 23 24 27 26 24 24 22 21 19 18 15 15 15 15 15 15 16 16 15 15 16 15 16 17 15 16 18 20 20 21 20 19 19 17 15 13 11 14
34 24 28 30 27 27 27 29 30 31 28 26 24 23 22 21 21 18 17 19 18 18 18 18 18 18 17 18 19 19 18 18 17 18 19 21 20 21 17 14 13 13 15
20 23 26 25 31 33 33 31 33 34 32 29 27 26 26 25 24 24 22 23 22 22 21 22 21 21 20 19 20 20 20 20 20 20 20 20 22 21 19 17 14 15 18
20 26 26 35 38 28 30 32 32 33 33 33 30 30 30 28 27 27 25 24 24 26 25 22 23 23 21 22 23 23 23 23 22 22 22 23 24 24 22 20 17 17 18
26 23 24 23 18 10 16 23 24 34 33 33 32 33 32 32 31 30 31 27 29 28 29 27 26 25 23 22 23 24 25 26 27 26 25 26 25 27 25 24 21 21 21
28 25 20 20 28 20 13 15 16 12 20 16 26 34 34 35 35 34 34 31 30 31 30 29 29 28 25 27 28 28 28 28 28 28 27 28 28 27 27 26 26 25 24
22 21 19 15 17 15 15 17 17 14 16 21 16 22 30 36 38 39 38 38 35 35 32 32 31 31 31 31 32 33 32 32 31 31 31 30 30 29 28 27 28 27 26
28 27 24 20 19 19 20 22 20 18 15 11 14 13 12 14 24 34 39 42 39 39 38 37 35 33 33 34 35 34 34 36 36 36 34 33 33 32 32 30 29 28 26
35 33 31 26 24 22 18 18 20 18 18 17 18 16 16 17 20 19 21 31 42 46 42 41 39 40 41 42 41 40 39 42 42 39 38 38 37 35 35 34 32 31 29
34 34 35 34 31 28 25 26 25 26 26 24 23 22 21 24 22 24 23 24 26 27 32 38 42 46 45 43 44 49 51 45 41 45 42 40 42 42 40 38 38 37 36
47 44 38 38 36 34 32 33 34 34 33 31 30 29 28 28 28 27 28 28 28 28 30 31 40 44 45 48 45 47 48 47 48 47 49 49 45 46 45 44 43 41 41
44 44 47 47 48 46 43 40 40 40 40 40 38 36 36 35 35 34 33 33 33 31 30 32 37 38 36 40 41 39 38 48 49 50 49 49 54 52 50 50 50 48 46
46 51 53 53 50 51 49 45 44 46 45 45 44 42 39 39 40 41 40 39 37 38 37 37 37 39 42 42 46 46 43 42 42 41 42 45 49 51 53 52 51 51 52
52 55 54 53 56 56 55 51 51 51 51 49 49 49 49 48 48 48 50 48 49 47 45 45 44 45 45 45 45 45 47 46 46 47 48 47 47 47 49 50 49 46 44
53 58 59 60 58 55 58 56 56 56 56 56 56 56 57 55 54 55 55 56 56 55 52 51 53 53 54 53 53 52 52 53 52 51 53 53 54 55 54 55 54 55 52
55 55 56 59 60 62 62 60 57 61 61 61 61 61 60 56 57 59 60 59 61 62 63 62 61 61 59 61 61 60 60 60 60 61 60 60 59 60 59 58 59 61 59
54 55 57 58 60 65 64 61 61 62 63 63 64 66 62 58 59 60 61 63 64 65 67 68 66 63 65 67 68 69 69 69 68 67 67 67 67 68 66 65 66 65 65
55 59 61 61 60 62 63 64 64 66 67 66 65 64 65 65 62 61 61 62 64 65 67 69 68 69 68 69 70 72 72 72 73 74 76 75 74 73 74 74 73 72 72
54 57 59 59 59 59 60 61 61 62 63 61 61 61 61 60 59 59 59 61 61 63 64 64 65 68 68 69 70 71 73 74 76 77 77 79 81 81 82 81 79 80 81
51 52 54 54 54 55 54 55 55 57 60 61 61 60 59 59 59 58 58 59 60 61 62 62 63 64 66 68 70 72 73 74 75 77 78 79 81 82 83 84 85 86 86
46 46 49 49 47 48 48 48 49 51 51 53 54 56 56 58 57 57 58 59 59 60 61 61 63 64 66 67 69 71 72 75 76 78 78 79 80 82 84 85 86 87 88
43 45 47 44 45 45 45 45 45 45 45 46 47 49 49 50 51 53 54 55 56 58 59 60 62 63 65 68 70 71 73 75 78 79 81 83 83 84 85 86 87 89 90
44 42 41 43 44 42 46 46 43 42 42 43 44 45 46 48 49 50 51 53 54 56 57 59 60 61 62 64 65 66 68 70 72 75 79 82 84 87 90 92 93 94 96
38 38 39 39 38 39 42 43 43 45 46 46 47 48 48 48 49 51 52 53 54 55 56 57 58 59 61 63 65 67 69 73 76 80 83 85 88 91 94 95 94 94 97

GFSGL_500_spd_099.txt.gz
Wind_Speed
18 16 16 17 17 17 16 16 15 15 17 17 16 13 11 10 11 11 11 11 12 13 12 12 13 13 12 12 12 14 17 21 21 20 17 13 11 11 11 10 13 15 16
27 21 19 15 16 16 17 19 18 18 16 20 16 15 15 12 10 11 12 12 11 13 14 15 15 15 14 14 13 12 14 16 18 18 17 15 13 13 13 13 15 16 17
21 29 22 16 19 18 18 20 21 21 21 19 20 20 17 17 15 14 13 14 13 14 14 15 16 17 17 15 16 14 14 13 15 16 17 18 17 17 16 16 16 14 16
29 23 20 19 20 23 25 24 25 28 24 25 23 23 23 21 20 18 17 17 16 15 15 15 16 17 17 18 17 17 17 17 17 16 17 18 19 19 18 16 14 15 16
27 23 21 27 30 25 29 26 25 28 30 28 28 26 25 24 21 22 21 21 19 19 19 18 16 18 18 18 18 18 18 19 20 20 21 20 20 19 18 18 16 16 19
32 21 19 15 21 14 21 30 29 30 31 35 27 30 28 24 27 28 26 24 24 24 21 20 19 20 18 19 21 21 20 22 22 22 22 23 24 23 21 21 19 18 18
20 19 19 16 18 15 16 21 26 25 26 28 28 31 32 31 32 31 28 28 27 26 25 24 24 23 25 26 23 23 24 24 24 24 24 26 26 28 26 25 23 21 19
20 16 16 18 18 17 19 16 9 11 17 19 31 37 38 36 36 34 33 32 32 30 27 28 29 27 27 28 28 26 25 25 26 25 25 27 27 27 27 26 26 25 24
23 22 15 13 17 17 19 21 17 18 16 15 13 18 16 25 38 38 38 37 33 34 34 32 29 28 29 31 31 31 31 30 30 28 28 28 29 31 31 29 29 27 25
31 27 25 23 20 20 21 21 21 20 22 22 21 22 19 20 20 26 32 36 36 37 38 40 37 37 36 35 34 33 33 32 33 34 33 32 33 34 36 35 32 31 31
37 37 34 30 27 26 24 25 25 25 26 25 21 19 19 19 22 22 19 17 18 22 27 35 42 45 41 38 37 38 38 37 38 37 38 38 40 40 39 39 37 37 34
43 39 38 39 37 34 32 31 30 27 25 25 24 21 20 21 21 22 24 25 26 24 24 24 26 30 36 41 39 41 41 45 44 41 42 45 46 43 46 44 41 39 40
46 45 42 36 35 33 35 36 34 33 32 31 30 29 28 28 30 29 28 28 27 28 29 29 30 31 32 32 37 42 42 44 43 44 42 44 46 44 44 44 46 47 43
45 45 49 49 45 41 36 39 43 41 35 35 36 36 35 35 35 35 35 35 35 35 35 35 36 36 36 35 36 38 38 36 38 41 42 43 40 41 49 51 50 51 51
44 44 45 45 47 49 49 46 46 49 49 47 43 43 42 40 40 41 41 41 41 42 42 42 42 42 42 42 40 42 42 42 44 46 47 46 45 43 43 42 44 47 50
46 48 47 47 48 48 49 52 54 55 53 52 51 50 49 48 47 46 47 48 47 45 47 48 48 47 47 47 49 50 48 47 47 49 48 48 47 47 47 49 49 50 49
49 50 51 52 53 53 55 55 51 63 60 55 54 55 56 56 56 55 54 53 55 54 55 56 58 58 58 59 58 57 55 55 56 56 56 55 54 54 53 53 53 54 55
48 47 49 52 53 54 56 59 62 60 58 55 56 54 55 58 59 60 60 61 61 61 61 62 62 62 64 65 66 66 64 64 65 65 66 66 65 64 62 62 62 60 60
51 52 52 51 52 53 55 57 60 63 62 60 59 60 62 62 63 63 64 64 65 66 66 65 63 64 65 67 67 67 70 70 69 68 68 71 72 73 74 73 72 71 71
51 50 51 50 53 55 54 55 56 59 62 62 62 64 67 65 66 67 64 66 64 65 68 67 67 66 66 65 66 68 68 69 70 71 72 72 73 75 76 78 79 79 78
57 55 53 52 51 52 53 54 56 57 58 59 60 60 63 64 64 65 65 67 69 70 69 68 69 68 69 69 70 71 71 71 72 71 72 72 73 76 78 79 80 81 82
51 52 52 52 53 54 57 58 57 58 59 60 60 58 60 63 65 66 66 66 64 64 65 66 67 67 68 68 68 70 71 72 72 72 73 74 75 75 77 78 79 81 83
59 57 56 55 54 54 57 57 56 55 55 55 55 55 55 56 57 59 60 62 62 63 63 64 64 65 66 67 68 69 70 71 71 72 73 74 75 77 78 79 81 82 83
58 56 54 54 53 53 52 50 49 48 47 47 48 50 51 51 51 51 52 53 54 56 56 59 60 61 62 63 64 66 67 68 69 70 72 74 75 77 78 80 82 84 85
54 53 51 50 49 45 44 47 47 43 43 45 46 46 46 45 45 45 46 47 48 49 50 51 52 54 55 56 58 60 61 64 66 68 69 70 72 74 77 79 81 84 86
50 50 50 49 46 43 40 40 41 40 41 41 41 44 46 44 43 43 44 45 46 48 49 50 51 53 55 56 57 59 61 63 64 66 68 70 73 75 80 82 85 88 88

GFSGL_500_spd_102.txt.gz
Wind_Speed
14 15 16 19 18 17 17 17 16 13 12 12 10 10 10 7 8 8 9 11 11 10 7 8 11 12 12 10 10 10 13 12 16 19 18 12 10 8 10 13 14 15 18
18 19 19 22 16 16 20 22 19 16 14 14 15 13 10 10 9 10 10 12 12 11 12 12 12 12 15 13 11 11 12 11 10 12 16 19 19 17 13 14 16 18 20
22 20 21 28 17 19 22 21 17 17 15 16 15 12 15 16 14 12 14 14 14 13 13 12 13 14 14 14 15 15 13 12 12 10 12 14 15 14 14 14 16 17 18
31 26 26 21 32 23 26 22 16 16 17 20 23 20 18 18 17 16 18 18 16 15 15 14 15 15 15 14 15 16 16 16 14 13 13 16 16 15 15 14 14 15 18
21 19 18 27 23 26 26 23 20 23 22 24 21 22 24 20 23 23 21 22 20 18 18 18 17 17 16 16 17 17 17 18 18 17 16 17 17 18 17 16 15 15 18
15 14 18 32 27 26 23 26 26 28 24 25 21 23 24 26 26 24 23 24 23 21 22 22 22 20 20 20 19 19 19 19 20 21 21 21 21 20 19 20 19 18 19
14 14 17 20 12 12 12 11 11 15 16 15 19 20 26 26 29 29 28 28 28 28 26 25 26 22 25 24 23 23 22 22 23 21 22 24 24 22 20 21 20 20 19
18 16 13 14 14 13 15 16 15 12 12 17 12 20 22 27 30 31 32 33 33 32 32 30 28 29 28 30 28 27 27 26 25 25 25 26 25 26 24 22 22 21 22
21 19 16 15 15 13 14 18 18 22 24 19 18 16 12 15 22 34 39 38 36 36 33 32 31 33 34 34 33 32 31 31 31 29 29 29 29 31 29 28 28 25 25
29 28 28 26 23 22 18 19 20 21 24 25 24 22 23 21 20 23 22 22 34 39 36 39 39 35 37 40 39 35 34 33 34 34 34 32 32 33 35 34 30 31 32
38 36 33 33 30 29 27 27 23 24 26 27 27 27 25 27 29 28 27 23 22 21 21 28 29 26 32 39 41 43 42 41 41 39 36 37 39 37 38 37 38 38 37
44 42 39 38 37 36 34 32 31 30 29 29 30 31 30 27 25 26 25 27 27 26 26 26 27 29 29 28 27 31 34 39 43 44 41 42 43 43 43 41 43 45 41
42 43 42 41 40 37 36 37 38 37 36 36 36 32 30 30 30 29 28 28 28 29 29 29 29 29 29 31 32 31 33 31 34 37 39 41 42 42 42 43 39 37 38
45 45 46 45 45 43 43 39 39 38 40 39 38 36 35 35 35 37 36 35 37 35 36 36 35 35 36 37 37 35 35 36 36 37 40 41 39 37 40 41 41 40 38
46 47 47 48 46 45 46 49 48 47 43 43 40 45 44 40 40 42 42 42 41 41 40 41 42 42 43 43 44 44 42 43 44 41 41 42 43 45 46 47 46 45 44
46 47 48 50 49 49 49 49 50 46 53 44 51 49 53 53 50 48 48 48 47 46 46 46 46 48 49 50 50 51 52 51 50 51 53 52 51 51 50 50 52 52 51
49 48 49 50 48 50 53 52 54 54 56 60 58 56 58 58 60 60 57 55 55 55 55 54 54 55 56 57 58 58 58 59 60 61 62 62 62 62 61 60 59 59 59
46 47 50 52 53 53 53 55 56 58 60 59 58 57 57 57 60 68 65 62 60 59 59 58 59 61 62 62 64 66 66 67 68 68 67 68 69 69 70 70 71 71 71
43 44 46 48 49 51 52 52 54 58 60 57 57 60 63 63 63 63 62 58 59 61 60 62 62 65 67 68 68 69 69 68 69 70 68 66 69 70 68 70 72 73 74
52 52 52 51 50 51 51 51 52 53 54 55 54 52 56 58 60 60 60 61 59 60 62 64 64 66 68 68 68 66 67 68 68 68 70 70 69 70 71 70 71 70 70
53 54 56 56 55 55 54 52 52 53 55 54 52 52 54 53 53 53 54 56 57 59 61 62 63 62 61 63 66 67 68 69 70 71 71 72 73 74 74 74 74 76 78
56 55 54 56 57 56 55 54 54 54 53 54 53 53 54 57 58 57 57 59 58 59 59 61 63 64 63 64 64 65 66 66 68 69 69 71 74 74 76 78 80 81 82
54 55 53 51 54 55 55 55 54 54 55 56 56 56 55 57 58 58 57 56 55 53 53 55 56 58 59 60 61 63 63 64 65 67 69 70 71 73 76 78 80 81 82
54 56 57 55 51 56 59 60 59 58 56 55 55 56 56 56 55 54 52 50 47 47 47 48 49 51 52 53 55 55 56 57 58 59 61 62 63 64 65 67 69 72 73
54 53 55 57 56 54 54 55 54 54 53 53 54 54 51 50 49 47 45 44 43 44 45 45 45 46 47 47 48 50 50 51 53 55 57 59 62 64 66 67 68 69 72
54 53 53 51 54 54 50 47 48 50 50 47 44 43 42 42 43 43 42 42 42 42 43 44 45 45 46 47 49 50 50 50 49 50 53 56 60 63 67 71 74 76 79

GFSGL_500_spd_105.txt.gz
Wind_Speed
14 13 12 12 16 16 17 14 14 14 11 8 10 10 8 10 12 10 9 8 10 10 11 11 11 9 11 12 13 12 11 9 9 9 9 11 11 12 12 13 14 15 16
15 14 12 15 12 14 17 18 17 16 13 13 15 15 14 13 13 11 11 11 11 9 10 11 11 13 13 11 10 12 14 13 11 10 11 9 10 9 12 13 15 14 16
16 14 10 12 13 15 21 20 19 20 20 17 17 17 17 17 16 13 12 11 11 11 11 12 12 13 14 13 13 12 13 14 12 12 14 13 10 11 11 12 12 12 12
16 14 16 20 23 24 26 25 21 19 17 18 19 21 19 22 21 18 17 15 16 15 15 14 13 14 14 15 16 16 15 13 13 15 16 17 16 13 12 13 12 13 13
15 13 11 16 21 22 16 27 24 23 19 22 20 18 20 25 20 21 22 20 15 20 20 18 15 16 18 18 18 17 17 18 17 16 17 17 18 18 16 13 13 15 16
11 11 11 12 14 15 21 22 28 26 26 30 28 21 19 25 23 28 25 25 24 23 22 19 17 21 22 22 21 20 19 19 20 20 21 21 21 19 19 18 19 19 21
14 12 10 10 9 12 15 25 27 23 23 22 21 24 19 21 28 29 32 27 26 25 25 25 23 25 24 24 23 23 24 24 23 23 24 23 24 21 20 20 19 18 20
19 16 15 13 10 10 12 15 17 14 11 12 14 16 20 24 24 23 26 29 30 30 31 30 29 29 29 29 30 30 30 29 29 28 28 28 28 28 25 22 22 22 23
21 20 17 15 13 12 13 12 13 14 13 16 21 20 21 21 12 13 15 27 32 35 36 36 36 35 33 32 32 32 33 33 34 34 33 33 34 33 29 29 28 27 28
26 25 23 22 21 19 19 20 21 20 19 22 28 25 25 25 22 22 19 19 21 24 30 39 40 36 35 37 36 33 35 38 39 37 37 36 36 37 37 34 34 33 32
34 32 32 31 30 28 28 27 27 24 24 26 29 28 28 30 31 31 31 30 28 26 25 25 27 29 31 31 31 30 33 37 39 40 43 44 44 42 42 41 40 41 36
41 40 39 39 36 36 34 34 32 33 32 32 32 32 31 35 35 34 33 34 33 34 33 31 29 28 27 27 29 30 29 29 29 29 31 35 39 43 44 43 42 43 45
41 41 40 40 38 38 36 37 37 38 38 38 39 38 38 38 37 37 38 37 34 33 31 30 30 30 31 31 30 32 29 29 31 32 32 32 32 35 37 38 40 39 40
44 44 44 44 44 43 42 42 41 41 41 40 40 40 42 43 46 43 41 40 39 37 37 37 36 36 36 36 37 36 37 36 37 37 37 35 36 36 37 37 36 39 40
47 47 49 49 49 49 49 48 46 47 47 46 46 44 42 43 48 47 48 48 47 46 44 44 45 43 43 44 44 42 43 44 44 44 44 44 44 44 46 46 47 46 45
48 48 49 50 51 51 51 52 53 53 52 48 47 49 51 48 48 49 51 51 51 52 52 52 51 50 51 50 51 50 50 51 51 51 52 54 54 54 56 57 58 57 57
47 50 52 52 51 51 51 52 53 54 54 55 57 55 53 49 55 51 53 53 58 58 57 58 58 59 59 59 58 59 61 60 60 61 60 60 62 62 63 66 67 66 65
43 43 44 46 49 51 52 54 54 53 52 54 57 58 58 58 62 61 63 63 61 62 62 59 59 62 63 65 66 66 66 66 66 66 66 67 68 70 71 71 70 68 68
43 44 45 45 46 47 48 49 50 52 53 54 55 55 56 57 58 62 64 64 63 61 59 60 63 63 62 63 65 66 68 66 66 67 69 70 70 70 72 73 73 73 71
51 51 51 53 53 52 51 51 50 50 49 51 52 52 55 54 54 54 55 56 57 59 61 61 59 59 57 56 56 59 61 64 65 67 68 68 68 68 69 70 71 70 71
52 53 53 54 54 55 56 58 59 58 56 54 51 51 52 51 50 50 50 51 52 51 51 51 51 52 53 55 56 57 59 60 62 64 64 65 66 67 68 70 71 73 74
54 54 55 54 56 58 56 56 57 57 57 56 55 53 50 50 50 49 50 51 51 51 52 55 56 56 56 57 57 58 58 59 58 58 59 60 60 61 63 65 67 69 71
54 54 46 55 55 50 51 54 55 55 54 54 52 52 50 49 51 50 50 51 52 53 55 56 56 55 54 54 53 52 52 52 51 52 52 53 55 56 57 58 60 62 63
57 56 55 56 57 49 46 50 54 54 52 53 53 53 53 53 54 54 53 51 50 50 50 49 47 46 46 47 46 45 45 46 46 48 49 50 52 53 54 56 58 59 59
54 55 54 51 53 54 54 52 49 52 54 53 51 51 51 51 50 48 48 48 48 46 45 42 42 41 41 41 41 42 42 44 45 47 48 49 48 46 47 50 54 58 63
53 53 56 57 57 55 53 50 50 49 47 48 49 48 47 47 46 46 45 42 39 39 40 40 39 40 41 42 43 43 44 43 42 41 40 42 45 47 51 57 62 66 71

GFSGL_500_spd_108.txt.gz
Wind_Speed
19 18 15 14 15 14 14 15 14 14 14 12 13 15 13 13 12 12 12 13 12 12 12 10 10 11 11 10 9 8 8 9 11 12 11 11 11 10 13 14 15 17 17
18 16 16 13 15 13 16 16 16 16 15 16 15 16 14 14 14 13 12 14 13 13 13 12 11 12 14 12 12 12 9 9 9 12 11 10 11 12 13 14 16 18 18
20 16 19 13 15 12 12 14 15 20 18 19 19 19 18 19 18 17 16 15 17 15 15 15 13 13 13 13 14 14 14 11 11 13 12 10 11 13 13 15 15 17 15
20 17 11 9 15 14 13 16 17 18 18 20 20 20 21 22 21 21 21 21 21 20 20 18 17 15 15 15 15 15 14 14 14 15 14 14 13 14 14 16 16 17 17
19 13 8 11 14 18 16 19 19 25 20 19 19 21 22 22 27 24 25 29 25 22 17 16 19 19 16 19 17 17 16 16 16 17 17 18 17 17 17 17 19 20 18
17 14 16 16 15 16 17 20 19 25 24 23 25 24 27 25 25 26 28 26 26 26 24 18 24 26 23 23 21 21 19 21 20 20 21 22 20 20 20 20 21 22 25
16 15 15 13 11 12 13 15 18 23 26 26 29 32 33 35 32 30 31 27 33 32 31 30 30 30 26 25 25 25 22 21 22 25 26 25 24 21 20 21 22 24 25
14 15 16 16 12 13 13 14 14 15 21 24 25 24 23 25 27 27 27 29 31 32 34 31 31 30 31 30 29 29 28 29 30 31 31 29 29 27 26 26 27 28 27
22 20 20 19 17 19 18 16 16 18 18 17 17 16 19 17 19 22 26 23 26 27 32 34 34 33 34 34 37 35 33 33 33 33 33 33 33 30 31 31 29 29 33
22 22 25 21 22 23 22 21 20 21 22 22 22 22 25 27 26 25 25 23 24 23 26 33 34 31 35 39 40 39 36 36 36 37 37 36 37 38 39 37 35 36 38
29 27 25 25 28 26 26 27 25 24 26 28 28 28 29 30 31 30 31 32 32 32 32 32 33 34 33 31 33 37 41 41 39 36 32 32 35 38 38 39 40 41 41
34 34 36 37 37 36 35 37 35 34 34 33 35 34 34 34 34 34 35 35 37 36 37 37 38 40 39 35 34 32 33 32 32 30 30 32 29 29 30 31 30 29 33
42 43 42 41 42 40 40 39 37 37 37 38 38 40 41 41 42 40 39 39 38 39 39 39 39 41 38 37 34 33 35 33 34 34 33 33 33 31 32 33 32 31 32
45 44 45 45 44 44 42 42 41 40 40 42 42 43 44 46 46 44 44 45 45 44 43 42 43 42 40 37 35 37 38 37 37 38 37 38 38 38 38 39 40 40 40
48 49 48 48 48 48 48 48 49 47 46 46 46 46 47 49 49 49 48 46 50 51 50 47 46 46 46 46 44 44 44 44 44 43 44 44 44 45 47 47 46 47 47
50 51 52 51 51 51 51 51 50 51 50 50 50 50 50 50 52 53 53 52 49 49 51 51 51 52 53 52 51 52 50 50 50 51 52 51 53 53 54 56 57 57 58
48 50 53 54 54 54 53 53 51 51 51 52 52 53 53 52 52 54 52 52 54 57 55 56 54 57 59 58 57 58 57 58 60 59 60 62 63 63 65 66 66 67 67
42 42 43 45 46 47 48 49 50 51 52 52 53 53 53 53 54 54 56 56 57 57 56 58 58 60 63 59 59 62 66 64 63 63 63 64 66 67 69 71 72 72 71
41 42 43 44 45 45 45 46 47 48 49 49 50 51 52 53 54 55 55 55 57 58 58 59 61 61 60 60 61 63 64 63 63 65 67 68 67 65 64 65 66 68 70
49 50 51 52 52 53 53 53 52 51 51 50 51 51 52 52 52 52 52 53 53 54 55 55 55 55 55 55 56 55 55 56 56 56 57 58 59 60 62 63 64 65 68
51 53 54 53 54 57 56 56 58 58 57 57 57 57 57 55 53 53 52 52 52 53 52 52 51 51 51 51 51 51 53 54 55 57 58 59 61 62 64 64 66 68 69
50 53 55 56 54 54 55 58 58 56 56 56 56 55 57 55 53 52 53 53 52 52 51 51 50 49 50 50 51 53 55 57 59 60 61 61 61 62 62 62 63 63 63
54 56 58 59 58 57 55 54 54 55 55 55 52 48 52 53 51 50 49 47 48 48 49 51 51 51 52 53 55 57 58 58 58 57 56 55 55 54 55 54 54 54 53
56 58 59 60 61 60 59 60 58 56 58 58 60 58 54 51 48 48 48 47 47 49 50 50 50 51 51 52 53 53 52 51 49 48 47 46 47 47 49 50 51 52 49
57 57 58 58 58 57 53 54 55 55 55 54 53 56 53 49 47 48 49 50 49 48 47 47 48 48 48 48 47 47 46 45 44 45 45 46 46 46 45 44 43 45 48
50 50 52 52 52 54 56 56 52 49 49 50 48 45 45 44 44 44 45 46 46 45 45 45 43 40 39 40 40 42 42 42 43 43 43 43 42 43 45 46 48 51 54

GFSGL_500_spd_111.txt.gz
Wind_Speed
24 24 22 22 19 17 16 15 14 13 14 14 14 15 13 15 14 14 15 14 15 14 16 15 12 11 11 12 12 10 10 11 12 14 14 13 11 12 13 15 17 18 17
28 25 24 22 20 20 20 18 17 16 16 16 16 15 13 14 15 14 14 15 16 15 16 17 16 15 13 13 13 11 12 13 15 16 14 11 12 13 14 14 14 15 16
28 25 26 26 26 17 22 20 19 18 18 18 19 19 18 19 17 17 17 16 17 18 20 20 17 16 16 16 15 15 14 12 14 15 15 13 14 15 15 15 16 15 15
29 30 30 32 23 16 24 17 18 17 18 20 20 20 22 21 21 20 20 21 22 21 22 25 22 21 18 18 17 15 15 15 16 16 16 17 16 16 16 17 15 15 15
30 24 22 18 22 26 25 22 20 19 17 22 20 23 24 24 23 22 24 24 24 26 27 26 23 26 20 20 20 20 20 14 18 20 19 18 17 16 17 18 19 18 16
33 28 28 22 21 24 24 24 21 21 22 30 27 26 24 23 25 22 23 25 26 27 29 27 26 24 23 20 21 26 22 20 22 21 24 21 19 20 20 21 21 22 22
39 41 29 29 20 16 22 24 23 24 25 31 30 30 30 28 30 30 32 30 28 29 31 24 32 33 30 29 28 27 26 25 26 26 27 25 24 25 27 25 23 25 26
33 32 31 23 16 16 20 21 20 20 22 25 28 30 31 33 31 32 28 29 30 26 25 31 32 34 37 33 30 29 29 31 32 31 31 31 29 29 30 30 28 29 26
34 28 9 8 13 17 19 19 20 21 22 21 20 21 19 20 21 22 23 22 23 26 27 23 28 30 32 35 35 33 34 35 37 38 35 35 34 34 34 33 33 33 31
29 26 16 17 21 22 22 23 25 24 23 23 23 25 25 26 26 24 25 23 24 26 25 27 27 28 33 35 37 38 39 40 41 41 40 39 38 39 39 39 38 38 38
19 18 21 20 26 25 24 28 24 21 23 27 28 26 28 30 32 32 31 29 32 32 33 37 37 34 33 32 33 37 37 39 40 40 41 39 36 36 35 34 32 31 30
21 18 23 22 24 21 23 27 28 29 31 33 35 35 35 35 34 35 35 36 34 35 38 40 41 41 39 37 35 35 38 40 40 38 38 34 33 31 32 31 31 31 30
28 29 30 34 30 33 36 36 38 39 41 41 43 44 43 42 42 43 43 41 42 43 41 42 41 41 42 40 39 37 37 37 36 37 37 37 36 36 35 37 35 35 33
35 37 39 41 43 43 43 44 43 43 41 42 41 42 44 45 45 46 47 46 46 46 47 46 46 45 45 44 43 42 40 40 40 41 40 39 39 40 40 40 41 42 42
37 40 41 42 43 44 45 45 45 45 46 46 45 45 46 47 48 48 50 50 50 49 48 50 49 47 48 48 49 49 46 45 45 46 47 46 45 45 45 46 46 48 49
43 44 46 48 49 49 50 50 50 50 50 51 52 52 52 51 52 53 53 55 54 54 53 54 53 51 51 50 50 51 50 52 52 50 51 49 49 50 51 52 55 55 57
43 47 50 52 53 54 54 54 54 54 53 53 53 53 54 54 54 54 55 56 56 56 56 56 56 52 50 55 54 52 53 54 55 58 58 56 55 56 57 59 61 63 61
42 44 47 49 50 51 51 52 53 53 54 53 52 51 51 51 53 54 55 56 56 56 55 55 56 56 57 58 60 61 58 60 61 59 59 58 58 59 60 61 63 65 66
37 38 39 40 41 43 44 46 48 49 50 51 51 51 52 52 51 50 50 51 51 53 55 55 56 56 56 56 57 58 59 59 59 60 60 59 59 59 59 60 61 62 62
45 46 47 49 50 51 52 52 53 53 53 54 55 55 56 55 54 53 52 51 51 51 51 51 52 52 53 54 55 56 56 56 55 54 55 55 55 55 56 56 57 58 60
45 48 50 52 54 54 55 56 57 57 59 59 60 60 59 60 61 61 60 57 57 56 55 54 53 52 50 50 50 50 50 51 52 52 52 53 54 56 57 60 62 64 65
44 47 49 51 54 55 57 58 59 60 60 59 60 60 57 58 59 59 58 57 55 54 54 54 53 52 51 51 50 50 49 50 51 53 54 56 58 59 61 62 62 62 62
41 44 48 51 54 55 57 59 60 61 61 61 61 62 63 61 55 54 54 52 52 52 53 53 52 50 49 49 49 49 50 51 52 52 53 55 56 57 57 57 57 56 55
51 53 55 57 60 61 62 63 64 64 64 63 61 60 62 62 58 52 50 50 51 51 51 49 48 49 50 50 51 52 53 53 52 53 54 54 54 53 52 51 50 50 51
52 54 57 58 60 61 61 61 61 61 55 51 55 56 56 55 57 57 53 51 48 46 47 48 48 49 50 51 51 50 50 50 52 52 52 50 48 47 47 48 48 49 49
52 52 53 52 51 53 55 55 54 53 51 51 53 54 51 51 52 51 48 47 46 46 46 47 48 48 49 50 51 51 50 49 48 47 47 46 45 45 46 46 45 44 45

GFSGL_500_spd_114.txt.gz
Wind_Speed
22 21 21 20 19 18 18 17 16 15 13 11 11 10 12 12 11 14 13 12 11 11 11 10 10 12 14 14 16 15 15 16 17 16 14 12 12 12 13 13 14 13 12
25 23 24 22 22 22 21 22 18 17 16 15 15 13 13 14 15 14 12 13 12 12 13 14 12 13 14 15 16 17 18 17 17 17 16 14 15 15 15 14 14 15 13
27 25 26 26 26 28 27 27 23 20 20 18 17 17 18 17 16 17 16 16 15 13 12 13 14 15 17 18 16 17 18 18 17 18 18 16 15 16 16 16 17 17 16
29 27 29 29 31 31 27 26 27 23 22 20 19 19 20 20 20 21 22 22 20 19 17 18 18 19 22 20 19 20 18 17 19 18 18 17 17 16 17 17 17 20 21
30 27 29 32 34 33 32 23 24 24 23 20 19 20 20 22 22 23 22 21 22 23 22 21 22 24 24 20 19 19 22 20 16 16 18 19 18 18 17 17 19 20 20
35 32 33 35 33 30 31 30 27 25 25 24 22 23 22 23 19 21 22 22 24 23 23 24 23 23 23 25 23 21 21 20 23 20 18 19 18 18 19 19 20 23 24
32 38 40 40 29 27 22 31 33 30 31 28 27 28 29 32 29 26 28 26 28 27 27 26 25 24 29 27 29 35 30 27 26 27 26 24 23 25 27 28 27 25 25
39 34 37 39 34 32 33 39 36 29 29 29 29 31 32 34 32 32 31 30 33 30 26 25 28 24 29 24 28 31 35 32 30 31 31 31 31 31 32 33 33 32 29
34 34 40 41 41 39 32 29 24 26 29 31 32 35 30 33 29 26 25 23 19 29 28 31 32 30 25 28 31 28 33 34 34 36 35 35 37 37 35 36 35 35 34
34 41 37 40 30 31 28 29 25 28 27 24 24 24 25 25 25 23 23 24 24 26 26 24 25 24 28 30 29 29 29 31 35 36 37 36 35 35 36 38 40 41 41
24 24 34 40 37 24 30 26 25 29 32 33 30 27 27 25 26 26 27 28 30 31 30 29 30 31 34 35 37 38 35 35 36 35 35 35 35 35 35 33 32 29 28
32 27 19 32 25 28 33 31 33 25 21 22 25 25 25 29 31 33 35 35 36 36 35 35 35 35 35 36 38 41 41 39 39 39 35 34 36 34 31 31 30 32 31
23 30 23 18 29 18 18 22 24 24 27 28 30 31 35 36 39 41 43 44 44 44 44 44 44 45 43 42 42 42 41 41 39 39 41 36 37 36 35 35 34 32 33
24 27 30 32 33 30 27 29 31 31 36 39 39 41 42 43 43 43 44 45 46 47 47 48 48 48 51 49 47 47 48 47 46 44 42 43 40 41 41 40 41 42 41
34 34 34 35 37 36 38 39 41 43 44 44 44 44 46 47 46 46 46 46 47 48 49 51 51 52 48 47 47 49 49 48 46 47 46 46 46 46 47 47 48 49 49
41 41 41 39 40 41 41 43 44 46 47 47 48 48 50 51 52 53 53 52 52 53 53 54 56 55 56 55 56 56 55 53 53 54 52 51 51 51 52 53 54 55 57
44 44 43 42 41 42 44 45 46 48 50 50 51 52 53 53 52 52 53 54 56 57 57 56 57 58 58 57 57 59 57 55 51 47 50 53 56 56 58 57 56 56 58
39 40 41 41 42 43 44 45 47 47 47 47 48 49 51 51 51 50 49 49 50 51 53 55 58 59 60 60 58 57 55 53 52 54 61 60 57 59 58 58 59 59 60
35 35 37 38 39 40 42 43 44 45 45 46 47 47 48 49 50 50 50 49 48 49 50 50 52 54 55 56 57 57 56 55 54 54 55 55 55 55 55 55 56 56 56
43 45 46 47 48 49 50 51 52 53 54 54 55 56 56 56 56 56 56 57 56 56 56 56 55 54 53 51 51 52 53 53 53 53 53 53 53 53 53 53 54 54 54
40 42 45 46 48 50 52 54 55 56 57 57 58 59 59 60 61 62 63 64 64 63 62 61 60 59 58 56 55 55 55 55 55 54 53 53 52 52 52 51 52 53 54
41 42 44 45 47 49 50 52 53 55 57 58 60 61 62 63 63 63 62 63 63 64 63 59 58 57 56 55 54 53 52 53 54 54 53 51 50 51 51 52 53 54 57
35 38 41 44 48 51 55 57 58 59 60 61 63 64 65 64 64 64 63 61 61 62 63 60 59 56 54 53 52 52 52 51 49 48 48 47 48 50 51 53 55 57 59
39 42 45 47 49 52 55 58 59 61 63 65 66 67 67 68 67 66 64 62 59 58 56 55 53 52 51 50 49 48 49 49 49 49 50 50 52 53 55 56 57 58 59
41 43 45 47 49 51 53 56 58 59 60 60 61 63 62 50 53 53 57 53 52 51 51 51 53 53 51 49 49 50 50 50 51 52 53 53 53 54 55 56 56 54 52
42 44 45 47 49 52 54 56 56 55 56 56 56 56 57 46 50 52 48 47 47 45 48 51 52 50 49 49 50 50 50 49 49 50 51 51 51 50 51 51 50 48 49

GFSGL_500_spd_117.txt.gz
Wind_Speed
22 21 20 20 19 17 17 16 16 16 15 15 15 16 16 15 13 14 14 14 14 13 14 14 13 12 13 13 12 13 12 13 13 15 15 14 14 15 14 15 16 15 14
25 23 22 20 20 20 20 20 19 17 16 16 16 16 15 16 16 15 16 15 14 14 14 14 13 14 15 14 15 16 15 15 15 17 14 13 13 14 15 14 14 14 14
29 27 25 23 23 23 23 22 22 22 20 20 20 19 19 18 18 15 15 16 14 13 15 15 14 15 15 15 16 17 17 16 17 17 16 13 14 15 16 18 17 14 15
30 29 28 27 28 26 25 24 25 26 26 25 24 23 23 22 21 20 18 19 18 17 16 16 17 19 19 19 18 19 23 22 20 20 21 20 15 15 17 18 18 17 16
31 30 30 29 26 25 28 25 27 31 30 32 29 27 26 25 24 21 20 21 21 20 19 18 20 20 22 23 19 21 20 20 24 25 20 19 20 21 22 22 19 19 20
31 29 32 31 25 24 29 30 31 37 35 34 32 29 25 24 24 23 22 23 26 25 24 21 19 18 22 23 20 20 23 23 23 23 24 24 21 22 24 23 22 23 24
34 30 27 30 33 35 32 33 32 33 31 33 33 32 30 29 25 24 26 25 24 26 26 27 25 26 24 24 25 28 27 28 28 30 29 29 30 29 27 27 27 28 30
35 30 33 35 28 29 37 36 33 28 36 39 33 37 36 27 36 32 34 30 31 31 31 31 31 31 32 27 29 29 27 26 27 33 32 34 33 32 34 34 34 34 36
37 38 39 31 37 37 34 37 36 34 34 42 44 43 35 35 32 33 41 34 35 25 23 24 31 29 32 32 33 33 30 27 28 30 30 32 35 38 39 39 39 38 36
26 29 38 33 35 38 42 41 41 39 33 36 32 30 34 35 36 35 25 19 17 20 25 23 24 28 26 27 27 28 29 30 31 31 32 33 32 32 34 36 36 35 33
18 24 31 40 28 33 31 33 30 36 32 30 27 21 29 27 23 19 21 22 22 23 25 27 28 29 31 31 34 33 36 37 38 38 36 34 35 35 35 35 35 35 36
24 22 14 23 31 34 33 31 38 32 30 28 26 23 24 26 23 22 24 27 29 30 31 33 35 36 37 38 38 38 39 39 39 40 37 36 34 34 35 36 35 34 34
29 28 29 30 19 25 36 27 23 28 27 27 25 27 23 21 31 27 30 33 37 40 41 43 45 45 46 47 46 47 47 48 50 47 46 45 44 42 39 38 37 37 36
27 29 30 27 27 22 22 21 21 21 22 24 24 25 27 27 31 34 38 40 42 45 46 46 47 48 48 48 48 48 50 49 49 50 50 49 48 45 44 40 40 40 41
31 31 29 30 29 28 25 27 33 28 28 34 31 35 38 41 41 41 44 44 43 45 47 47 48 49 50 51 50 52 52 52 50 52 53 54 54 53 51 50 49 47 47
33 34 34 34 34 36 38 38 38 38 38 41 40 42 44 45 47 48 50 50 49 51 50 51 53 55 53 54 55 55 54 56 56 56 55 56 54 53 53 50 51 49 49
34 38 42 43 43 43 43 43 42 42 43 43 43 45 44 46 48 48 50 52 52 50 50 51 52 54 55 55 56 56 58 55 57 57 54 54 57 54 53 51 53 51 51
32 35 36 37 37 37 37 38 40 43 44 44 45 47 49 50 52 51 51 50 52 51 51 50 49 50 50 50 51 53 54 55 55 54 53 54 54 54 55 56 57 59 59
34 36 37 36 36 36 37 39 41 42 44 45 47 48 50 50 51 52 53 54 54 54 54 54 54 53 52 51 51 50 50 51 51 52 53 53 54 55 54 53 54 55 55
34 35 37 39 42 45 46 48 49 49 49 49 51 52 53 54 55 56 58 59 60 60 61 61 60 60 60 59 58 58 57 57 57 57 56 56 56 55 55 54 54 54 54
37 40 43 44 45 47 48 49 50 52 55 56 58 59 60 60 60 60 61 62 63 64 64 64 64 65 64 64 62 61 61 60 59 58 58 58 58 58 58 58 57 58 58
24 26 29 31 33 36 39 42 45 47 49 51 55 57 59 60 62 63 64 64 64 64 65 65 65 64 64 63 62 60 59 58 55 55 56 56 57 57 57 57 56 54 52
29 32 35 38 41 43 46 49 51 52 53 54 56 58 59 62 64 65 67 68 69 69 69 68 67 65 63 62 60 58 57 56 54 53 54 53 52 53 53 53 52 51 52
32 36 40 43 46 47 49 49 49 50 52 54 57 58 60 62 63 65 68 69 70 70 70 70 69 66 62 57 53 50 48 48 47 48 50 50 51 50 51 51 52 53 54
35 39 42 44 45 46 47 48 50 52 54 56 58 59 61 61 61 61 61 62 60 58 55 53 53 53 50 47 44 45 46 45 44 45 45 47 49 50 50 51 51 51 51
39 42 41 42 43 44 46 48 50 52 54 56 57 58 58 57 56 52 51 51 46 47 44 40 37 43 37 37 41 37 39 41 42 43 44 44 45 45 45 46 46 44 43

GFSGL_500_spd_120.txt.gz
Wind_Speed
23 22 21 21 19 17 16 15 15 15 14 14 15 15 16 18 17 16 15 15 15 15 14 14 15 15 16 15 16 16 16 16 15 17 16 15 13 13 13 14 12 9 7
27 25 24 22 21 20 20 19 18 17 18 19 20 19 19 20 19 20 18 16 16 16 16 16 15 15 16 16 17 17 17 17 18 18 18 17 17 17 15 15 15 13 11
29 28 26 25 24 22 20 21 21 22 21 20 21 21 19 20 19 20 20 19 21 19 18 17 16 17 16 16 16 17 18 17 17 19 19 19 18 19 19 18 18 17 17
32 30 29 27 26 24 23 23 23 23 23 23 24 23 24 23 23 23 23 22 23 23 21 21 19 20 21 20 21 20 19 18 21 22 22 22 22 23 22 21 21 21 22
34 33 32 32 28 27 26 25 25 25 26 26 27 29 29 28 26 27 24 24 25 26 25 24 24 24 23 21 21 21 19 18 20 20 21 22 22 21 25 25 23 21 20
33 33 34 34 32 30 28 24 25 24 24 24 32 34 34 34 32 29 27 27 26 26 25 25 27 26 23 23 21 23 23 21 22 23 24 25 24 25 24 26 28 28 27
33 35 33 32 30 31 31 25 25 28 30 33 36 34 38 38 36 32 29 30 28 28 26 24 27 27 29 29 29 28 27 26 26 27 26 28 30 30 31 31 32 32 32
32 33 39 34 32 33 32 32 34 34 34 27 30 28 37 36 38 37 35 33 32 31 32 34 33 32 34 33 34 33 31 29 29 28 28 27 28 31 32 34 33 34 36
38 39 40 40 42 37 40 33 33 28 29 36 37 32 34 41 41 43 41 42 43 39 39 37 37 35 34 37 37 33 30 30 30 30 30 30 28 28 28 30 32 36 38
32 34 32 41 35 41 25 31 32 27 35 33 36 40 42 43 45 42 46 47 39 49 50 39 33 34 26 30 30 31 30 30 29 30 32 33 33 34 35 34 34 35 36
14 28 25 31 30 24 35 38 41 37 37 42 39 39 38 33 33 41 51 43 41 33 32 26 23 24 25 27 27 27 30 31 32 33 34 34 35 36 37 38 38 38 38
15 15 18 17 23 31 33 38 32 29 30 31 40 42 40 32 27 27 27 30 29 24 23 24 26 28 30 31 32 34 37 39 40 39 41 42 42 41 42 42 41 41 42
18 20 21 27 25 27 24 27 31 36 30 30 40 32 30 30 27 26 24 22 23 23 23 30 32 34 36 39 41 42 44 46 46 45 44 45 43 43 42 41 42 42 42
18 21 22 20 24 24 25 24 25 32 30 18 21 26 28 28 28 22 18 20 26 30 33 36 37 39 42 44 45 46 46 47 46 47 48 48 46 47 47 45 45 47 47
27 26 28 29 28 29 26 24 25 32 28 24 21 22 23 27 30 32 33 33 34 36 40 43 45 47 47 49 49 50 51 51 52 51 48 53 54 54 52 51 51 50 50
23 24 27 29 30 29 30 29 29 30 34 35 34 35 42 44 40 40 43 44 44 45 48 50 53 54 54 54 55 55 57 57 56 57 54 54 56 54 55 55 52 53 51
28 30 32 33 34 34 36 38 40 40 41 43 42 41 41 42 41 41 43 45 47 47 49 50 51 52 54 54 54 54 56 56 57 58 57 58 56 54 54 53 53 53 58
28 29 31 33 33 32 32 34 35 35 36 37 37 39 39 40 42 43 43 45 48 48 48 48 49 49 49 49 49 49 50 50 50 51 52 53 53 53 54 54 53 53 53
30 31 32 31 30 32 34 35 35 37 39 41 44 47 48 49 50 50 51 52 53 54 55 55 56 56 56 56 57 57 56 55 55 54 54 54 54 54 55 55 56 57 57
27 29 31 33 34 37 39 39 40 43 46 48 50 53 52 53 53 54 56 57 58 59 60 61 62 62 63 64 64 63 62 62 62 61 61 61 60 60 59 58 59 59 59
26 26 26 27 27 29 29 30 32 35 39 42 45 47 49 51 54 56 57 58 59 59 60 60 60 62 62 62 62 62 63 64 64 64 63 61 60 59 59 59 57 56 56
14 16 19 21 24 26 29 31 35 38 41 44 47 49 50 53 55 58 61 63 64 65 66 66 67 68 69 68 67 68 67 65 63 62 61 59 57 54 53 53 53 54 54
22 23 25 27 29 33 36 40 43 46 49 51 51 51 52 53 53 55 57 60 61 62 64 66 68 71 71 70 70 70 69 68 64 60 59 58 57 55 52 49 48 48 49
26 28 31 33 34 37 43 47 49 51 53 54 55 56 55 55 57 59 60 62 63 63 64 63 65 67 68 68 67 64 61 58 55 54 53 51 48 45 44 48 47 47 47
30 33 35 37 40 43 47 49 50 51 53 54 53 53 54 56 58 60 63 63 63 61 56 55 53 56 51 47 46 42 38 35 36 38 40 42 40 39 39 41 43 44 45
34 36 38 41 44 48 50 49 50 50 49 48 49 51 53 55 57 57 58 53 47 42 41 43 42 42 40 31 31 37 29 29 32 35 32 33 35 36 37 39 38 38 38